[[{"header":{"parameterUnit":"m.s-1","parameterCategory":1,"la1":30.6,"la2":28.766,"lo1":-90.7593,"lo2":-88.6598,"dy":0.0162,"dx":0.0183,"nx":116,"ny":114,"refTime":"2023-09-12T18:00:00:Z","depth":0,"parameterNumber":2,"parameterNumberName":"U-component_of_WINDS"},"data":[0.0,0.0,0.0,0.0,0.0,0.0,0.0,0.0,0.0,0.0,0.0,0.0,0.0,0.0,0.0,0.0,0.0,0.0,0.0,0.0,0.0,0.0,0.0,0.0,0.0,0.0,0.0,0.0,0.0,0.0,0.0,0.0,0.0,0.0,0.0,0.0,0.0,0.0,0.0,0.0,0.0,0.0,0.0,0.0,0.0,0.0,0.0,0.0,0.0,0.0,0.0,0.0,0.0,0.0,0.0,0.0,0.0,0.0,0.0,0.0,0.0,0.0,0.0,0.0,0.0,0.0,0.0,0.0,0.0,0.0,0.0,0.0,0.0,0.0,0.0,0.0,0.0,0.0,0.0,0.0,0.0,0.0,0.0,0.0,0.0,0.0,0.0,0.0,0.0,0.0,0.0,0.0,0.0,0.0,0.0,0.0,0.0,0.0,0.0,0.0,0.0,0.0,0.0,0.0,0.0,0.0,0.0,0.0,0.0,0.0,0.0,0.0,0.0,0.0,0.0,0.0,0.0,0.0,0.0,0.0,0.0,0.0,0.0,0.0,0.0,0.0,0.0,0.0,0.0,0.0,0.0,0.0,0.0,0.0,0.0,0.0,0.0,0.0,0.0,0.0,0.0,0.0,0.0,0.0,0.0,0.0,0.0,0.0,0.0,0.0,0.0,0.0,0.0,0.0,0.0,0.0,0.0,0.0,0.0,0.0,0.0,0.0,0.0,0.0,0.0,0.0,0.0,0.0,0.0,0.0,0.0,0.0,0.0,0.0,0.0,0.0,0.0,0.0,0.0,0.0,0.0,0.0,0.0,0.0,0.0,0.0,0.0,0.0,0.0,0.0,0.0,0.0,0.0,0.0,0.0,0.0,0.0,0.0,0.0,0.0,0.0,0.0,0.0,0.0,0.0,0.0,0.0,0.0,0.0,0.0,0.0,0.0,0.0,0.0,0.0,0.0,0.0,0.0,0.0,0.0,0.0,0.0,0.0,0.0,0.0,0.0,0.0,0.0,0.0,0.0,0.0,0.0,0.0,0.0,0.0,0.0,0.0,0.0,0.0,0.0,0.0,0.0,0.0,0.0,0.0,0.0,0.0,0.0,0.0,0.0,0.0,0.0,0.0,0.0,0.0,0.0,0.0,0.0,0.0,0.0,0.0,0.0,0.0,0.0,0.0,0.0,0.0,0.0,0.0,0.0,0.0,0.0,0.0,0.0,0.0,0.0,0.0,0.0,0.0,0.0,0.0,0.0,0.0,0.0,0.0,0.0,0.0,0.0,0.0,0.0,0.0,0.0,0.0,0.0,0.0,0.0,0.0,0.0,0.0,0.0,0.0,0.0,0.0,0.0,0.0,0.0,0.0,0.0,0.0,0.0,0.0,0.0,0.0,0.0,0.0,0.0,0.0,0.0,0.0,0.0,0.0,0.0,0.0,0.0,0.0,0.0,0.0,0.0,0.0,0.0,0.0,0.0,0.0,0.0,0.0,0.0,0.0,0.0,0.0,0.0,0.0,0.0,0.0,0.0,0.0,0.0,0.0,0.0,0.0,0.0,0.0,0.0,0.0,0.0,0.0,0.0,0.0,0.0,0.0,0.0,0.0,0.0,0.0,0.0,0.0,0.0,0.0,0.0,0.0,0.0,0.0,0.0,0.0,0.0,0.0,0.0,0.0,0.0,0.0,0.0,0.0,0.0,0.0,0.0,0.0,0.0,0.0,0.0,0.0,0.0,0.0,0.0,0.0,0.0,0.0,0.0,0.0,0.0,0.0,0.0,0.0,0.0,0.0,0.0,0.0,0.0,0.0,0.0,0.0,0.0,0.0,0.0,0.0,0.0,0.0,0.0,0.0,0.0,0.0,0.0,0.0,0.0,0.0,0.0,0.0,0.0,0.0,0.0,0.0,0.0,0.0,0.0,0.0,0.0,0.0,0.0,0.0,0.0,0.0,0.0,0.0,0.0,0.0,0.0,0.0,0.0,0.0,0.0,0.0,0.0,0.0,0.0,0.0,0.0,0.0,0.0,0.0,0.0,0.0,0.0,0.0,0.0,0.0,0.0,0.0,0.0,0.0,0.0,0.0,0.0,0.0,0.0,0.0,0.0,0.0,0.0,0.0,0.0,0.0,0.0,0.0,0.0,0.0,0.0,0.0,0.0,0.0,0.0,0.0,0.0,0.0,0.0,0.0,0.0,0.0,0.0,0.0,0.0,0.0,0.0,0.0,0.0,0.0,0.0,0.0,0.0,0.0,0.0,0.0,0.0,0.0,0.0,0.0,0.0,0.0,0.0,0.0,0.0,0.0,0.0,0.0,0.0,0.0,0.0,0.0,0.0,0.0,0.0,0.0,0.0,0.0,0.0,0.0,0.0,0.0,0.0,0.0,0.0,0.0,0.0,0.0,0.0,0.0,0.0,0.0,0.0,0.0,0.0,0.0,0.0,0.0,0.0,0.0,0.0,0.0,0.0,0.0,0.0,0.0,0.0,0.0,0.0,0.0,0.0,0.0,0.0,0.0,0.0,0.0,0.0,0.0,0.0,0.0,0.0,0.0,0.0,0.0,0.0,0.0,0.0,0.0,0.0,0.0,0.0,0.0,0.0,0.0,0.0,0.0,0.0,0.0,0.0,0.0,0.0,0.0,0.0,0.0,0.0,0.0,0.0,0.0,0.0,0.0,0.0,0.0,0.0,0.0,0.0,0.0,0.0,0.0,0.0,0.0,0.0,0.0,0.0,0.0,0.0,0.0,0.0,0.0,0.0,0.0,0.0,0.0,0.0,0.0,0.0,0.0,0.0,0.0,0.0,0.0,0.0,0.0,0.0,0.0,0.0,0.0,0.0,0.0,0.0,0.0,0.0,0.0,0.0,0.0,0.0,0.0,0.0,0.0,0.0,0.0,0.0,0.0,0.0,0.0,0.0,0.0,0.0,0.0,0.0,0.0,0.0,0.0,0.0,0.0,0.0,0.0,0.0,0.0,0.0,0.0,0.0,0.0,0.0,0.0,0.0,0.0,0.0,0.0,0.0,0.0,0.0,0.0,0.0,0.0,0.0,0.0,0.0,0.0,0.0,0.0,0.0,0.0,0.0,0.0,0.0,0.0,0.0,0.0,0.0,0.0,0.0,0.0,0.0,0.0,0.0,0.0,0.0,0.0,0.0,0.0,0.0,0.0,0.0,0.0,0.0,0.0,0.0,0.0,0.0,0.0,0.0,0.0,0.0,0.0,0.0,0.0,0.0,0.0,0.0,0.0,0.0,0.0,0.0,0.0,0.0,0.0,0.0,0.0,0.0,0.0,0.0,0.0,0.0,0.0,0.0,0.0,0.0,0.0,0.0,0.0,0.0,0.0,0.0,0.0,0.0,0.0,0.0,0.0,0.0,0.0,0.0,0.0,0.0,0.0,0.0,0.0,0.0,0.0,0.0,0.0,0.0,0.0,0.0,0.0,0.0,0.0,0.0,0.0,0.0,0.0,0.0,0.0,0.0,0.0,0.0,0.0,0.0,0.0,0.0,0.0,0.0,0.0,0.0,0.0,0.0,0.0,0.0,0.0,0.0,0.0,0.0,0.0,0.0,0.0,0.0,0.0,0.0,0.0,0.0,0.0,0.0,0.0,0.0,0.0,0.0,0.0,0.0,0.0,0.0,0.0,0.0,0.0,0.0,0.0,0.0,0.0,0.0,0.0,0.0,0.0,0.0,0.0,0.0,0.0,0.0,0.0,0.0,0.0,0.0,0.0,0.0,0.0,0.0,0.0,0.0,0.0,0.0,0.0,0.0,0.0,0.0,0.0,0.0,0.0,0.0,0.0,0.0,0.0,0.0,0.0,0.0,0.0,0.0,0.0,0.0,0.0,0.0,0.0,0.0,0.0,0.0,0.0,0.0,0.0,0.0,0.0,0.0,0.0,0.0,0.0,0.0,0.0,0.0,0.0,0.0,0.0,0.0,0.0,0.0,0.0,0.0,0.0,0.0,0.0,0.0,0.0,0.0,0.0,0.0,0.0,0.0,0.0,0.0,0.0,0.0,0.0,0.0,0.0,0.0,0.0,0.0,0.0,0.0,0.0,0.0,0.0,0.0,0.0,0.0,0.0,0.0,0.0,0.0,0.0,0.0,0.0,0.0,0.0,0.0,0.0,0.0,0.0,0.0,0.0,0.0,0.0,0.0,0.0,0.0,0.0,0.0,0.0,0.0,0.0,0.0,0.0,0.0,0.0,0.0,0.0,0.0,0.0,0.0,0.0,0.0,0.0,0.0,0.0,0.0,0.0,0.0,0.0,0.0,0.0,0.0,0.0,0.0,0.0,0.0,0.0,0.0,0.0,0.0,0.0,0.0,0.0,0.0,0.0,0.0,0.0,0.0,0.0,0.0,0.0,0.0,0.0,0.0,0.0,0.0,0.0,0.0,0.0,0.0,0.0,0.0,0.0,0.0,0.0,0.0,0.0,0.0,0.0,0.0,0.0,0.0,0.0,0.0,0.0,0.0,0.0,0.0,0.0,0.0,0.0,0.0,0.0,0.0,0.0,0.0,0.0,0.0,0.0,0.0,0.0,0.0,0.0,0.0,0.0,0.0,0.0,0.0,0.0,0.0,0.0,0.0,0.0,0.0,0.0,0.0,0.0,0.0,0.0,0.0,0.0,0.0,0.0,0.0,0.0,0.0,0.0,0.0,0.0,0.0,0.0,0.0,0.0,0.0,0.0,0.0,0.0,0.0,0.0,0.0,0.0,0.0,0.0,0.0,0.0,0.0,0.0,0.0,0.0,0.0,0.0,0.0,0.0,0.0,0.0,0.0,0.0,0.0,0.0,0.0,0.0,0.0,0.0,0.0,0.0,0.0,0.0,0.0,0.0,0.0,0.0,0.0,0.0,0.0,0.0,0.0,0.0,0.0,0.0,0.0,0.0,0.0,0.0,0.0,0.0,0.0,0.0,0.0,0.0,0.0,0.0,0.0,0.0,0.0,0.0,0.0,0.0,0.0,0.0,0.0,0.0,0.0,0.0,0.0,0.0,0.0,0.0,0.0,0.0,0.0,0.0,0.0,0.0,0.0,0.0,0.0,0.0,0.0,0.0,0.0,0.0,0.0,0.0,0.0,0.0,0.0,0.0,0.0,0.0,0.0,0.0,0.0,0.0,0.0,0.0,0.0,0.0,0.0,0.0,0.0,0.0,0.0,0.0,0.0,0.0,0.0,0.0,0.0,0.0,0.0,0.0,0.0,0.0,0.0,0.0,0.0,0.0,0.0,0.0,0.0,0.0,0.0,0.0,0.0,0.0,0.0,0.0,0.0,0.0,0.0,0.0,0.0,0.0,0.0,0.0,0.0,0.0,0.0,0.0,0.0,0.0,0.0,0.0,0.0,0.0,0.0,0.0,0.0,0.0,0.0,0.0,0.0,0.0,0.0,0.0,0.0,0.0,0.0,0.0,0.0,0.0,0.0,0.0,0.0,0.0,0.0,0.0,0.0,0.0,0.0,0.0,0.0,0.0,0.0,0.0,0.0,0.0,0.0,0.0,0.0,0.0,0.0,0.0,0.0,0.0,0.0,0.0,0.0,0.0,0.0,0.0,0.0,0.0,0.0,0.0,0.0,0.0,0.0,0.0,0.0,0.0,0.0,0.0,0.0,0.0,0.0,0.0,0.0,0.0,0.0,0.0,0.0,0.0,0.0,0.0,0.0,0.0,0.0,0.0,0.0,0.0,0.0,0.0,0.0,0.0,0.0,0.0,0.0,0.0,0.0,0.0,0.0,0.0,0.0,0.0,0.0,0.0,0.0,0.0,0.0,0.0,0.0,0.0,0.0,0.0,0.0,0.0,0.0,0.0,0.0,0.0,0.0,0.0,0.0,0.0,0.0,0.0,0.0,0.0,0.0,0.0,0.0,0.0,0.0,0.0,0.0,0.0,0.0,0.0,0.0,0.0,0.0,0.0,0.0,0.0,0.0,0.0,0.0,0.0,0.0,0.0,0.0,0.0,0.0,0.0,0.0,0.0,0.0,0.0,0.0,0.0,0.0,0.0,0.0,0.0,0.0,0.0,0.0,0.0,0.0,0.0,0.0,0.0,0.0,0.0,0.0,0.0,0.0,0.0,0.0,0.0,0.0,0.0,0.0,1.8657,0.0,0.0,0.0,0.0,0.0,0.0,0.0,0.0,0.0,0.0,0.0,0.0,0.0,0.0,0.0,0.0,0.0,0.0,0.0,0.0,0.0,0.0,0.0,0.0,0.0,0.0,0.0,0.0,0.0,0.0,0.0,0.0,0.0,0.0,0.0,0.0,0.0,0.0,0.0,0.0,0.0,0.0,0.0,0.0,0.0,0.0,0.0,0.0,0.0,0.0,0.0,0.0,0.0,0.0,0.0,0.0,0.0,0.0,0.0,0.0,0.0,0.0,0.0,0.0,0.0,0.0,0.0,0.0,0.0,0.0,0.0,0.0,0.0,0.0,0.0,0.0,0.0,0.0,0.0,0.0,0.0,0.0,0.0,0.0,0.0,0.0,0.0,0.0,0.0,0.0,0.0,0.0,0.0,0.0,0.0,0.0,0.0,0.0,0.0,0.0,0.0,0.0,0.0,0.0,0.0,0.0,0.0,0.0,0.0,0.0,0.0,0.0,0.0,0.0,0.0,0.0,1.7878,0.0,0.0,0.0,0.0,0.0,0.0,0.0,0.0,0.0,0.0,0.0,0.0,0.0,0.0,0.0,0.0,0.0,0.0,0.0,0.0,0.0,0.0,0.0,0.0,0.0,0.0,0.0,0.0,0.0,0.0,0.0,0.0,0.0,0.0,0.0,0.0,0.0,0.0,0.0,0.0,0.0,0.0,0.0,0.0,0.0,0.0,0.0,0.0,0.0,0.0,0.0,0.0,0.0,0.0,0.0,0.0,0.0,0.0,0.0,0.0,0.0,0.0,0.0,0.0,0.0,0.0,0.0,0.0,0.0,0.0,0.0,0.0,0.0,0.0,0.0,0.0,0.0,0.0,0.0,0.0,0.0,0.0,0.0,0.0,0.0,0.0,0.0,0.0,0.0,0.0,0.0,0.0,0.0,0.0,0.0,0.0,0.0,0.0,0.0,0.0,0.0,0.0,0.0,0.0,0.0,0.0,0.0,0.0,1.3476,1.3433,1.3279,1.3124,1.3146,1.3314,1.5227,1.6371,1.7015,1.755,0.0,0.0,0.0,0.0,0.0,0.0,0.0,0.0,0.0,0.0,0.0,0.0,0.0,0.0,0.0,0.0,0.0,0.0,0.0,0.0,0.0,0.0,0.0,0.0,0.0,0.0,0.0,0.0,0.0,0.0,0.0,0.0,0.0,0.0,0.0,0.0,0.0,0.0,1.2744,1.2621,1.2498,1.2305,1.1809,0.0,0.0,0.0,0.0,0.0,0.0,0.0,0.0,0.0,0.0,0.0,0.0,0.0,0.0,0.0,0.0,0.0,0.0,0.0,0.0,0.0,0.0,0.0,0.0,0.0,0.0,0.0,0.0,0.0,0.0,0.0,0.0,0.0,0.0,0.0,0.0,0.0,0.0,0.0,0.0,0.0,0.0,0.0,1.5939,1.5811,0.0,0.0,0.0,0.0,0.0,0.0,0.0,0.0,0.0,0.0,0.0,0.0,0.0,1.2985,1.2368,1.2282,1.2172,1.1933,1.2118,1.2281,1.2377,1.2202,1.2179,1.22,1.2494,0.0,1.478,1.5455,0.0,0.0,0.0,0.0,0.0,0.0,0.0,0.0,0.0,0.0,0.0,0.0,0.0,0.0,0.0,0.0,0.0,0.0,0.0,0.0,0.0,0.0,0.0,0.0,0.0,0.0,0.0,0.0,0.0,0.0,0.0,0.0,0.0,0.0,0.0,0.0,1.1483,1.2182,1.249,1.2243,1.1988,1.174,1.1435,1.131,1.1373,1.0807,0.0,0.0,0.0,0.0,0.0,0.0,0.0,0.0,0.0,0.0,0.0,0.0,0.0,0.0,0.0,0.0,0.0,0.0,0.0,0.0,0.0,0.0,0.0,0.0,0.0,0.0,0.0,0.0,0.0,0.0,0.0,0.0,0.0,0.0,0.0,0.0,0.0,0.0,0.0,1.4842,1.5101,1.4955,1.4818,1.471,0.0,0.0,0.0,0.0,0.0,0.0,0.0,0.0,0.0,1.322,1.2873,1.2279,1.145,1.1359,1.1059,1.0684,1.0767,1.0759,1.069,1.0627,1.0564,1.0627,1.0703,1.1135,1.1889,1.3375,1.4166,1.4538,0.0,0.0,0.0,0.0,1.6479,1.6618,0.0,0.0,0.0,0.0,0.0,0.0,0.0,0.0,0.0,0.0,0.0,0.0,0.0,0.0,0.0,0.7359,0.0,0.0,0.0,0.0,0.0,0.0,0.0,0.0,0.0,0.0,0.0,0.0,1.1178,1.1615,1.1856,1.1545,1.1296,1.1045,1.0863,1.0926,1.1247,1.0744,1.0288,0.0,0.0,0.0,0.0,0.0,0.0,0.0,0.0,0.0,0.0,0.0,0.0,0.0,0.0,0.0,0.0,0.0,0.0,0.0,0.0,0.0,0.0,0.0,0.0,0.0,0.0,0.0,0.0,0.0,0.0,0.0,0.0,0.0,0.0,0.0,0.0,0.0,0.0,1.4373,1.4533,1.438,1.4227,1.4148,0.0,0.0,0.0,0.0,0.0,0.0,1.353,1.3285,1.2886,1.236,1.2065,1.1516,1.0584,1.0388,0.9945,0.9378,0.9256,0.9064,0.8807,0.8807,0.8807,0.8871,0.9128,0.9192,0.9384,1.1465,1.244,1.2744,1.3511,1.3859,1.3987,1.4849,1.5225,1.5303,0.0,0.0,0.0,0.0,0.0,0.0,0.0,0.0,0.0,0.0,0.0,0.0,0.0,0.0,0.7144,0.7616,0.7413,0.7253,0.0,0.0,0.0,0.0,0.0,0.0,0.0,0.0,0.0,0.9582,1.0225,1.0598,1.0577,1.0458,1.0401,1.0338,1.0028,1.0034,1.0364,0.9989,0.9664,0.9268,0.0,0.0,0.0,0.0,0.0,0.0,0.0,0.0,0.0,0.0,0.0,0.0,0.0,0.0,0.0,0.0,0.0,0.0,0.0,0.0,0.0,0.0,0.0,0.0,0.0,0.0,0.0,0.0,0.0,0.0,0.0,0.0,0.0,0.0,0.0,0.0,0.0,0.0,0.0,1.4868,1.4634,0.0,0.0,0.0,0.0,1.3055,1.2476,1.218,1.238,1.1755,1.1409,1.1344,1.0773,1.0085,0.9396,0.9,0.8415,0.7652,0.7652,0.7386,0.7055,0.7055,0.7055,0.7055,0.7451,0.7587,0.7777,0.9812,1.064,1.0696,1.1377,1.1757,1.2012,1.287,1.3243,1.3425,0.0,0.0,0.0,0.0,0.0,0.0,0.0,0.0,0.0,0.0,0.0,0.0,0.0,0.6544,0.6923,0.73,0.728,0.7136,0.6959,0.0,0.0,0.0,0.0,0.0,0.0,0.0,0.8748,0.9204,0.9524,0.9716,0.9709,0.9518,0.9326,0.9128,0.9,0.8812,0.8554,0.921,0.9274,0.8941,0.8161,0.7587,0.0,0.0,0.0,0.0,0.0,0.0,0.0,0.0,0.0,0.0,0.0,0.0,0.0,0.0,0.0,0.0,0.0,0.0,0.0,0.0,0.0,0.0,0.0,0.0,0.0,0.0,0.0,0.0,0.0,0.0,0.0,0.0,0.0,0.0,0.0,0.0,0.0,1.4028,1.3692,0.0,1.3066,1.2755,1.243,1.2258,1.1714,1.1397,1.1312,1.0812,1.0257,0.9837,0.9442,0.893,0.8172,0.7847,0.7456,0.7003,0.6872,0.6745,0.6609,0.6609,0.6609,0.6609,0.6741,0.6806,0.6872,0.7777,0.8544,0.9122,0.9831,1.0268,1.0647,1.1476,1.1919,1.2228,0.0,0.0,0.0,0.0,0.0,0.0,0.0,0.0,0.0,0.0,0.0,0.5007,0.5832,0.6322,0.6756,0.7133,0.7184,0.7077,0.6892,0.0,0.0,0.0,0.0,0.0,0.0,0.7782,0.8236,0.8371,0.8624,0.8624,0.849,0.8361,0.8166,0.7967,0.7907,0.7647,0.726,0.8037,0.8296,0.8231,0.7647,0.7199,0.6815,0.0,0.0,0.0,0.0,0.0,0.0,0.0,0.0,0.0,0.0,0.0,0.0,0.0,0.0,0.0,0.0,0.0,0.0,0.0,0.0,0.0,0.0,0.0,0.0,0.0,0.0,0.0,0.0,0.0,0.0,0.0,0.0,0.0,0.0,0.0,1.3451,1.3199,1.2899,1.2545,1.2243,1.1977,1.1784,1.1643,1.108,1.0672,1.0481,0.9753,0.9092,0.856,0.8226,0.7707,0.7134,0.6937,0.6675,0.6342,0.6214,0.6086,0.609,0.609,0.609,0.609,0.6086,0.6148,0.6152,0.642,0.7003,0.7777,0.8683,0.9268,0.9716,1.0548,1.1059,1.1373,0.0,0.0,0.0,0.0,0.0,0.0,0.0,0.0,0.0,0.0,0.3683,0.4563,0.5664,0.6105,0.6598,0.7182,0.7128,0.7024,0.6947,0.6551,0.0,0.0,0.0,0.0,0.6881,0.7265,0.7396,0.7204,0.7396,0.7256,0.6859,0.6859,0.6859,0.6859,0.6736,0.6675,0.6675,0.6482,0.6679,0.7134,0.6946,0.6881,0.6815,0.0,0.0,0.0,0.0,0.0,0.0,0.0,0.0,0.0,0.0,0.0,0.0,0.0,0.0,0.0,0.0,0.0,0.0,0.0,0.0,0.0,0.0,0.0,0.0,0.0,0.0,0.0,0.0,0.0,0.0,0.0,0.0,0.0,1.2928,1.2964,1.2826,1.2544,1.2228,1.1924,1.163,1.1367,1.1277,1.1277,1.0481,0.9951,0.9771,0.8641,0.7912,0.7707,0.7064,0.6613,0.635,0.6214,0.6013,0.5617,0.5617,0.5554,0.5428,0.5428,0.5428,0.5428,0.5554,0.5617,0.5617,0.5822,0.6218,0.6802,0.7972,0.8812,0.9402,1.0047,1.0491,1.0807,0.0,0.0,0.0,0.0,0.0,0.0,0.0,0.0,0.0,0.0,0.3239,0.4181,0.4948,0.5504,0.5941,0.6209,0.631,0.6241,0.5992,0.0,0.0,0.0,0.0,0.0,0.6346,0.6613,0.6679,0.6613,0.6679,0.6679,0.6548,0.6548,0.6478,0.6408,0.6342,0.6145,0.5881,0.5815,0.5881,0.6079,0.6276,0.6412,0.6346,0.0,0.0,0.0,0.0,0.0,0.0,0.0,0.0,0.0,0.0,0.0,0.0,0.0,0.0,0.0,0.0,0.0,0.0,0.0,0.0,0.0,0.0,0.0,0.0,0.0,0.0,0.0,0.0,0.0,0.0,0.0,0.0,1.205,1.2428,1.2466,1.2343,1.2011,1.1829,1.1529,1.1087,1.0975,1.0911,1.0771,1.0193,0.974,0.9478,0.8366,0.7587,0.7134,0.6609,0.6145,0.5815,0.5815,0.5686,0.5425,0.5425,0.5425,0.5428,0.5428,0.5428,0.5428,0.5425,0.5425,0.5491,0.562,0.5947,0.6408,0.7391,0.8301,0.9145,0.9734,1.0244,1.0681,0.0,0.0,0.0,0.0,0.0,0.0,0.0,0.0,0.0,0.0,0.3019,0.3852,0.4453,0.5011,0.5399,0.5504,0.5673,0.5638,0.5328,0.0,0.0,0.0,0.0,0.5624,0.6083,0.6083,0.602,0.5954,0.5822,0.569,0.5624,0.5554,0.5484,0.5415,0.5415,0.5316,0.51,0.5043,0.5052,0.51,0.5442,0.5752,0.6017,0.5422,0.5359,0.5557,0.5359,0.5557,0.6017,0.6346,0.0,0.0,0.0,0.0,0.0,0.0,0.0,0.0,0.0,0.0,0.0,0.0,0.0,0.0,0.0,0.0,0.0,0.0,0.0,0.0,0.0,0.0,0.0,0.0,1.1498,1.1604,1.1799,1.1877,1.1779,1.1524,1.1331,1.1108,1.0764,1.0645,1.0581,1.0511,0.9926,0.9472,0.9087,0.8042,0.726,0.6683,0.6214,0.5815,0.5488,0.5488,0.5491,0.5428,0.5428,0.5428,0.5428,0.5428,0.5428,0.5428,0.5428,0.5428,0.5428,0.5491,0.5818,0.0,0.0,0.0,0.0,0.0,0.9996,1.0308,0.0,0.0,0.0,0.0,0.0,0.0,0.0,0.0,0.0,0.0,0.0,0.3466,0.4012,0.457,0.4904,0.4904,0.5093,0.5111,0.0,0.0,0.0,0.502,0.5226,0.5425,0.5756,0.555,0.5422,0.5226,0.4894,0.4628,0.4492,0.4356,0.422,0.4223,0.4233,0.43,0.4325,0.43,0.4314,0.4319,0.449,0.504,0.569,0.5428,0.5561,0.5822,0.5822,0.6086,0.6482,0.7007,0.0,0.0,0.0,0.0,0.0,0.0,0.0,0.0,0.0,0.0,0.0,0.0,0.0,0.0,0.0,0.0,0.0,0.0,0.0,0.0,0.0,0.0,0.0,0.0,1.1087,1.1142,1.1145,1.1175,1.1227,1.1078,1.0927,1.0771,1.0606,1.0392,1.0289,1.0328,0.9695,0.9145,0.8835,0.0,0.0,0.0,0.0,0.5554,0.5428,0.5428,0.5428,0.5428,0.5428,0.5428,0.5428,0.5428,0.5428,0.5428,0.5428,0.5428,0.5428,0.5428,0.569,0.6214,0.7003,0.7652,0.8301,0.9344,0.974,0.9798,0.0,0.0,0.0,0.0,0.0,0.0,0.0,0.0,0.0,0.1346,0.2128,0.2798,0.3128,0.3577,0.3858,0.3747,0.3912,0.4077,0.0,0.0,0.4295,0.4691,0.4758,0.4758,0.4824,0.4824,0.4625,0.4295,0.4161,0.4095,0.3959,0.3889,0.3889,0.3894,0.3915,0.3894,0.392,0.3985,0.3975,0.3913,0.3963,0.4311,0.4824,0.4897,0.5027,0.5286,0.555,0.5885,0.628,0.6811,0.7138,0.7396,0.7531,0.0,0.0,0.0,0.0,0.0,0.0,0.0,0.0,0.0,0.0,0.0,0.0,0.0,0.0,0.0,0.0,0.0,0.0,0.0,0.0,1.087,1.1006,1.1118,1.085,1.0875,1.0863,1.0877,1.0829,1.0751,1.0533,1.0294,1.0187,1.0353,0.9823,0.9332,0.8952,0.7977,0.7199,0.6675,0.5947,0.5554,0.5428,0.5428,0.5428,0.5428,0.0,0.0,0.5428,0.5428,0.5428,0.5428,0.5428,0.5428,0.5428,0.5428,0.5624,0.6086,0.733,0.7982,0.8301,0.8888,0.928,0.9402,0.0,0.0,0.0,0.0,0.0,0.0,0.0,0.0,0.0,0.0,0.1568,0.2238,0.246,0.3135,0.3357,0.2798,0.2905,0.0,0.0,0.3825,0.4028,0.4292,0.4295,0.4292,0.4225,0.4025,0.3828,0.3627,0.3491,0.3424,0.3357,0.3293,0.3228,0.323,0.3275,0.3275,0.3351,0.3381,0.3387,0.3418,0.3117,0.3191,0.3487,0.4159,0.4628,0.4957,0.5286,0.562,0.6148,0.6613,0.7068,0.7396,0.7727,0.7792,0.7666,0.0,0.0,0.0,0.0,0.0,0.0,0.0,0.0,0.0,0.0,0.0,0.0,0.0,0.0,1.0681,0.0,0.0,1.0968,1.0768,1.0949,1.0986,1.0585,1.0505,1.0426,1.0533,1.0384,1.0263,1.0082,0.9925,0.9953,1.0182,0.9752,0.9383,0.9248,0.8405,0.7592,0.7018,0.647,0.5989,0.5583,0.5583,0.5583,0.5583,0.5583,0.5583,0.5583,0.5583,0.5583,0.5583,0.5583,0.5583,0.5583,0.5724,0.5812,0.5944,0.6814,0.7286,0.7517,0.8042,0.8301,0.8431,0.0,0.0,0.0,0.0,0.0,0.0,0.0,0.0,0.0,0.0,0.0,0.1454,0.1621,0.2404,0.2587,0.0,0.0,0.0,0.0,0.3556,0.3758,0.3892,0.3894,0.3761,0.3625,0.3291,0.3092,0.3025,0.2824,0.2688,0.2552,0.2421,0.2357,0.2357,0.237,0.2433,0.2524,0.2573,0.2659,0.2737,0.2206,0.2023,0.2214,0.3155,0.3961,0.4561,0.4824,0.5219,0.5686,0.6214,0.6605,0.7003,0.7526,0.7591,0.7396,0.7326,0.6666,0.0,0.0,0.0,0.0,0.0,0.0,0.0,0.0,0.0,1.0624,1.0624,1.0665,1.0705,1.0705,1.0882,1.1009,1.081,1.0976,1.0962,1.0401,1.0187,0.9986,0.989,0.9735,0.959,0.9418,0.9453,0.9625,0.9907,0.9616,0.9417,0.9475,0.8748,0.8043,0.7438,0.7015,0.6516,0.5946,0.5875,0.5875,0.5875,0.5803,0.58,0.58,0.58,0.58,0.58,0.58,0.58,0.5803,0.595,0.5948,0.5832,0.6179,0.637,0.6572,0.7095,0.7326,0.7391,0.0,0.0,0.0,0.0,0.0,0.0,0.0,0.0,0.0,0.0,0.0,0.0,0.0,0.0,0.0,0.0,0.0,0.0,0.0,0.309,0.3357,0.3553,0.3357,0.3226,0.3023,0.2956,0.2757,0.2288,0.2288,0.1951,0.1277,0.1277,0.1277,0.1279,0.1311,0.126,0.1339,0.1435,0.1503,0.1477,0.1398,0.1512,0.1681,0.1816,0.2487,0.3493,0.4154,0.442,0.4553,0.5087,0.5484,0.5877,0.64,0.6597,0.6531,0.6531,0.0,0.5683,0.5683,0.6613,0.7751,0.8603,0.9426,1.004,0.0,0.0,1.0624,1.0624,1.0768,1.0949,1.0949,1.1182,1.1308,1.1103,1.1204,1.1041,1.0214,1.004,0.9567,0.8708,0.8722,0.8832,0.8818,0.8788,0.8922,0.9483,0.9466,0.9405,0.9502,0.891,0.8343,0.773,0.7233,0.6738,0.6305,0.6165,0.6097,0.6097,0.5875,0.58,0.58,0.58,0.58,0.58,0.58,0.58,0.58,0.5803,0.5793,0.5776,0.5847,0.5908,0.593,0.6396,0.6613,0.6802,0.0,0.0,0.0,0.0,0.0,0.0,0.0,0.0,0.0,0.0,0.0,0.0,0.0,0.0,0.0,0.0,0.0,0.0,0.1804,0.242,0.2891,0.3222,0.2891,0.2624,0.2353,0.2151,0.195,0.1748,0.1616,0.1415,0.1078,0.0673,0.0471,0.0472,0.0477,0.0484,0.0491,0.0489,0.0559,0.056,0.1104,0.1429,0.155,0.1144,0.1209,0.1746,0.2748,0.3353,0.0,0.0,0.4486,0.4951,0.5342,0.5474,0.5474,0.5338,0.4942,0.0,0.5014,0.6009,0.7195,0.8226,0.8924,0.9578,1.0145,1.0318,1.047,1.083,1.0955,1.104,1.104,1.1276,1.1333,0.0,1.0773,1.0506,0.9468,0.902,0.8537,0.7621,0.7476,0.7642,0.7966,0.817,0.8482,0.8801,0.9041,0.9192,0.9406,0.8985,0.8607,0.8148,0.7703,0.7261,0.6891,0.6517,0.6368,0.6368,0.6218,0.6067,0.6067,0.6067,0.6067,0.6067,0.6067,0.6067,0.6067,0.6067,0.6013,0.5935,0.5935,0.5881,0.5858,0.6088,0.6244,0.6383,0.0,0.0,0.0,0.0,0.0,0.0,0.0,0.0,0.0,0.0,0.0,0.0,0.0,0.0,0.0,0.0,0.0,0.0,0.0,0.1738,0.242,0.2956,0.2624,0.0,0.1681,0.1412,0.1211,0.1009,0.0876,0.0809,0.0809,0.027,-0.0,-0.0,-0.0,-0.0,-0.0,-0.0,-0.0,0.0069,0.068,0.1012,0.1079,0.0337,0.0135,0.0403,0.1612,0.2351,0.0,0.0,0.3487,0.3751,0.4015,0.4148,0.4215,0.4148,0.3747,0.348,0.4348,0.5345,0.647,0.7752,0.8533,0.9119,0.9839,1.0057,1.0208,1.0704,1.0868,1.0988,1.0988,1.1217,1.1118,1.0463,1.0324,0.9836,0.8699,0.8232,0.7693,0.6927,0.671,0.6721,0.7115,0.7569,0.7868,0.8097,0.8407,0.8767,0.9008,0.8786,0.8622,0.8399,0.8016,0.7638,0.7338,0.6949,0.6714,0.6714,0.6412,0.6338,0.6338,0.6338,0.6338,0.6338,0.6338,0.6338,0.6338,0.6338,0.6196,0.6095,0.6095,0.6023,0.5928,0.6079,0.6099,0.6022,0.0,0.0,0.0,0.0,0.0,0.0,0.0,0.0,0.0,0.0,0.0,0.0,0.0,0.0,0.0,0.0,0.0,0.0,0.0,0.1188,0.2012,0.2956,0.2624,0.2018,0.1143,0.1143,0.074,0.0067,0.0067,-0.0,-0.0,-0.0,-0.0,-0.0,-0.0,-0.0,-0.0,-0.0,-0.0,-0.0,-0.0,0.0067,-0.0,-0.0742,-0.0809,-0.027,0.1144,0.0,0.0,0.0,0.2488,0.2281,0.2281,0.2484,0.0,0.3159,0.2753,0.2482,0.3682,0.4827,0.5977,0.7475,0.8333,0.8931,0.9516,0.9755,0.9907,0.9933,1.0314,1.0707,1.0707,1.0777,1.0651,1.0282,0.9916,0.9311,0.8237,0.7923,0.754,0.6714,0.6641,0.6563,0.0,0.6714,0.7096,0.7484,0.7706,0.8008,0.8403,0.8246,0.8174,0.8403,0.803,0.7804,0.7804,0.7176,0.6861,0.6861,0.649,0.6338,0.6338,0.6338,0.6338,0.6338,0.6338,0.6338,0.6338,0.6338,0.6335,0.6254,0.6254,0.6251,0.6325,0.6325,0.6057,0.5803,0.0,0.0,0.0,0.0,0.0,0.0,0.0,0.0,0.0,0.0,0.0,0.0,0.0,0.0,0.0,0.0,0.0,0.0,0.0,0.0195,0.1185,0.1813,0.1883,0.1614,0.1143,0.0605,0.0269,-0.0,-0.0202,-0.0202,-0.0,-0.0,-0.0,-0.0,-0.0,-0.0,-0.0,-0.0,-0.0,-0.0,-0.0,-0.027,-0.0742,-0.1012,-0.1012,-0.0809,0.0,0.0,0.0,0.0,0.0,0.1478,0.1747,0.1882,0.195,0.2017,0.2017,0.2217,0.3222,0.424,0.5333,0.6398,0.7203,0.7845,0.8548,0.8809,0.8974,0.9577,0.9843,0.9961,0.9939,0.9999,0.9761,0.909,0.8798,0.8277,0.7456,0.7161,0.6865,0.6412,0.6412,0.0,0.0,0.0,0.0,0.6868,0.7176,0.7484,0.7565,0.7791,0.794,0.8016,0.7872,0.7723,0.7565,0.7096,0.6865,0.6714,0.6412,0.6338,0.6338,0.6338,0.6338,0.6338,0.6338,0.6338,0.6338,0.6338,0.6338,0.6338,0.6338,0.6338,0.6338,0.6338,0.6196,0.6108,0.0,0.0,0.0,0.0,0.0,0.0,0.0,0.0,0.0,0.0,0.0,0.0,0.0,0.0,0.0,0.0,0.0,0.0,0.0,0.0,0.0065,0.0859,0.0935,0.0805,0.0604,-0.0134,-0.0538,-0.0673,-0.0941,-0.0941,-0.0539,-0.0471,-0.0404,-0.0404,-0.0404,-0.0404,-0.0404,-0.0404,-0.0404,-0.0404,-0.0404,-0.0673,-0.1145,-0.128,-0.1348,0.0,0.0,0.0,0.0,0.0,0.074,0.0942,0.1144,0.1278,0.1412,0.1547,0.1884,0.2427,0.3197,0.4102,0.5026,0.5946,0.6631,0.72,0.7795,0.7952,0.8052,0.8515,0.8633,0.8694,0.8595,0.859,0.8444,0.7929,0.7791,0.7435,0.685,0.6707,0.656,0.6338,0.6338,0.6338,0.0,0.0,0.0,0.649,0.6721,0.6876,0.6949,0.7249,0.7403,0.7557,0.7484,0.7488,0.7411,0.7019,0.6714,0.649,0.6338,0.6338,0.6338,0.6338,0.6338,0.6338,0.6338,0.6338,0.6338,0.6338,0.6338,0.6338,0.6338,0.6338,0.6338,0.6338,0.6338,0.6338,0.0,0.0,0.0,0.0,0.0,0.0,0.0,0.0,0.0,0.0,0.0,0.0,0.0,0.0,0.0,0.0,0.0,0.0,0.0,0.0,0.0,-0.0,-0.0264,-0.0402,-0.0402,-0.1138,-0.1675,-0.1944,-0.2213,-0.2082,-0.1681,-0.1344,-0.1143,-0.121,-0.121,-0.121,-0.121,-0.121,-0.121,-0.121,-0.121,-0.121,-0.121,-0.1681,0.0,0.0,0.0,0.0,0.0,0.0,0.0539,0.0607,0.0607,0.0875,0.1277,0.1816,0.2423,0.3048,0.3611,0.4297,0.5086,0.6141,0.6583,0.6887,0.7153,0.7198,0.7106,0.6881,0.6878,0.6874,0.0,0.0,0.6794,0.687,0.6824,0.6777,0.6637,0.6553,0.6475,0.0,0.0,0.0,0.0,0.0,0.0,0.6261,0.0,0.6412,0.6563,0.6563,0.6795,0.7184,0.7019,0.7019,0.7184,0.6795,0.649,0.6338,0.6338,0.6338,0.6338,0.6338,0.6338,0.6338,0.6338,0.6338,0.6338,0.6338,0.6338,0.6338,0.6338,0.6338,0.6338,0.6338,0.6261,0.6261,0.0,0.0,0.0,0.0,0.0,0.0,0.0,0.0,0.0,0.0,0.0,0.0,0.0,0.0,0.0,0.0,0.0,0.0,0.0,0.0,0.0,0.0,0.0,0.0,0.0,0.0,0.0,0.0,0.0,-0.348,-0.2547,-0.2278,-0.2213,-0.2284,-0.2284,-0.2285,-0.2288,-0.2288,-0.2288,-0.2288,0.0,-0.2354,-0.2418,0.0,0.0,0.0,0.0,0.0,0.0,0.0,0.0876,0.1751,0.1751,0.2085,0.2487,0.2757,0.309,0.3444,0.3951,0.4613,0.5297,0.5855,0.6033,0.62,0.6352,0.6222,0.5998,0.5785,0.5654,0.5488,0.5488,0.0,0.0,0.5928,0.6244,0.0,0.6412,0.6412,0.0,0.6022,0.0,0.5944,0.5792,0.5944,0.0,0.0,0.618,0.6338,0.6338,0.6486,0.6641,0.6718,0.6868,0.6865,0.6718,0.649,0.6335,0.6338,0.6338,0.6338,0.6338,0.6338,0.6338,0.6338,0.6338,0.6338,0.6338,0.6338,0.6338,0.6338,0.6338,0.6338,0.6338,0.6338,0.618,0.6018,0.0,0.0,0.0,0.0,0.0,0.0,0.0,0.0,0.0,0.0,0.0,0.0,0.0,0.0,0.0,0.0,0.0,0.0,0.0,0.0,0.0,0.0,0.0,0.0,0.0,0.0,0.0,0.0,0.0,0.0,0.0,-0.3678,-0.3413,-0.3284,-0.3284,-0.3222,-0.3161,0.0,0.0,0.0,0.0,0.0,0.0,0.0,0.0,0.0,0.0,0.0,0.0,0.0,0.0,0.2356,0.249,0.2757,0.3023,0.3228,0.3522,0.3778,0.4372,0.4997,0.5494,0.5907,0.5967,0.5802,0.5778,0.5309,0.4795,0.4574,0.4325,0.4095,0.3936,0.4166,0.455,0.0,0.0,0.0,0.6099,0.6257,0.618,0.0,0.5864,0.0,0.5637,0.5789,0.5864,0.0,0.618,0.6338,0.6338,0.6412,0.6486,0.6486,0.6563,0.6563,0.649,0.6335,0.6338,0.6338,0.6338,0.6338,0.6338,0.6338,0.6338,0.6338,0.0,0.6338,0.6338,0.6338,0.6338,0.6261,0.618,0.6099,0.6099,0.5944,0.5786,0.5631,0.0,0.0,0.0,0.0,0.0,0.0,0.0,0.0,0.0,0.0,0.0,0.0,0.0,0.0,0.0,0.0,0.0,0.0,0.0,0.0,0.0,0.0,0.0,0.0,0.0,0.0,0.0,0.0,0.0,0.0,0.0,0.0,0.0,0.0,0.0,0.0,0.0,0.0,0.0,0.0,0.0,0.0,0.0,0.0,0.0,0.0,0.0,0.0,0.0,0.0,0.1816,0.2491,0.2891,0.3023,0.3092,0.3431,0.3691,0.4129,0.4825,0.524,0.5591,0.6116,0.5974,0.5631,0.5264,0.4565,0.3905,0.3444,0.3108,0.2809,0.2426,0.2737,0.3283,0.391,0.0,0.5386,0.5783,0.6022,0.6103,0.5864,0.5783,0.5709,0.5482,0.5709,0.5783,0.5783,0.6103,0.6338,0.6338,0.6338,0.6338,0.6338,0.6338,0.6338,0.6338,0.6338,0.6338,0.6338,0.6338,0.6338,0.6338,0.6338,0.6338,0.6338,0.6338,0.6338,0.6338,0.6338,0.6338,0.6261,0.6018,0.5864,0.5786,0.5398,0.5243,0.5085,0.0,0.0,0.0,0.0,0.0,0.0,0.0,0.0,0.0,0.0,-0.2914,0.0,0.0,0.0,0.0,0.0,0.0,0.0,0.0,0.0,0.0,0.0,0.0,0.0,0.0,0.0,0.0,0.0,0.0,0.0,0.0,0.0,0.0,0.0,0.0,0.0,0.0,0.0,0.0,0.0,0.0,0.0,0.0,0.0,0.0,0.0,0.0,0.0,0.0,0.0,0.1612,0.2356,0.2824,0.3159,0.3431,0.3498,0.3845,0.4376,0.4873,0.5243,0.5593,0.5956,0.5673,0.5217,0.4711,0.4301,0.0,0.3224,0.284,0.2383,0.1671,0.1752,0.2297,0.3357,0.4229,0.501,0.5556,0.5715,0.5634,0.0,0.5237,0.5004,0.4618,0.5085,0.0,0.0,0.5948,0.6338,0.6338,0.6338,0.6338,0.6338,0.6338,0.6338,0.6338,0.6338,0.6338,0.6338,0.6338,0.6338,0.6338,0.6338,0.6338,0.6338,0.6338,0.0,0.6338,0.6338,0.6338,0.6261,0.6018,0.5786,0.5634,0.5162,0.4771,0.4302,0.0,0.0,0.0,0.0,0.0,0.0,0.0,0.0,0.0,-0.115,-0.2002,-0.285,0.0,0.0,0.0,0.0,0.0,0.0,0.0,0.0,0.0,0.0,0.0,0.0,0.0,0.0,0.0,0.0,0.0,0.0,0.0,0.0,0.0,0.0,0.0,0.0,0.0,0.0,0.0,0.0,0.0,0.0,0.0,0.0,0.0,0.0,0.0,0.0,0.0,0.0,0.0469,0.1277,0.2688,0.3159,0.3228,0.3295,0.3596,0.3929,0.445,0.4816,0.5174,0.5606,0.527,0.4753,0.4423,0.0,0.0,0.2732,0.2124,0.1585,0.1034,0.1275,0.1747,0.261,0.3575,0.4465,0.5012,0.5323,0.5398,0.5162,0.5082,0.4849,0.446,0.4929,0.5321,0.5321,0.5948,0.6338,0.6338,0.6338,0.6338,0.6338,0.6338,0.6338,0.6338,0.6338,0.6338,0.6338,0.6338,0.6338,0.6338,0.6338,0.6338,0.6338,0.6338,0.0,0.6261,0.618,0.6099,0.6022,0.5476,0.5165,0.4932,0.4545,0.4077,0.3606,0.0,0.0,0.0,0.0,0.0,0.0,0.0,0.0092,-0.0377,-0.0618,-0.1203,-0.1954,-0.2865,-0.3508,-0.3913,0.0,0.0,0.0,0.0,0.0,0.0,0.0,0.0,0.0,0.0,0.0,0.0,0.0,0.0,0.0,0.0,0.0,0.0,0.0,0.0,0.0,0.0,0.0,0.0,0.0,0.0,0.0,0.0,0.0,0.0,0.0,0.0,0.0,0.0,0.0,-0.0872,0.0067,0.1946,0.2619,0.2755,0.2891,0.3069,0.333,0.3837,0.4257,0.4687,0.5117,0.4754,0.4255,0.402,0.3408,0.2707,0.2076,0.139,0.077,0.0503,0.0738,0.1204,0.0,0.2855,0.3763,0.4387,0.4776,0.501,0.4849,0.4849,0.0,0.4384,0.4851,0.0,0.5321,0.5948,0.6338,0.6338,0.6338,0.6338,0.6338,0.6338,0.6338,0.6338,0.6338,0.6338,0.6338,0.6338,0.6338,0.6338,0.6338,0.6338,0.6338,0.6338,0.0,0.0,0.5944,0.5786,0.5628,0.4851,0.4384,0.4151,0.3769,0.3379,0.2984,0.0,0.0,0.0,0.0,0.0,0.0,0.0,0.054,0.0183,-0.0426,-0.0766,-0.1138,-0.1647,-0.2581,-0.3352,0.0,0.0,0.0,0.0,0.0,0.0,0.0,0.0,0.0,0.0,0.0,0.0,-0.5986,-0.6274,0.0,0.0,0.0,0.0,0.0,0.0,0.0,0.0,0.0,0.0,0.0,0.0,0.0,0.0,0.0,0.0,0.0,0.0,0.0,0.0,0.0,0.0,-0.1006,-0.0,0.0941,0.1748,0.1883,0.2356,0.2847,0.3199,0.3646,0.4069,0.4274,0.4057,0.3682,0.3187,0.0,0.2426,0.1417,0.0608,0.0068,0.007,0.0072,0.0369,0.1207,0.0,0.2902,0.3763,0.4077,0.4233,0.4462,0.0,0.0,0.4157,0.4696,0.5082,0.5321,0.5948,0.6338,0.6338,0.6338,0.6338,0.6338,0.6338,0.6338,0.6338,0.6338,0.6338,0.6338,0.6338,0.6338,0.6338,0.6338,0.6338,0.6338,0.6338,0.0,0.0,0.5715,0.5398,0.5004,0.438,0.3915,0.3446,0.3137,0.2671,0.2123,0.0,0.0,0.0,0.0,0.0,0.0,0.0,0.1031,0.0676,0.0275,-0.0187,-0.0631,-0.1076,-0.165,-0.2353,0.0,0.0,0.0,0.0,0.0,0.0,0.0,0.0,0.0,0.0,0.0,0.0,-0.5389,-0.5577,0.0,0.0,0.0,0.0,0.0,0.0,-0.5425,0.0,0.0,0.0,0.0,0.0,0.0,0.0,0.0,0.0,0.0,0.0,0.0,-0.4292,0.0,0.0,0.0,-0.1744,-0.094,0.0,0.0,0.1546,0.1819,0.2249,0.2664,0.3001,0.3479,0.3275,0.2925,0.2827,0.2622,0.2154,0.1277,0.0539,-0.0,-0.0,-0.0,0.0144,0.0442,0.0,0.0,0.266,0.3214,0.3524,0.36,0.3761,0.0,0.0,0.0,0.5237,0.5867,0.6183,0.6338,0.6338,0.6338,0.6338,0.6338,0.6338,0.6338,0.6338,0.6338,0.6338,0.6338,0.6338,0.6338,0.6338,0.6338,0.6338,0.6261,0.6099,0.0,0.0,0.5246,0.4851,0.438,0.3839,0.3294,0.2823,0.2671,0.1886,0.0707,0.0,0.0,0.0,0.0,0.0,0.0,0.1969,0.1567,0.1208,0.0895,0.0413,-0.0095,-0.0493,-0.0872,-0.1382,-0.2141,0.0,0.0,0.0,0.0,0.0,0.0,0.0,0.0,0.0,0.0,0.0,-0.4686,-0.4772,-0.4932,0.0,0.0,-0.5093,-0.5093,0.0,0.0,0.0,0.0,0.0,0.0,0.0,0.0,0.0,0.0,0.0,0.0,0.0,0.0,0.0,0.0,0.0,0.0,0.0,0.0,0.0,0.0,0.0672,0.1008,0.1345,0.1747,0.2149,0.2621,0.2621,0.2487,0.2554,0.2354,0.202,0.1279,0.0539,-0.0,-0.0,-0.0,-0.0,0.0,0.0,0.1145,0.1799,0.235,0.2741,0.2978,0.0,0.3686,0.0,0.4696,0.5476,0.6261,0.6338,0.6338,0.6338,0.6338,0.6338,0.6338,0.6338,0.6338,0.6338,0.6338,0.6338,0.6338,0.6338,0.6338,0.6338,0.6338,0.6261,0.618,0.5944,0.0,0.0,0.4698,0.4231,0.3839,0.3217,0.2591,0.2119,0.1886,0.0943,-0.0314,0.0,0.0,0.0,0.0,0.0,0.0,0.0,0.2105,0.1794,0.1254,0.0895,0.0592,0.0332,-0.0246,-0.0615,-0.0638,0.0,0.0,0.0,0.0,0.0,0.0,0.0,0.0,0.0,0.0,0.0,0.0,0.0,-0.4185,-0.4188,-0.4301,-0.4287,-0.4287,0.0,0.0,0.0,0.0,0.0,0.0,0.0,0.0,0.0,0.0,0.0,0.0,0.0,0.0,0.0,0.0,0.0,0.0,0.0,0.0,0.0,0.0,-0.0403,0.047,0.0672,0.1143,0.1614,0.1614,0.2154,0.2627,0.2288,0.2221,0.202,0.1281,0.0539,-0.0,-0.0,-0.0,-0.0,-0.0,-0.0,0.0,0.1175,0.1569,0.196,0.0,0.0,0.3376,0.4001,0.5015,0.5792,0.6261,0.6338,0.0,0.6338,0.6338,0.6338,0.6338,0.6338,0.6338,0.6338,0.6338,0.6338,0.6338,0.6338,0.6338,0.6338,0.6338,0.618,0.586,0.0,0.0,0.0,0.4075,0.3608,0.3221,0.2437,0.1807,0.1178,0.0314,-0.0236,-0.0786,0.0,0.0,0.0,0.0,0.0,0.0,0.0,0.2684,0.2328,0.1876,0.1432,0.1092,0.0805,0.0345,0.0102,0.0159,0.0,0.0,0.0,0.0,0.0,0.0,0.0,0.0,0.0,0.0,0.0,0.0,0.0,0.0,0.0,-0.389,-0.3883,-0.3956,-0.4025,0.0,0.0,0.0,0.0,0.0,0.0,0.0,0.0,0.0,0.0,0.0,0.0,0.0,0.0,0.0,0.0,0.0,0.0,0.0,0.0,0.0,0.0,0.0,0.0067,0.0337,0.0539,0.0807,0.0875,0.0876,0.0941,0.0808,0.0674,0.0674,0.0337,-0.0,-0.0,-0.0,-0.0,-0.0,0.022,0.0,0.0,0.0,0.0,0.2511,0.3295,0.3999,0.0,0.0,0.5792,0.6261,0.6338,0.6338,0.6338,0.6338,0.6338,0.6338,0.6338,0.6338,0.6338,0.6338,0.6338,0.6338,0.6338,0.6338,0.6261,0.6099,0.5867,0.0,0.0,0.0,0.0,0.3608,0.3062,0.2437,0.2438,0.1572,0.0236,-0.1178,-0.165,-0.1729,0.0,0.0,0.0,0.0,0.0,0.0,0.0,0.3129,0.2818,0.237,0.1967,0.1627,0.13,0.0964,0.0752,0.0676,0.0,0.0,0.0,0.0,0.0,0.0,0.0,0.0,0.0,0.0,0.0,0.0,0.0,0.0,0.0,0.0,0.0,-0.3107,-0.3072,0.0,0.0,0.0,0.0,0.0,0.0,0.0,-0.3021,0.0,0.0,0.0,0.0,0.0,0.0,0.0,0.0,0.0,0.0,0.0,0.0,0.0,-0.2417,-0.1412,0.0,-0.0067,-0.0,-0.0067,-0.0269,-0.0404,-0.0202,-0.0269,-0.0337,-0.0135,-0.0067,-0.0,-0.0,-0.0,0.0137,0.0434,0.0729,0.1039,0.0,0.0,0.0,0.2902,0.0,0.0,0.0,0.5476,0.5867,0.6261,0.6338,0.6338,0.6338,0.6338,0.6338,0.6338,0.6338,0.6338,0.6338,0.6338,0.6338,0.6338,0.6338,0.6338,0.6261,0.6022,0.5709,0.0,0.0,0.0,0.0,0.3062,0.2357,0.1572,0.1572,0.0707,-0.0628,-0.1887,-0.2437,-0.2594,0.0,0.0,0.0,0.0,0.0,0.0,0.0,0.0,0.0,0.0,0.2504,0.2192,0.1792,0.1581,0.1355,0.0,0.0,0.0,0.0,0.0,0.0,0.0,0.0,0.0,0.0,0.0,0.0,-0.2079,-0.1444,-0.1114,-0.1117,0.0,0.0,0.0,0.0,0.0,0.0,0.0,0.0,0.0,0.0,0.0,0.0,0.0,0.0,0.0,0.0,0.0,0.0,0.0,0.0,0.0,0.0,0.0,0.0,0.0,0.0,0.0,0.0,-0.0337,-0.0202,-0.0877,-0.1079,-0.1146,-0.1079,-0.1079,0.0,-0.1079,-0.0539,-0.0,-0.0,0.0067,0.0343,0.1157,0.1312,0.1559,0.0,0.2591,0.0,0.0,0.4387,0.0,0.5321,0.5709,0.6018,0.6261,0.6338,0.6338,0.6338,0.6338,0.6338,0.6338,0.6338,0.6338,0.6338,0.6338,0.6338,0.6338,0.6338,0.6261,0.6261,0.6018,0.5547,0.0,0.0,0.0,0.0,0.2437,0.1493,0.0471,-0.0,-0.0707,-0.1414,-0.1964,-0.2672,-0.3376,0.0,0.0,0.0,0.0,0.0,0.0,0.0,0.0,0.0,0.0,0.2907,0.2687,0.2506,0.2181,0.2028,0.0,0.0,0.0,0.0,0.0,0.0,0.0,0.0,0.0,0.0,0.0,0.0,-0.1178,-0.0734,-0.0345,-0.0059,-0.0359,0.0,0.0,0.0,0.0,0.0,0.0,0.0,0.0,0.0,0.0,0.0,0.0,0.0,0.0,-0.1883,-0.2487,0.0,0.0,0.0,0.0,0.0,0.0,0.0,0.0,-0.382,-0.3222,-0.2084,0.0,-0.0404,-0.0607,-0.101,-0.1279,0.0,0.0,0.0,0.0,0.0,0.0,0.0,0.0539,0.1029,0.1301,0.1312,0.1632,0.2652,0.345,0.0,0.4465,0.4854,0.5243,0.5479,0.5786,0.6018,0.6261,0.6338,0.6338,0.6338,0.6338,0.6338,0.6338,0.6338,0.6338,0.6338,0.6338,0.6338,0.6338,0.6338,0.618,0.6018,0.5631,0.5004,0.0,0.0,0.0,0.2358,0.2438,0.1493,-0.0,-0.1336,-0.2043,-0.2276,-0.2827,-0.3374,-0.3992,0.0,0.0,0.0,0.0,0.0,0.0,0.0,0.0,0.0,0.0,0.0,0.0,0.0,0.0,0.0,0.0,0.0,0.0,0.0,0.0,0.0,0.0,0.0,0.0,0.0,0.0,0.0,0.0,0.0,0.0566,0.0,0.0,0.0,0.0,0.0,0.0,0.0,0.0,0.0,0.0,-0.074,0.0,0.0,0.0,0.0,0.0,-0.1344,-0.2083,0.0,-0.3692,-0.4295,-0.4897,0.0,0.0,0.0,0.0,-0.4292,-0.3823,-0.2891,-0.1816,-0.0941,-0.0942,-0.1144,-0.1345,-0.1145,0.0,0.0,0.0,0.0,0.0,0.0,0.0877,0.1235,0.1302,0.1459,0.2077,0.0,0.0,0.4774,0.509,0.5398,0.5631,0.0,0.5944,0.618,0.6261,0.6338,0.6338,0.6338,0.6338,0.6338,0.6338,0.6338,0.6338,0.6338,0.6338,0.6257,0.6099,0.6099,0.5944,0.5631,0.5243,0.454,0.0,0.0,0.0,0.1729,0.1493,0.055,-0.0707,-0.1964,-0.2589,-0.2821,-0.3448,-0.3992,-0.4535,0.0,0.0,0.0,0.0,0.0,0.0,0.0,0.0,0.0,0.0,0.0,0.0,0.0,0.0,0.0,0.0,0.0,0.0,0.0,0.0,0.0,0.0,0.0,0.0,0.0,0.0,0.0,0.0,0.0,0.0,0.0,0.0,0.1639,0.0,0.0,0.0,0.0,0.0,0.0,0.0,0.0134,0.0,0.0,0.0,0.0,0.0,0.0,0.0,0.0,-0.3556,-0.4228,-0.4897,-0.5296,0.0,0.0,0.0,0.0,0.0,-0.3491,-0.2554,-0.168,-0.1479,-0.1412,-0.1345,-0.1144,0.0,0.0,0.0,0.0,0.0,0.0,0.1079,0.0,0.0,0.0,0.0,0.4046,0.4768,0.5318,0.5637,0.5867,0.0,0.5941,0.618,0.6338,0.6338,0.6338,0.6338,0.6338,0.6338,0.6338,0.6338,0.6338,0.6261,0.6257,0.6257,0.6103,0.5864,0.5786,0.555,0.5085,0.4698,0.4073,0.3214,0.0,0.0,0.1257,0.0236,-0.0707,-0.1571,-0.2276,-0.2821,-0.3366,-0.399,-0.4613,-0.516,0.0,0.0,0.0,0.0,0.0,0.0,0.0,0.0,0.0,0.0,0.0,0.0,0.0,0.0,0.0,0.0,0.0,0.0,0.0,0.0,0.0,0.0,0.0,0.0,0.0,0.0,0.0,0.0,0.0,0.0,0.2242,0.2138,0.2004,0.1708,0.0,0.0936,0.0814,0.0188,0.025,0.0753,0.0901,0.0,0.0,0.0,0.0,0.0,0.0,0.0,0.0,-0.3556,-0.4228,-0.4897,-0.5296,0.0,0.0,0.0,0.0,0.0,-0.3959,-0.3422,-0.2952,-0.1814,-0.1547,-0.148,-0.1146,0.0,0.0,0.0,0.0,0.0,0.0,0.1079,0.1167,0.0,0.0,0.3807,0.0,0.0,0.5864,0.6183,0.0,0.6257,0.6257,0.6261,0.6338,0.6338,0.6338,0.6338,0.6338,0.6338,0.6338,0.6338,0.6338,0.618,0.5941,0.5941,0.5867,0.5634,0.5318,0.4846,0.4302,0.3837,0.3214,0.2668,0.0,0.2044,0.1178,-0.0471,-0.1572,-0.2359,-0.2671,-0.3292,-0.399,-0.4462,-0.5085,-0.586,0.0,0.0,0.0,0.0,0.0,0.0,0.0,0.0,0.0,0.0,0.0,0.0,0.0,0.0,0.0,0.0,0.0,0.0,0.0,0.0,0.0,0.0,0.0,0.0,0.0,0.0,0.0,0.0,0.0,0.2517,0.2465,0.2408,0.2281,0.2178,0.0,0.1276,0.0988,0.0556,0.0617,0.0989,0.0,0.0,0.0,0.0,0.0,0.0,0.0,0.0,0.0,0.0,-0.4228,-0.4897,-0.5296,0.0,0.0,0.0,0.0,0.0,-0.4289,-0.3889,-0.3422,-0.2354,-0.1884,-0.1615,-0.1213,-0.0876,0.0,0.0,0.0,0.0,0.0,0.0,0.1508,0.224,0.0,0.4307,0.4932,0.5553,0.6018,0.0,0.0,0.6338,0.6338,0.6338,0.6338,0.6338,0.6338,0.6338,0.6338,0.6338,0.6338,0.6338,0.618,0.5944,0.5712,0.5398,0.5243,0.509,0.4693,0.4307,0.3921,0.3372,0.2904,0.2515,0.0,0.2044,0.1178,-0.055,-0.1806,-0.2592,-0.3139,-0.3841,-0.454,-0.5246,-0.5789,-0.6177,0.0,0.0,0.0,0.0,0.0,0.0,0.0,0.0,0.0,0.0,0.0,0.0,0.0,0.0,0.0,0.0,0.0,0.0,0.0,0.0,0.0,0.0,0.0,0.0,0.0,0.0,0.313,0.2905,0.3019,0.2965,0.2745,0.2745,0.2669,0.0,0.0,0.1651,0.1148,0.0846,0.0846,0.1089,0.0,0.0,0.0,0.0,0.0,0.0,0.0,0.0,0.0,0.0,0.0,0.0,0.0,0.0,0.0,-0.5428,-0.5362,-0.5156,-0.4486,-0.3956,-0.3491,-0.276,0.0,-0.1615,-0.1011,-0.0337,0.0,0.0,0.0,0.0,0.0,0.1497,0.0,0.2918,0.3884,0.4696,0.5243,0.5709,0.6099,0.6261,0.6338,0.6338,0.6338,0.6338,0.6338,0.6338,0.6338,0.6261,0.618,0.618,0.618,0.6106,0.5944,0.5712,0.5404,0.4854,0.4543,0.4465,0.4073,0.3763,0.3379,0.2827,0.2435,0.2202,0.2202,0.165,0.055,-0.0786,-0.1885,-0.2746,-0.3528,-0.4309,-0.5087,-0.5948,-0.6338,-0.6338,0.0,0.0,0.0,0.0,0.0,0.0,0.0,0.0,0.0,0.0,0.0,0.0,0.0,0.0,0.0,0.0,0.0,0.0,0.0,0.0,0.0,0.0,0.0,0.0,0.0,0.3583,0.3527,0.3527,0.3527,0.3527,0.3527,0.3416,0.3193,0.286,0.0,0.2198,0.1696,0.1131,0.1018,0.1247,0.1052,0.0,0.0,0.0,0.0,0.0,0.0,0.0,0.0,0.0,0.0,0.0,0.0,0.0,-0.5428,-0.5428,-0.5292,-0.502,-0.442,-0.3756,-0.3161,-0.276,-0.2221,0.0,-0.0337,0.0202,0.0,0.1345,0.0,0.0,0.0,0.2101,0.2555,0.3226,0.4081,0.4854,0.5243,0.0,0.6261,0.6261,0.6338,0.6338,0.6338,0.6338,0.6338,0.6338,0.6338,0.618,0.5941,0.5941,0.5867,0.5637,0.5637,0.5323,0.4779,0.4382,0.407,0.3841,0.3532,0.2984,0.2201,0.165,0.1415,0.1415,0.1415,0.0471,-0.11,-0.1257,-0.2042,-0.3297,-0.3686,-0.4618,-0.5864,-0.618,-0.6338,-0.6335,0.0,0.0,0.0,0.0,0.0,0.0,0.0,0.0,0.0,0.0,0.0,0.0,0.0,0.0,0.0,0.0,0.0,0.0,0.0,0.0,0.0,0.0,0.0,0.4408,0.4187,0.4135,0.4079,0.3971,0.3916,0.3802,0.3744,0.358,0.0,0.0,0.0,0.2575,0.2188,0.1681,0.1457,0.1404,0.1081,0.08,0.0,0.0,0.0,0.0,0.0,0.0,0.0,0.0,-0.4495,-0.5024,0.0,0.0,-0.5362,0.0,-0.5093,-0.4761,-0.4156,-0.3694,-0.3161,-0.2017,-0.1344,0.0,0.0,0.1145,0.1614,0.1681,0.2017,0.0,0.0,0.0,0.3231,0.3986,0.4699,0.5243,0.5631,0.6025,0.6338,0.6338,0.618,0.6022,0.6022,0.5948,0.5948,0.6022,0.5948,0.5792,0.5712,0.5631,0.5395,0.524,0.501,0.4621,0.4153,0.3763,0.3295,0.2747,0.2592,0.2516,0.2359,0.165,0.1021,0.0471,-0.0079,-0.0943,-0.2044,-0.2042,-0.2669,-0.3692,-0.4465,-0.5321,-0.618,-0.6261,-0.6338,-0.6338,0.0,0.0,0.0,0.0,0.0,0.0,0.0,0.0,0.0,0.0,0.0,0.0,0.0,0.0,0.0,0.0,0.0,0.0,0.0,0.0,0.0,0.0,0.0,0.4519,0.4519,0.4519,0.4408,0.4301,0.419,0.4076,0.391,0.0,0.0,0.0,0.0,0.0,0.2521,0.2071,0.1681,0.1403,0.0954,0.0561,0.0,0.0,0.0,0.0,0.0,0.0,0.0,0.0,-0.4649,0.0,0.0,0.0,0.0,0.0,0.0,-0.4361,-0.3961,-0.336,-0.2554,0.0,0.0,0.0,0.1078,0.1818,0.2221,0.2017,0.2351,0.2852,0.3379,0.0,0.0,0.0,0.5032,0.5398,0.5709,0.5944,0.6025,0.6025,0.5786,0.5705,0.5628,0.5476,0.5476,0.5628,0.5476,0.5323,0.5246,0.5007,0.4771,0.4535,0.4148,0.3759,0.3372,0.3139,0.2671,0.1808,0.1808,0.1965,0.2123,0.1257,0.0393,-0.0471,-0.1335,-0.1965,-0.2359,-0.2671,-0.3295,-0.4235,-0.5165,-0.5789,-0.6338,-0.6338,-0.6338,-0.6335,0.0,0.0,0.0,0.0,0.0,0.0,0.0,0.0,0.0,0.0,0.0,0.0,0.0,0.0,0.0,0.0,0.0,0.0,0.0,0.0,0.0,0.0,0.0,0.4515,0.4519,0.4519,0.4519,0.4519,0.4519,0.4408,0.4193,0.4193,0.0,0.0,0.0,0.0,0.0,0.2184,0.1737,0.1234,0.0673,0.0224,-0.0056,0.0,0.0,0.0,0.0,0.0,0.0,0.0,-0.4841,-0.5156,0.0,0.0,0.0,0.0,-0.4295,-0.3828,-0.3835,-0.2622,-0.1277,0.0,0.0,0.0,0.1614,0.2154,0.249,0.2417,0.2822,0.3417,0.4247,0.422,0.0,0.4889,0.5162,0.5321,0.5321,0.5479,0.5479,0.5321,0.5321,0.524,0.5004,0.5002,0.5002,0.5004,0.5002,0.4771,0.4384,0.4224,0.3912,0.3446,0.321,0.2899,0.2511,0.2511,0.2119,0.1335,0.1335,0.1257,0.1257,0.0393,-0.0471,-0.1335,-0.2123,-0.2359,-0.2201,-0.2986,-0.3997,-0.5082,-0.5628,-0.6099,-0.6338,-0.6338,-0.6338,-0.6338,0.0,0.0,0.0,0.0,0.0,0.0,0.0,0.0,0.0,0.0,0.0,0.0,0.0,0.0,0.0,0.0,0.0,0.0,0.0,0.0,0.0,0.0,0.0,0.0,0.0,0.0,0.4519,0.4519,0.4519,0.4408,0.0,0.0,0.0,0.3796,0.0,0.0,0.2691,0.2408,0.2018,0.1572,0.101,0.0449,-0.0056,0.0,0.0,0.0,0.0,0.0,0.0,0.0,0.0,0.0,0.0,0.0,0.0,-0.4361,-0.3692,-0.2954,-0.2618,-0.1612,0.0,-0.0067,0.0,0.0,0.0,0.2621,0.0,0.0,0.3476,0.3633,0.4195,0.4137,0.0,0.4673,0.4854,0.4854,0.4854,0.4935,0.4854,0.4696,0.4384,0.4231,0.4151,0.3837,0.3834,0.4151,0.3834,0.3679,0.368,0.3606,0.3374,0.3059,0.2823,0.2589,0.2515,0.2515,0.2121,0.1335,0.1335,0.0943,0.0393,-0.055,-0.1021,-0.1335,-0.2123,-0.2594,-0.2747,-0.3843,-0.4701,-0.5476,-0.5786,-0.6099,-0.6338,-0.6338,-0.6338,-0.6338,0.0,0.0,0.0,0.0,0.0,0.0,0.0,0.0,0.0,0.0,0.0,0.0,0.0,0.0,0.0,0.0,0.0,0.0,0.0,0.0,0.0,0.0,0.0,0.0,0.0,0.4519,0.4519,0.0,0.0,0.0,0.0,0.0,0.0,0.3965,0.0,0.3244,0.0,0.2408,0.1962,0.1403,0.1066,0.0393,-0.0393,0.0,0.0,0.0,0.0,0.0,0.0,0.0,0.0,0.0,0.0,0.0,0.0,-0.3959,-0.3086,-0.208,-0.1342,-0.047,0.0,0.1008,0.1816,0.2487,0.2954,0.0,0.0,0.0,0.4044,0.4017,0.4272,0.4158,0.0,0.4292,0.4309,0.4309,0.4073,0.4073,0.4073,0.3997,0.3765,0.353,0.3294,0.3057,0.2978,0.3294,0.3136,0.3057,0.3057,0.2984,0.275,0.2277,0.1962,0.1727,0.1729,0.1965,0.1807,0.1257,0.0943,0.0314,-0.055,-0.1021,-0.1335,-0.1336,-0.2434,-0.3139,-0.3684,-0.4621,-0.5323,-0.5712,-0.5944,-0.618,-0.6338,-0.6338,-0.6338,-0.6338,0.0,0.0,0.0,0.0,0.0,0.0,0.0,0.0,0.0,0.0,0.0,0.0,0.0,0.0,0.0,0.0,0.0,0.0,0.0,0.0,0.0,0.0,0.0,0.0,0.0,0.0,0.0,0.0,0.0,0.0,0.0,0.0,0.4411,0.4138,0.0,0.3239,0.2625,0.2238,0.1628,0.0845,0.0733,-0.0,-0.1022,-0.1112,0.0,0.0,0.0,0.0,0.0,0.0,0.0,0.0,-0.4764,-0.4564,-0.4164,-0.3623,-0.2547,-0.1341,-0.0336,0.0672,0.0,0.2085,0.2488,0.0,0.3894,0.4095,0.4164,0.4506,0.0,0.431,0.4207,0.4168,0.4045,0.3748,0.3684,0.3526,0.3132,0.3054,0.3056,0.3141,0.3142,0.2906,0.2433,0.2354,0.2353,0.2353,0.2669,0.2747,0.2433,0.2358,0.2044,0.1335,0.0786,0.055,0.055,0.0943,0.1178,0.1178,0.0314,-0.055,-0.1335,-0.1335,-0.1336,-0.1571,-0.2899,-0.3995,-0.4779,-0.5401,-0.5712,-0.5941,-0.618,-0.6338,-0.6338,-0.6338,-0.6338,-0.6338,0.0,0.0,0.0,0.0,0.0,0.0,0.0,0.0,0.0,0.0,0.0,0.0,0.0,0.0,0.0,0.0,0.0,0.0,0.0,0.0,0.0,0.0,0.0,0.0,0.0,0.0,0.0,0.0,0.0,0.0,0.0,0.0,0.0,0.4024,0.0,0.3021,0.2294,0.2018,0.1367,0.0466,-0.035,-0.1184,-0.1881,-0.1644,-0.2015,0.0,0.0,0.0,0.0,0.0,0.0,0.0,-0.4694,-0.4361,-0.3961,-0.3426,-0.2284,-0.1075,-0.0403,0.0739,0.0,0.0,0.2889,0.3689,0.4359,0.4561,0.459,0.448,0.4104,0.3779,0.3577,0.3518,0.3431,0.3137,0.2902,0.2744,0.2666,0.2666,0.2511,0.22,0.1886,0.1649,0.1571,0.1256,0.1021,0.1021,0.1099,0.1256,0.1571,0.1571,0.1493,0.1335,0.055,0.0157,0.0157,0.0236,0.0314,0.0,-0.0628,-0.11,-0.1335,-0.1335,-0.1885,-0.2906,-0.3602,-0.4382,-0.5243,-0.5631,-0.6022,-0.6257,-0.6261,-0.6338,-0.6338,-0.6338,-0.6338,-0.6338,0.0,0.0,0.0,0.0,0.0,0.0,0.0,0.0,0.0,0.0,0.0,0.0,0.0,0.0,0.0,0.0,0.0,0.0,0.0,0.0,0.0,0.0,0.0,0.0,0.0,0.0,0.0,0.0,0.0,0.0,0.0,0.0,0.0,0.3965,0.0,0.2965,0.2186,0.1769,0.1102,0.0295,-0.0719,-0.1401,-0.1919,-0.2069,-0.2329,-0.2717,-0.3316,0.0,0.0,0.0,0.0,0.0,0.0,0.0,-0.3894,-0.3491,-0.2417,-0.1276,-0.0403,0.0,0.0,0.2555,0.0,0.3625,0.4159,0.4228,0.4144,0.4097,0.3889,0.3593,0.3235,0.3009,0.2826,0.2356,0.212,0.1884,0.1649,0.1569,0.157,0.1572,0.1415,0.11,0.0707,0.0471,0.0314,0.0314,0.0314,0.0393,0.0629,0.0707,0.0707,0.0707,0.0236,-0.0,-0.0,-0.0393,-0.0628,-0.0628,-0.1493,-0.1964,-0.2042,-0.2042,-0.2668,-0.3684,-0.4304,-0.4927,-0.5631,-0.5941,-0.618,-0.6338,-0.6338,-0.6338,-0.6338,-0.6338,-0.6338,-0.6338,0.0,0.0,0.0,0.0,0.0,0.0,0.0,0.0,0.0,0.0,0.0,0.0,0.0,0.0,0.0,0.0,0.0,0.0,0.0,0.0,0.0,0.0,0.0,0.0,0.0,0.0,0.0,0.0,0.0,0.0,0.0,0.0,0.0,0.3965,0.0,0.2974,0.2151,0.1573,0.0949,0.03,-0.0554,-0.1124,-0.1573,-0.219,-0.2466,-0.2729,-0.3462,-0.3894,-0.4097,-0.4298,0.0,0.0,0.0,0.0,-0.3961,-0.3623,-0.2748,-0.1542,-0.0403,0.0,0.2287,0.2891,0.3092,0.0,0.3761,0.3643,0.3502,0.36,0.3564,0.3377,0.2953,0.2631,0.2199,0.1572,0.1257,0.0943,0.055,0.0471,0.0628,0.1021,0.11,0.0786,0.0079,-0.0,-0.0,-0.0,-0.0,-0.0,-0.0,-0.0,-0.0,-0.0,-0.0,-0.0079,-0.0236,-0.0943,-0.1336,-0.1493,-0.2201,-0.275,-0.3061,-0.3139,-0.3526,-0.4146,-0.4771,-0.5392,-0.5941,-0.618,-0.6338,-0.6338,-0.6338,-0.6338,-0.6338,-0.6338,-0.6338,-0.6338,0.0,0.0,0.0,0.0,0.0,0.0,0.0,0.0,0.0,0.0,0.0,0.0,0.0,0.0,0.0,0.0,0.0,0.0,0.453,0.0,0.0,0.4565,0.4627,0.0,0.0,0.0,0.0,0.0,0.0,0.0,0.0,0.0,0.0,0.3965,0.0,0.0,0.2222,0.1588,0.0973,0.0383,-0.0,-0.0586,-0.1198,-0.1737,-0.2206,-0.2739,-0.3357,-0.3832,-0.43,-0.4495,-0.4628,0.0,0.0,0.0,-0.4164,-0.3825,-0.2883,-0.1677,-0.0671,0.0,0.2017,0.0,0.2753,0.3092,0.0,0.0,0.3295,0.0,0.2982,0.2659,0.24,0.2116,0.1729,0.0864,0.0393,0.0157,0.0079,0.0079,0.0079,0.0157,0.0157,0.0157,-0.0,-0.0,-0.0,-0.0,-0.0,-0.0,-0.0,-0.0,-0.0,-0.0,-0.0,-0.0393,-0.11,-0.1257,-0.165,-0.2359,-0.2671,-0.3139,-0.3684,-0.4073,-0.4229,-0.4384,-0.5007,-0.5473,-0.5941,-0.618,-0.6338,-0.6338,-0.6338,-0.6338,-0.6338,-0.6338,-0.6338,-0.6338,0.0,0.0,0.0,0.0,0.0,0.0,0.0,0.0,0.0,0.0,0.0,0.0,0.0,0.0,0.0,0.5798,0.5577,0.5363,0.5226,0.5198,0.5208,0.5208,0.5045,0.4908,0.4908,0.0,0.0,0.0,0.0,0.0,0.0,0.4519,0.4298,0.0,0.0,0.0,0.0,0.1833,0.1134,0.0388,0.0329,-0.0,-0.0538,-0.1277,-0.1883,-0.2488,-0.3092,-0.3629,-0.4028,-0.4364,-0.4561,-0.4694,-0.4764,0.0,0.0,0.0,-0.3155,-0.208,-0.0403,0.0874,0.1748,0.0,0.2084,0.2353,0.2825,0.2955,0.2893,0.268,0.2358,0.2108,0.2106,0.1807,0.1415,0.1021,0.0471,-0.0,-0.0,-0.0,-0.0,-0.0,-0.0,-0.0,-0.0,-0.0,-0.0,-0.0,-0.0,-0.0,-0.0,-0.0471,-0.0707,-0.0707,-0.0471,-0.055,-0.0943,-0.1178,-0.1886,-0.2986,-0.3297,-0.3684,-0.4309,-0.4696,-0.4929,-0.5087,-0.5476,-0.5786,-0.6103,-0.6261,-0.6338,-0.6338,-0.6338,-0.6338,-0.6338,-0.6338,-0.6338,-0.6338,0.0,0.0,0.0,0.0,0.0,0.0,0.0,0.0,0.0,0.0,0.0,0.0,0.0,0.0,0.0,0.0,0.629,0.6186,0.6053,0.5997,0.5948,0.5948,0.5565,0.534,0.5289,0.0,0.0,0.0,0.0,0.0,0.4519,0.4519,0.4317,0.0,0.3773,0.3125,0.0,0.0,0.0,0.0,0.0602,0.0472,0.0202,-0.0672,-0.1412,-0.2018,-0.2621,-0.3224,-0.3758,-0.4097,-0.4361,-0.4558,-0.4628,-0.4431,0.0,0.0,0.0,0.0,0.0,0.0,0.1346,0.1346,0.1345,0.1482,0.0,0.0,0.2214,0.0,0.1729,0.1692,0.1881,0.1572,0.1335,0.1335,0.055,-0.0,-0.0,-0.0157,-0.0314,-0.0314,-0.0236,-0.0157,-0.0157,-0.0236,-0.0314,-0.0314,-0.0314,-0.0314,-0.0314,-0.0943,-0.1335,-0.1415,-0.1178,-0.1099,-0.1099,-0.1649,-0.2434,-0.353,-0.3843,-0.4309,-0.4935,-0.5321,-0.5553,-0.5792,-0.5864,-0.6022,-0.6338,-0.6338,-0.6338,-0.6338,-0.6338,-0.6338,-0.6338,-0.6338,-0.6338,-0.6338,0.0,0.0,0.0,0.0,0.0,0.0,0.0,0.0,0.0,0.0,0.0,0.0,0.0,0.7727,0.7585,0.7503,0.7396,0.7247,0.7026,0.6829,0.6668,0.6576,0.6313,0.0,0.5773,0.5445,0.0,0.0,0.0,0.0,0.4519,0.4519,0.4373,0.4161,0.364,0.299,0.228,0.0,0.0,0.0,0.0,0.1079,0.0,0.0,-0.0605,0.0,0.0,-0.2616,-0.3553,-0.3756,-0.4023,-0.4287,-0.4353,-0.409,-0.3758,0.0,0.0,0.0,0.0,0.0067,0.0,0.0539,0.0539,0.0541,0.0,0.0,0.1172,0.1128,0.1234,0.1334,0.1335,0.1335,0.1335,0.1335,0.055,-0.0,-0.0,-0.0707,-0.1257,-0.1257,-0.0864,-0.055,-0.055,-0.0943,-0.1257,-0.1257,-0.1257,-0.1257,-0.1257,-0.1257,-0.1493,-0.1887,-0.2199,-0.2433,-0.2433,-0.3221,-0.3767,-0.4068,-0.4465,-0.4935,-0.5559,-0.5786,-0.6022,-0.6261,-0.6018,-0.6022,-0.6338,-0.6338,-0.6338,-0.6338,-0.6338,-0.6338,-0.6338,-0.6338,-0.6338,-0.6338,0.0,0.0,0.0,0.0,0.0,0.0,0.0,0.0,0.0,0.0,0.0,0.0,0.0,0.7875,0.778,0.7678,0.7749,0.7753,0.7703,0.7493,0.7372,0.7319,0.6876,0.6544,0.6376,0.6046,0.0,0.0,0.0,0.4794,0.4519,0.4519,0.4376,0.4173,0.3716,0.3138,0.2411,0.2161,0.0,0.0,0.0,0.0,0.0,0.0,0.0,0.0,0.0,0.0,-0.2351,-0.3021,-0.3357,-0.3625,-0.3625,-0.3424,-0.3157,-0.2487,-0.2084,0.0,0.0,0.0,0.0,0.0202,0.0202,0.0204,0.0209,0.0286,0.0514,0.0979,0.1236,0.1335,0.1335,0.0864,0.0471,0.0471,0.0236,-0.0157,-0.0786,-0.1572,-0.1965,-0.1729,-0.1727,-0.1804,-0.1804,-0.1962,-0.2199,-0.2434,-0.2434,-0.2434,-0.2434,-0.2514,-0.2671,-0.2829,-0.2823,-0.3057,-0.3294,-0.3763,-0.4229,-0.4691,-0.5087,-0.5479,-0.5789,-0.6022,-0.618,-0.6261,-0.618,-0.618,-0.6338,-0.6338,-0.6338,-0.6338,-0.6338,-0.6338,-0.6338,-0.6338,-0.6338,-0.6338,0.0,0.0,0.0,0.0,0.0,0.0,0.0,0.0,0.0,0.0,0.0,0.0,0.0,0.0,0.8174,0.8062,0.8195,0.8255,0.8255,0.8103,0.799,0.7937,0.7574,0.7198,0.6977,0.6593,0.0,0.0,0.0,0.0,0.0,0.457,0.4448,0.4237,0.3755,0.3153,0.0,0.0,0.0,0.0472,0.0,0.0,0.1079,0.0,0.0,0.0,0.0,0.0,0.0,-0.215,-0.2688,-0.3027,-0.3027,-0.2891,-0.2622,0.0,0.0,0.0,-0.0944,0.0,0.0,0.0,-0.0337,-0.034,-0.0212,-0.0072,0.0147,0.0609,0.0777,0.0864,0.0864,0.0393,-0.0,-0.0,-0.0,-0.0314,-0.1178,-0.1965,-0.2438,-0.2121,-0.2434,-0.2588,-0.2666,-0.2823,-0.3059,-0.3295,-0.3452,0.0,-0.3528,-0.3608,-0.3686,-0.3767,-0.3682,-0.3839,-0.4309,-0.446,-0.4771,-0.5315,-0.5553,-0.5789,-0.6022,-0.618,-0.6338,-0.6338,-0.6338,-0.6338,-0.6338,-0.6338,-0.6338,-0.6338,-0.6338,-0.6338,-0.6338,-0.6338,-0.6338,-0.6338,0.0,0.0,0.0,0.0,0.0,0.0,0.0,0.0,0.0,0.0,0.0,0.0,0.0,0.0,0.0,0.8804,0.8804,0.8804,0.8804,0.8685,0.8521,0.8421,0.8268,0.8002,0.7521,0.7095,0.0,0.0,0.0,0.0,0.0,0.0,0.4591,0.4369,0.3804,0.3149,0.2452,0.0,0.1144,0.0472,0.0,0.0742,0.1079,0.0,0.0,0.0,0.0403,-0.0269,0.0,-0.1277,0.0,0.0,0.0,0.0,0.0,0.0,0.0,0.0,0.0,0.0,0.0,0.0,0.0,0.0,-0.072,0.0,-0.0,-0.0,-0.0,-0.0,-0.0,-0.0,-0.0,-0.0,-0.0,-0.0314,-0.1178,-0.1965,-0.2515,-0.2511,-0.2668,-0.2902,-0.3132,-0.3526,-0.3841,-0.3841,-0.4229,-0.4384,-0.4384,-0.4462,-0.454,-0.4701,-0.4701,-0.4932,-0.5321,-0.5321,-0.555,-0.5941,-0.5941,-0.6022,-0.6338,-0.6338,-0.6338,-0.6338,-0.6338,-0.6338,-0.6338,-0.6338,-0.6338,-0.6338,-0.6338,-0.6338,-0.6338,-0.6338,-0.6338,-0.6338,0.0,0.0,0.0,0.0,0.0,0.0,0.0,0.0,0.0,0.0,0.0,0.0,0.0,0.0,0.8804,0.8804,0.8804,0.8804,0.8804,0.8685,0.8573,0.8521,0.8421,0.8162,0.7788,0.7408,0.0,0.0,0.0,0.0,0.0,0.0,0.0,0.0,0.3969,0.3318,0.2589,0.1876,0.0,0.0472,0.0472,0.0742,0.0,0.0,0.0,0.0,0.0,0.0472,-0.0067,0.0,-0.0941,-0.1143,0.0,0.0,0.0,0.0,0.0,0.0,-0.0067,0.0,0.0,0.0,0.0,0.0,0.0,0.0,-0.074,-0.0156,-0.0,-0.0,-0.0,-0.0,-0.0,-0.0,-0.0,-0.0314,-0.1178,-0.1963,-0.2589,-0.2899,-0.345,-0.3843,-0.4229,-0.4538,-0.4693,0.0,-0.4771,-0.4849,-0.4849,-0.5007,-0.5165,-0.5326,-0.5326,-0.5479,-0.5709,-0.5709,-0.5864,-0.618,-0.618,-0.6257,-0.6338,-0.6338,-0.6338,-0.6338,-0.6338,-0.6338,-0.6338,-0.6338,-0.6338,-0.6338,-0.6338,-0.6338,-0.6338,-0.6338,-0.6338,-0.6338,0.0,0.0,0.0,0.0,0.0,0.0,0.0,0.0,0.0,0.0,0.0,0.0,0.0,0.0,0.0,0.8804,0.8804,0.8804,0.8804,0.8745,0.8685,0.8685,0.858,0.8368,0.8109,0.7563,0.7015,0.0,0.0,0.0,0.0,0.0,0.0,0.0,0.0,0.0,0.0,0.0,0.0,0.0,0.0337,0.0,0.0,0.1078,0.101,0.0,0.0,0.0,0.0202,-0.0202,-0.0269,0.0,0.0,0.0,0.0,0.0,0.0,0.0,0.0,0.0,0.0,0.0,0.0,0.0,-0.1517,-0.147,-0.1272,0.0,-0.055,-0.055,-0.055,-0.055,-0.0471,-0.0314,-0.0236,-0.0471,-0.1178,-0.2199,-0.2981,-0.3368,-0.3995,-0.4621,-0.5012,-0.524,-0.5392,-0.5392,-0.5473,-0.5553,-0.5553,-0.5634,-0.5789,-0.587,-0.587,-0.5948,-0.6099,-0.6099,-0.618,-0.6338,-0.6338,-0.6338,-0.6338,-0.6338,-0.6338,-0.6338,-0.6338,-0.6338,-0.6338,-0.6338,-0.6338,-0.6338,-0.6338,-0.6338,-0.6338,-0.6338,-0.6338,-0.6338,0.0,0.0,0.0,0.0,0.0,0.0,0.0,0.0,0.0,0.0,0.0,0.0,0.0,0.0,0.0,0.0,0.8804,0.8804,0.8804,0.8804,0.0,0.8804,0.8685,0.8521,0.8374,0.7699,0.7112,0.6623,0.0,0.0,0.0,0.0,0.0,0.0,0.0,0.0,0.0,0.0,0.0,0.0472,0.0135,0.0404,0.0,0.0,0.0674,0.0337,0.027,0.0135,-0.0134,-0.0135,-0.0135,0.0,0.0,0.0,0.0,0.0,-0.0067,0.0,0.0,0.0,0.0,0.0,0.0,0.0,-0.211,-0.1861,-0.1675,0.0,-0.1492,-0.1492,-0.1492,-0.1492,-0.1335,-0.0864,-0.0785,-0.0942,-0.1335,-0.2514,-0.3454,-0.3841,-0.454,-0.524,-0.5637,-0.5867,-0.5941,-0.5941,-0.618,-0.6338,-0.6338,-0.6338,-0.6338,-0.6338,-0.6338,-0.6338,-0.6338,-0.6338,-0.6338,-0.6338,-0.6338,-0.6338,-0.6338,-0.6338,-0.6338,-0.6338,-0.6338,-0.6338,-0.6338,-0.6338,-0.6338,-0.6338,-0.6338,-0.6338,-0.6338,-0.6338,-0.6338,-0.6338,0.974,0.0,0.0,0.0,0.0,0.0,0.0,0.0,0.0,0.0,0.0,0.0,0.0,0.0,0.0,0.0,0.8804,0.8804,0.8804,0.8804,0.8804,0.8804,0.8685,0.8474,0.8221,0.777,0.7253,0.6685,0.0,0.0,0.0,0.0,0.0,0.0,0.0,0.0,0.0,0.0,0.0,0.0472,0.0135,0.0,0.0202,0.0202,-0.0,-0.0269,-0.0336,-0.0538,-0.0941,-0.1211,-0.1076,-0.0807,0.0,0.0,0.0,-0.0,0.0,0.0,0.0,0.0,0.0,0.0,0.0,0.0,-0.2453,-0.2336,-0.2284,0.0,-0.2512,-0.2747,-0.2747,-0.2747,-0.2591,-0.2198,-0.2118,-0.2119,-0.1964,-0.2749,-0.3532,-0.4229,-0.4851,-0.5476,-0.6103,-0.6183,-0.6257,-0.6257,-0.6261,-0.6338,-0.6338,-0.6338,-0.6338,-0.6338,-0.6338,-0.6338,-0.6338,-0.6338,-0.6338,-0.6338,-0.6338,-0.6338,-0.6338,-0.6338,-0.6338,-0.6338,-0.6338,-0.6338,-0.6338,-0.6338,-0.6338,-0.6338,-0.6338,-0.6338,-0.6338,-0.6338,-0.6338,-0.6338,0.9895,0.0,0.0,0.0,0.0,0.0,0.0,0.0,0.0,0.0,0.0,0.0,0.0,0.0,0.0,0.0,0.0,0.0,0.0,0.0,0.9079,0.9079,0.8955,0.8781,0.8621,0.8017,0.7444,0.6915,0.0,0.0,0.0,0.0,0.0,0.0,0.0,0.0,0.0,0.0,0.1345,0.0539,0.0135,0.0,-0.0539,-0.0539,-0.0876,-0.1277,-0.1344,-0.1613,-0.1947,-0.2083,-0.1747,0.0,0.0,-0.0404,-0.027,0.0,-0.0756,-0.1241,0.0,0.0,0.0,-0.2493,0.0,0.0,0.0,-0.3509,-0.3552,-0.3439,-0.3604,-0.3763,-0.3763,-0.3763,-0.3606,-0.3214,-0.3137,-0.3059,-0.2747,-0.3059,-0.3684,-0.4465,-0.5087,-0.5712,-0.6261,-0.6338,-0.6338,-0.6338,-0.6338,-0.6338,-0.6338,-0.6338,-0.6338,-0.6338,-0.6338,-0.6338,-0.6338,-0.6338,-0.6338,-0.6338,-0.6338,-0.6338,-0.6338,-0.6338,-0.6338,-0.6338,-0.6338,-0.6338,-0.6338,-0.6338,-0.6338,-0.6338,-0.6338,-0.6338,-0.6338,-0.6338,-0.618,-0.6099,1.0113,0.0,0.0,0.0,0.0,0.0,0.0,0.0,0.0,0.0,0.0,0.0,0.0,0.0,0.0,0.0,0.0,0.0,0.0,0.0,0.0,0.0,0.9201,0.9084,0.8915,0.8196,0.7566,0.7024,0.0,0.0,0.0,0.0,0.0,0.0,0.0,0.0,0.0,0.0,0.0,0.074,0.0,-0.027,-0.1012,-0.1012,-0.1482,-0.2221,-0.2421,-0.2621,-0.2889,-0.2904,-0.237,-0.1627,-0.1296,-0.0889,0.0,0.0,0.0,0.0,0.0,0.0,0.0,0.0,0.0,-0.4162,0.0,0.0,0.0,0.0,0.0,0.0,-0.4538,0.0,0.0,0.0,0.0,0.0,0.0,-0.3834,0.0,-0.4776,-0.5401,-0.5948,-0.6416,-0.6412,-0.6412,-0.6412,-0.6412,-0.6338,-0.6338,-0.6338,-0.6338,-0.6338,-0.6338,-0.6338,-0.6338,-0.6338,-0.6338,-0.6338,-0.6338,-0.6338,-0.6338,-0.6338,-0.6338,-0.6338,-0.6338,-0.6338,-0.6338,-0.6338,-0.6338,-0.6338,-0.6338,-0.6338,-0.6338,-0.6338,-0.6099,-0.5864,1.0344,1.0292,0.0,0.0,0.0,0.0,0.0,0.0,0.0,0.0,0.0,0.0,0.0,0.0,0.0,0.0,0.0,0.0,0.861,0.0,0.0,0.0,0.9097,0.8857,0.8569,0.8238,0.7665,0.6853,0.0,0.0,0.0,0.0,0.0,0.0,0.3625,0.0,0.0,0.0,0.148,0.0,0.101,0.0337,0.0,-0.0539,-0.128,-0.2287,-0.3088,-0.3489,-0.3636,0.0,-0.3132,-0.2519,0.0,-0.1228,-0.1012,-0.1088,0.0,0.0,0.0,0.0,0.0,0.0,-0.3847,0.0,0.0,0.0,-0.5162,-0.5004,0.0,0.0,0.0,0.0,0.0,0.0,0.0,0.0,-0.5074,-0.5541,-0.5777,-0.5547,-0.6093,-0.6641,-0.703,-0.6945,-0.6865,-0.6865,-0.6637,-0.6563,-0.6563,-0.6412,-0.6338,-0.6338,-0.6338,-0.6338,-0.6338,-0.6338,-0.6338,-0.6338,-0.6338,-0.6338,-0.6338,-0.6338,-0.6338,-0.6338,-0.6338,-0.6338,-0.6338,-0.6338,-0.6338,-0.6338,-0.6338,-0.6338,-0.6338,-0.6338,-0.6099,-0.5864,1.0531,1.0558,0.0,0.0,0.0,0.0,0.0,0.0,0.0,0.0,0.0,0.0,0.0,0.0,0.0,0.0,0.0,0.8386,0.0,0.0,0.0,0.0,0.0,0.0,0.0,0.8496,0.7904,0.0,0.6641,0.0,0.0,0.0,0.0,0.0,0.3892,0.0,0.282,0.0,0.1681,0.0,0.0,0.0,0.0,-0.0337,-0.1346,-0.2621,-0.3489,-0.3894,-0.4046,0.0,-0.3567,0.0,0.0,0.0,0.0,0.0,0.0,0.0,0.0,0.0,0.0,0.0,0.0,0.0,-0.5157,0.0,-0.5867,0.0,0.0,0.0,0.0,0.0,0.0,0.0,-0.6089,0.0,0.0,0.0,-0.7383,0.0,0.0,0.0,-0.7561,-0.7403,-0.7176,-0.7099,-0.6868,-0.6714,-0.6641,-0.6412,-0.6338,-0.6338,-0.6338,-0.6338,-0.6338,-0.6338,-0.6338,-0.6338,-0.6338,-0.6338,-0.6338,-0.6338,-0.6338,-0.6338,-0.6338,-0.6338,-0.6338,-0.6338,-0.6338,-0.6338,-0.6338,-0.6338,-0.6338,-0.6338,-0.6025,-0.5712,1.0792,0.0,0.0,0.0,0.0,0.0,0.0,0.0,0.0,0.0,0.0,0.0,0.9919,0.953,0.0,0.0,0.8172,0.7982,0.0,0.0,0.8571,0.0,0.0,0.0,0.0,0.0,0.7987,0.0,0.0,0.0,0.0,0.0,0.0,0.0,0.0,0.3491,0.2889,0.0,0.1817,0.1547,0.1213,0.0742,0.0135,-0.0539,-0.1614,-0.282,-0.3692,-0.4182,-0.4433,-0.4418,-0.4048,0.0,-0.3169,0.0,0.0,0.0,0.0,0.0,-0.2577,0.0,0.0,0.0,0.0,0.0,0.0,0.0,0.0,0.0,0.0,0.0,0.0,0.0,0.0,0.0,0.0,-0.7544,0.0,-0.8604,0.0,0.0,0.0,0.0,0.0,-0.794,-0.7714,-0.7488,-0.7176,-0.6868,-0.6714,-0.6412,-0.6338,-0.6338,-0.6338,-0.6338,-0.6338,-0.6338,-0.6338,-0.6338,-0.6338,-0.6338,-0.6338,-0.6338,-0.6338,-0.6338,-0.6338,-0.6338,-0.6338,-0.6338,-0.6338,-0.6338,-0.6338,-0.6338,-0.6338,-0.6338,-0.6025,-0.5559,1.1274,1.1024,0.0,0.0,0.0,0.0,0.0,0.0,0.0,0.0,0.0,0.0,0.0,0.0,0.0,0.0,0.0,0.7661,0.7526,0.0,0.7857,0.0,0.0,0.8495,0.0,0.0,0.0,0.0,0.0,0.0,0.0,0.0,0.0,0.0,0.0,0.3422,0.2686,0.2354,0.1884,0.1412,0.1213,0.0472,-0.0539,0.0,-0.2016,-0.282,-0.3692,0.0,0.0,-0.4825,-0.4724,0.0,0.0,0.0,0.0,0.0,0.0,0.0,0.0,0.0,0.0,-0.3999,0.0,0.0,0.0,0.0,-0.6338,0.0,0.0,0.0,0.0,0.0,0.0,0.0,0.0,0.0,0.0,0.0,0.0,0.0,0.0,0.0,0.0,-0.8775,-0.8475,-0.8102,-0.7488,-0.7103,-0.6865,-0.6486,-0.6338,-0.6338,-0.6338,-0.6338,-0.6338,-0.6338,-0.6338,-0.6338,-0.6338,-0.6338,-0.6338,-0.6338,-0.6338,-0.6338,-0.6338,-0.6338,-0.6338,-0.6338,-0.6338,-0.6338,-0.6338,-0.6338,-0.6338,-0.6338,-0.6025,-0.5559,0.0,0.0,0.0,0.0,0.0,0.0,0.0,1.0238,0.0,0.0,0.0,0.0,0.0,0.8501,0.7982,0.0,0.0,0.6811,0.6671,0.6671,0.0,0.0,0.0,0.7451,0.0,0.0,0.0,0.0,0.0,0.0,0.0,0.0,0.0,0.0,0.0,0.382,0.0,0.0,0.0,0.0,0.0,0.0472,-0.0607,0.0,-0.1949,-0.2624,-0.3494,-0.4161,0.0,-0.4921,-0.4944,-0.4847,-0.466,-0.4538,-0.4457,-0.4304,-0.4148,0.0,0.0,0.0,-0.3999,-0.4231,0.0,0.0,0.0,0.0,0.0,0.0,0.0,0.0,0.0,0.0,0.0,0.0,0.0,0.0,0.0,0.0,0.0,0.0,0.0,0.0,0.0,0.0,0.0,-0.8327,-0.7714,-0.7253,-0.6942,-0.6486,-0.6338,-0.6338,-0.6338,-0.6338,-0.6338,-0.6338,-0.6338,-0.6338,-0.6338,-0.6338,-0.6338,-0.6338,-0.6338,-0.6338,-0.6338,-0.6338,-0.6338,-0.6338,-0.618,-0.6022,-0.6022,-0.5867,-0.5712,-0.6106,-0.6025,-0.5482,1.1247,0.0,0.0,0.0,0.0,0.0,0.0,0.0,0.0,0.0,0.9005,0.0,0.8166,0.0,0.733,0.0,0.6412,0.6152,0.6013,0.5815,0.0,0.5939,0.6133,0.0,0.0,0.0,0.0,0.0,0.0,0.5818,0.0,0.0,0.0,0.0,0.0,0.3954,0.3355,0.2825,0.2087,0.0,0.0,0.0472,0.0,0.0,-0.1814,-0.2427,0.0,-0.3939,-0.4564,-0.4981,-0.5159,-0.5287,-0.5214,-0.524,-0.5162,-0.5162,-0.4929,-0.4696,-0.4616,-0.454,0.0,-0.4696,-0.5087,0.0,-0.5634,0.0,0.0,0.0,0.0,0.0,0.0,0.0,0.0,0.0,0.0,0.0,0.0,-1.1484,0.0,0.0,0.0,0.0,0.0,-0.9771,-0.9094,-0.8479,-0.7791,-0.7253,0.0,0.0,-0.6338,-0.6338,-0.6338,-0.6338,-0.6338,-0.6338,-0.6338,-0.6338,-0.6338,-0.6338,-0.6338,-0.6338,-0.6338,-0.6338,-0.6338,-0.6338,-0.6261,-0.618,-0.6022,-0.5789,-0.5628,-0.5395,-0.5165,-0.5712,-0.5556,-0.4937,1.1059,0.0,0.0,0.0,1.0933,0.0,0.0,0.0,0.9326,0.0,0.8166,0.7582,0.7456,0.7003,0.6609,0.635,0.609,0.5756,0.555,0.5219,0.0,0.0,0.5011,0.5074,0.5206,0.0,0.0,0.0,0.0,0.0,0.0,0.0,0.0,0.0,0.4553,0.0,0.3226,0.2827,0.1817,0.0538,0.0876,0.0404,-0.0539,-0.0942,-0.1548,-0.2166,-0.2851,-0.3635,-0.4458,-0.4944,-0.5296,-0.5637,-0.5637,-0.5637,-0.5559,-0.5401,-0.5321,-0.5321,-0.5082,-0.5004,-0.5082,-0.5243,0.0,0.0,0.0,0.0,-0.6338,0.0,0.0,0.0,0.0,0.0,0.0,0.0,0.0,0.0,0.0,0.0,-1.2224,0.0,-1.1855,-1.1484,-1.0812,-1.0067,-0.9241,-0.8479,-0.7638,-0.7026,0.0,0.0,-0.6338,-0.6338,-0.6338,-0.6338,-0.6338,-0.6338,-0.6338,-0.6338,-0.6338,-0.6338,-0.6338,-0.6338,-0.6338,-0.6338,-0.6338,-0.6338,-0.6261,-0.6018,-0.5786,-0.5559,-0.5162,-0.4851,-0.4698,-0.5087,-0.4698,-0.4001,1.087,1.0807,1.0681,0.0,1.0561,1.0498,0.0,0.0,0.0,0.0,0.7521,0.6937,0.6605,0.6408,0.621,0.5815,0.5624,0.0,0.0,0.0,0.0,0.3887,0.3959,0.3889,0.3747,0.4146,0.4411,0.4619,0.0,0.0,0.5156,0.0,0.0,0.0,0.0,0.0,0.3558,0.2686,0.1479,0.0135,0.027,0.0135,-0.0202,0.0,-0.1023,-0.1044,-0.2142,-0.3149,-0.4131,-0.4765,-0.5366,-0.5867,-0.6025,-0.6106,-0.6106,-0.6025,-0.5867,-0.5709,-0.5705,-0.5553,-0.5479,-0.5479,-0.5712,-0.5864,0.0,0.0,0.0,0.0,0.0,0.0,0.0,0.0,0.0,0.0,0.0,0.0,0.0,0.0,0.0,-1.2003,0.0,0.0,-1.0663,-0.9992,-0.9241,-0.8479,-0.7791,-0.733,-0.7026,0.0,0.0,-0.649,-0.6412,-0.6338,-0.6338,-0.6338,-0.6338,-0.6338,-0.6338,-0.6338,-0.6338,-0.6338,-0.6338,-0.6338,-0.6338,-0.6338,-0.6261,-0.6018,-0.5628,-0.5082,-0.4693,-0.4153,-0.3688,-0.4075,-0.3917,-0.3526,1.0681,0.0,0.0,1.0174,0.0,0.0,0.9606,0.9017,0.0,0.7587,0.6937,0.0,0.6013,0.5885,0.5752,0.5418,0.5156,0.0,0.4361,0.0,0.0,0.309,0.3025,0.2757,0.2281,0.275,0.0,0.3823,0.0,0.0,0.4888,0.0,0.0,0.0,0.0,0.4292,0.3692,0.2484,0.121,-0.0,-0.0,-0.0,0.0,-0.0478,-0.0558,-0.0572,-0.132,-0.239,-0.3567,-0.4346,-0.5082,-0.5709,-0.6022,-0.618,-0.6338,-0.6338,-0.618,-0.6099,-0.6099,-0.6025,-0.5873,-0.5873,-0.6025,-0.6099,-0.6099,-0.618,-0.6338,0.0,0.0,0.0,0.0,0.0,0.0,0.0,0.0,0.0,0.0,0.0,0.0,0.0,-1.1632,0.0,-1.0443,-0.9992,-0.9392,-0.8627,-0.8021,-0.7565,0.0,0.0,0.0,-0.6641,-0.6412,-0.6338,-0.6338,-0.6338,-0.6338,-0.6338,-0.6338,-0.6338,-0.6338,-0.6338,-0.6338,-0.6261,-0.618,-0.6099,-0.6099,-0.5553,-0.5085,-0.4535,-0.3837,-0.3136,-0.2434,-0.2668,-0.2823,-0.2901,1.0561,0.0,0.0,0.0,0.0,0.0,0.0,0.8495,0.0,0.7199,0.0,0.5947,0.555,0.5422,0.5226,0.502,0.0,0.4292,0.3758,0.3563,0.3163,0.2424,0.2154,0.1749,0.1008,0.148,0.2151,0.0,0.0,0.0,0.0,0.0,0.0,0.0,0.0,0.0,0.0,0.215,0.101,0.0067,-0.0,-0.0,-0.0,-0.0,-0.0214,-0.0439,-0.0525,-0.1516,-0.2821,-0.3732,-0.4616,-0.5321,-0.5783,-0.6099,-0.6338,-0.6338,-0.6338,-0.6338,-0.6338,-0.6338,-0.6338,-0.6338,-0.6338,-0.6338,-0.6338,-0.6338,-0.6338,-0.6338,-0.6338,-0.6338,0.0,0.0,0.0,0.0,0.0,0.0,0.0,0.0,0.0,0.0,0.0,0.0,-1.0368,-1.0067,-0.9539,-0.8775,-0.8327,0.0,0.0,0.0,0.0,-0.6641,-0.6412,-0.6338,-0.6338,0.0,-0.6338,-0.6338,-0.6338,-0.6338,-0.6261,-0.6261,-0.6261,-0.6257,-0.5941,-0.5783,-0.5705,-0.4932,-0.4307,-0.3756,-0.2743,-0.1884,-0.1335,-0.1335,-0.1727,-0.2276,1.0371,0.0,0.0,0.0,0.0,0.8425,0.7912,0.7591,0.7199,0.6613,0.5954,0.5425,0.5219,0.4891,0.4758,0.4691,0.4225,0.0,0.0,0.0,0.0,0.1951,0.1549,0.1078,0.0606,0.1009,0.1412,0.0,0.0,0.0,0.0,0.0,0.0,0.0,0.0,0.0,0.2618,0.1882,0.0,0.0404,0.0135,-0.0,-0.0,-0.0,-0.0071,-0.0146,-0.045,-0.115,-0.2104,-0.3443,-0.4384,-0.516,-0.5705,-0.6099,-0.6338,-0.6338,-0.6338,-0.6338,-0.6338,-0.6338,-0.6338,-0.6338,-0.6338,-0.6338,-0.6338,-0.6338,-0.6338,-0.6338,-0.6338,-0.6338,-0.6338,0.0,0.0,0.0,0.0,0.0,0.0,0.0,0.0,0.0,0.0,-1.1037,0.0,0.0,-0.9539,-0.8775,-0.8475,0.0,0.0,0.0,0.0,0.0,-0.649,0.0,0.0,0.0,-0.6338,-0.6338,-0.6338,-0.6338,-0.6261,-0.6099,-0.5941,-0.5941,-0.5553,-0.5318,-0.5082,-0.446,-0.368,-0.2666,-0.1805,-0.1414,-0.1335,-0.1335,-0.1414,-0.1414,0.9786,0.0,0.0,0.0,0.0,0.0,0.0,0.6489,0.6112,0.6028,0.5491,0.496,0.4688,0.4425,0.4161,0.3892,0.3558,0.3157,0.269,0.2423,0.2088,0.1482,0.0876,0.0472,0.027,0.0404,0.0739,0.1277,0.0,0.0,0.0,0.0,0.0,0.0,0.0,0.2956,0.0,0.0,0.0,0.0742,0.0202,-0.0,-0.0,-0.0,-0.0,-0.0073,-0.0457,-0.101,-0.1648,-0.2744,-0.3917,-0.4929,-0.5395,-0.5944,-0.6338,-0.6338,-0.6338,-0.6338,-0.6338,-0.6338,-0.6338,-0.6338,-0.6338,-0.6338,-0.6338,-0.6338,-0.6338,-0.6338,-0.6338,-0.6338,-0.6338,-0.649,0.0,0.0,0.0,0.0,0.0,0.0,-0.9614,0.0,0.0,0.0,0.0,0.0,0.0,0.0,0.0,0.0,0.0,0.0,0.0,0.0,0.0,0.0,0.0,0.0,0.0,-0.6338,-0.6338,-0.6338,-0.6261,-0.6022,-0.5864,-0.5712,-0.5085,-0.4693,-0.4457,-0.36,-0.2979,-0.2435,-0.165,-0.1335,-0.1257,-0.0786,-0.0628,-0.0628,0.0,0.8823,0.0,0.0,0.732,0.0,0.6321,0.5549,0.5086,0.5353,0.4892,0.4436,0.4159,0.3891,0.3623,0.3147,0.2942,0.2601,0.2124,0.2192,0.1845,0.1156,0.0408,-0.0,-0.0,-0.0,0.0269,0.0,0.0,0.0,0.0,0.0,0.0,0.0,0.0,0.0,0.0,0.0,0.1482,0.1012,0.027,-0.0,-0.0,-0.0,-0.0,-0.0074,-0.0541,-0.1021,-0.1571,-0.2354,-0.3526,-0.4698,-0.5243,-0.5789,-0.6338,-0.6338,-0.6338,-0.6338,-0.6338,-0.6338,-0.6338,-0.6338,-0.6338,-0.6338,-0.6338,-0.6338,-0.6338,-0.6338,-0.6338,-0.6338,-0.6338,-0.6412,0.0,0.0,0.0,0.0,0.0,0.0,0.0,0.0,0.0,0.0,-0.9539,0.0,0.0,0.0,0.0,0.0,-0.7859,0.0,0.0,0.0,0.0,-0.6022,-0.6261,0.0,-0.6338,-0.6261,-0.6257,-0.618,-0.618,-0.5786,-0.5553,-0.5323,-0.4621,-0.4073,-0.368,-0.2666,-0.2277,-0.2202,-0.1572,-0.1178,-0.0943,-0.0236,-0.0,-0.0,0.0,0.0,0.0,0.0,0.0,0.0,0.581,0.4908,0.4372,0.4677,0.4194,0.3754,0.3536,0.3179,0.2964,0.2964,0.2533,0.2245,0.2174,0.2174,0.1864,0.1118,0.042,-0.0,-0.0,-0.0,0.0067,0.0,0.0,0.0806,0.0,0.0,0.0,0.0,0.0,0.0,0.0,0.2154,0.1752,0.1012,0.027,-0.0,-0.0,-0.0,-0.0,-0.0076,-0.0934,-0.1493,-0.1964,-0.2906,-0.3765,-0.454,-0.5323,-0.587,-0.6338,-0.6338,-0.6338,-0.6338,-0.6338,-0.6338,-0.6338,-0.6338,-0.6338,-0.6338,-0.6338,-0.6338,-0.6338,-0.6338,-0.6338,-0.6338,-0.6338,-0.6338,-0.6412,0.0,0.0,0.0,0.0,0.0,-0.8012,-0.8479,0.0,0.0,-0.9301,-0.915,-0.9079,0.0,-0.8851,0.0,0.0,0.0,0.0,-0.6641,0.0,-0.6022,-0.6261,-0.6338,-0.6338,-0.6261,-0.6022,-0.5941,-0.5941,-0.5165,-0.4698,-0.4462,-0.4081,-0.3379,-0.2594,-0.1729,-0.1414,-0.1415,-0.1335,-0.0786,-0.0079,-0.0,-0.0,-0.0079,0.0,0.0,0.0,0.0,0.0,0.0,0.0,0.4123,0.371,0.3524,0.3285,0.3129,0.2911,0.2622,0.2332,0.1895,0.1676,0.1531,0.1531,0.1531,0.1233,0.0503,0.0144,-0.0,-0.0,-0.0,-0.0,0.0,0.0,0.0,0.0,0.0,0.0,0.0,0.0,0.1548,0.155,0.155,0.1146,0.0405,0.0137,-0.0,-0.0,-0.0,-0.0,-0.0076,-0.0701,-0.1492,-0.2356,-0.2979,-0.3761,-0.454,-0.5165,-0.5789,-0.6338,-0.6338,-0.6338,-0.6338,-0.6338,-0.6338,-0.6338,-0.6338,-0.6338,-0.6338,-0.6338,-0.6338,-0.6338,-0.6338,-0.6338,-0.6338,-0.6338,-0.6338,-0.6338,0.0,0.0,0.0,0.0,0.0,0.0,-0.7642,0.0,-0.8016,-0.8165,-0.8241,-0.8313,-0.8313,0.0,0.0,0.0,0.0,0.0,-0.6412,0.0,-0.587,-0.6261,-0.618,-0.6022,-0.6022,-0.5709,-0.5553,-0.555,-0.4696,-0.3915,-0.3214,-0.2906,-0.2437,-0.1729,-0.1415,-0.1021,-0.055,-0.055,-0.0314,-0.0,-0.0,-0.0,-0.0079,0.6402,0.0,0.5875,0.0,0.4773,0.4125,0.3782,0.3475,0.3061,0.2601,0.2487,0.2384,0.2234,0.2013,0.1715,0.1193,0.0895,0.0745,0.0745,0.0745,0.052,-0.0,-0.0,0.0,-0.0,-0.0,-0.0,-0.0,-0.0,0.0,0.0,0.0,0.0,0.0,0.081,0.0808,0.0809,0.0809,0.0474,-0.0,-0.0,-0.0,-0.0,-0.0,-0.0152,-0.0383,-0.0703,-0.157,-0.2588,-0.3056,-0.3759,-0.4618,-0.5165,-0.5789,-0.6338,-0.6338,-0.6338,-0.6338,-0.6338,-0.6338,-0.6338,-0.6338,-0.6338,-0.6338,-0.6338,-0.6338,-0.6338,-0.6338,-0.6338,-0.6338,-0.6338,-0.6338,-0.6338,-0.6338,0.0,0.0,0.0,-0.6563,0.0,-0.7026,-0.7103,-0.7176,-0.7326,-0.748,-0.7553,-0.7625,0.0,0.0,0.0,0.0,0.0,0.0,0.0,0.0,0.0,-0.6018,-0.5864,-0.5709,-0.5321,-0.5087,-0.4929,-0.4068,-0.3212,-0.2512,-0.2043,-0.1493,-0.0943,-0.0943,-0.055,-0.0,-0.0,-0.0,-0.0,-0.0,-0.0,-0.0079,0.5796,0.5219,0.4823,0.472,0.407,0.3501,0.3431,0.2898,0.2433,0.2121,0.1649,0.1335,0.1335,0.1335,0.1335,0.1335,0.0549,-0.0,-0.0,-0.0,-0.0,0.0,0.0,-0.0,-0.0,-0.0,-0.0,-0.0,0.0,0.0,-0.0,0.0,-0.0,-0.0,-0.0,-0.0,-0.0,-0.0,-0.0,-0.0,-0.0,-0.0,-0.0,-0.0,-0.0538,-0.1257,-0.1257,-0.1805,-0.2588,-0.3212,-0.3995,-0.4779,-0.5404,-0.5948,-0.6338,-0.6338,-0.6338,-0.6338,-0.6338,-0.6338,-0.6338,-0.6338,-0.6338,-0.6338,-0.6338,-0.6338,-0.6338,-0.6338,-0.6338,-0.6338,-0.6338,-0.6338,-0.6338,-0.6338,0.0,0.0,0.0,-0.649,0.0,-0.6641,-0.6788,-0.6942,-0.6942,-0.6942,0.0,0.0,0.0,0.0,0.0,0.0,0.0,-0.6581,-0.618,0.0,-0.5941,-0.5941,-0.5705,-0.5321,-0.4932,-0.4462,-0.4068,-0.2978,-0.2512,-0.2438,-0.165,-0.0786,-0.0,-0.0,-0.0,-0.0,-0.0,-0.0,-0.0,-0.0,-0.0,-0.0079,0.4474,0.4234,0.4065,0.3791,0.3411,0.3032,0.2824,0.2594,0.228,0.165,0.1415,0.1335,0.1335,0.0786,0.0393,0.0,0.0157,-0.0,0.0,-0.055,-0.0861,-0.0854,-0.0854,-0.0851,-0.0921,-0.0537,-0.0381,-0.0374,0.0,0.0,0.0,-0.0,-0.0,-0.0,-0.0,-0.0,-0.0,-0.0,-0.0,-0.0,-0.0,-0.0,-0.0,-0.0,-0.0546,-0.1336,-0.1887,-0.2515,-0.3139,-0.368,-0.446,-0.5165,-0.5631,-0.6025,-0.6338,-0.6338,-0.6338,-0.6338,-0.6338,-0.6338,-0.6338,-0.6338,-0.6338,-0.6338,-0.6338,-0.6338,-0.6338,-0.6338,-0.6338,-0.6338,-0.6338,-0.6338,-0.6338,-0.6338,-0.6338,0.0,-0.6338,0.0,-0.6412,-0.6412,-0.649,-0.649,-0.649,-0.6641,0.0,0.0,0.0,0.0,0.0,0.0,0.0,0.0,-0.6099,0.0,-0.5864,-0.5631,-0.5321,-0.4854,-0.4151,-0.3448,-0.2747,-0.2357,-0.2043,-0.165,-0.1415,-0.0786,-0.0,-0.0,-0.0,-0.0,-0.0,-0.0,-0.0,-0.0,-0.0,-0.0079,0.3679,0.3494,0.3374,0.3061,0.2591,0.2277,0.2044,0.2044,0.1887,0.1336,0.0707,0.0314,0.0314,-0.0157,0.0,-0.0,-0.0314,-0.0471,-0.0471,-0.1021,-0.1415,-0.1729,-0.1728,-0.1806,-0.1963,-0.157,0.0,-0.1074,-0.0537,-0.0152,-0.0,-0.0,-0.0,-0.0,-0.0,-0.0,-0.0,-0.0,-0.0,-0.0,-0.0,-0.0,-0.0,-0.0,-0.055,-0.1415,-0.22,-0.2827,-0.3452,-0.3992,-0.4774,-0.5479,-0.5786,-0.6099,-0.6338,-0.6338,-0.6338,-0.6338,-0.6338,-0.6338,-0.6338,-0.6338,-0.6338,-0.6338,-0.6338,-0.6338,-0.6338,-0.6338,-0.6338,-0.6338,-0.6338,-0.6338,-0.6338,-0.6338,-0.6338,-0.6338,-0.6338,0.0,-0.6338,0.0,0.0,0.0,0.0,-0.6412,-0.649,0.0,0.0,0.0,0.0,0.0,0.0,-0.6268,-0.6022,0.0,-0.5473,-0.5165,-0.4774,-0.4073,-0.3292,-0.2591,-0.2044,-0.1887,-0.1415,-0.0786,-0.0786,-0.0471,-0.0,-0.0,-0.0,-0.0,-0.0,-0.0,-0.0,-0.0,-0.0,-0.0,0.3297,0.2984,0.2747,0.0,0.1805,0.0,0.11,0.11,0.11,0.11,-0.0314,-0.1335,-0.1414,-0.1414,-0.1099,-0.0314,0.0,0.0,0.0,-0.1414,-0.1729,-0.2516,-0.2591,-0.2746,-0.3141,-0.2746,-0.2353,-0.1882,-0.1099,-0.0471,-0.0078,-0.0077,-0.0076,-0.0076,-0.0074,-0.0,-0.0,-0.0,-0.0074,-0.0076,-0.0076,-0.0077,-0.0079,-0.0079,-0.055,-0.1492,-0.2276,-0.2979,-0.3524,-0.4229,-0.501,-0.5637,-0.5864,-0.6099,-0.6338,-0.6338,-0.6338,-0.6338,-0.6338,-0.6338,-0.6338,-0.6338,-0.6338,-0.6338,-0.6338,-0.6338,-0.6338,-0.6338,-0.6338,-0.6338,-0.6338,-0.6338,-0.6338,-0.6338,-0.6338,-0.6338,-0.6338,-0.6338,-0.6338,0.0,0.0,0.0,0.0,-0.6261,-0.6257,0.0,0.0,0.0,0.0,0.0,-0.6426,-0.6197,-0.5948,-0.5473,-0.4698,-0.4621,-0.4073,-0.3056,-0.2356,-0.2044,-0.1808,-0.1493,-0.0786,-0.0,-0.0,-0.0,-0.0,-0.0,-0.0,-0.0,-0.0,-0.0,-0.0,-0.0,-0.0,-0.0,0.0,0.0,0.1649,0.1571,0.1414,0.0864,-0.0471,-0.0707,-0.0707,-0.0707,-0.1021,-0.1571,-0.2119,-0.2198,-0.2276,-0.2354,-0.1728,-0.1571,-0.2198,-0.2433,-0.2669,-0.3064,-0.3374,-0.3528,-0.3606,-0.3528,-0.3057,-0.2038,-0.1647,-0.1256,-0.1021,-0.0625,-0.0467,-0.0467,-0.0465,-0.0309,-0.0,-0.0309,-0.0697,-0.0935,-0.0623,-0.0469,-0.0471,-0.0471,-0.11,-0.2044,-0.2827,-0.345,-0.4068,-0.4851,-0.5398,-0.5864,-0.6103,-0.6261,-0.6338,-0.6338,-0.6338,-0.6338,-0.6338,-0.6338,-0.6338,-0.6338,-0.6338,-0.6338,-0.6338,-0.6338,-0.6338,-0.6338,-0.6338,-0.6338,-0.6338,-0.6338,-0.6338,-0.6338,-0.6338,-0.6338,-0.6338,-0.6338,-0.6338,0.0,-0.6099,-0.6018,-0.6018,-0.5702,-0.5544,0.0,0.0,0.0,0.0,-0.5188,-0.5263,-0.5559,-0.5326,-0.4932,-0.4226,-0.3915,-0.3215,-0.2357,-0.2043,-0.1807,-0.1415,-0.1335,-0.0786,-0.0,-0.0,-0.0,-0.0,-0.0,-0.0,-0.0,-0.0,-0.0,-0.0,-0.0,-0.0,-0.0,0.1964,0.1572,0.1021,0.0236,0.0079,-0.0236,-0.1178,-0.165,-0.1886,-0.1885,-0.2042,-0.2356,-0.2826,-0.2981,-0.3215,-0.3374,-0.2669,-0.2434,-0.2826,-0.3139,-0.345,-0.3684,-0.3997,-0.4231,-0.4384,-0.4151,-0.3604,-0.2665,-0.2429,-0.2117,-0.1649,-0.1256,-0.1099,-0.1178,-0.1178,-0.0943,-0.0628,-0.0864,-0.1257,-0.1808,-0.157,-0.1491,-0.1491,-0.1491,-0.2042,-0.2987,-0.3534,-0.4075,-0.4613,-0.5085,-0.5634,-0.6099,-0.6261,-0.6338,-0.6338,-0.6338,-0.6338,-0.6338,-0.6338,-0.6338,-0.6338,-0.6338,-0.6338,-0.6338,-0.6338,-0.6338,-0.6338,-0.6338,-0.6338,-0.6338,-0.6338,-0.6338,-0.6338,-0.6338,-0.6338,-0.6338,-0.6338,-0.618,0.0,-0.6099,-0.5786,-0.5553,-0.5473,-0.5234,-0.4996,-0.4916,-0.4766,0.0,-0.4484,-0.433,-0.4401,-0.4779,-0.455,-0.4157,-0.3524,-0.2979,-0.2356,-0.1729,-0.165,-0.1493,-0.1257,-0.0864,-0.0471,-0.0,-0.0,-0.0,-0.0,-0.0,-0.0,-0.0,-0.0,-0.0,-0.0,-0.0,-0.0,-0.0,0.0943,0.0943,0.0471,-0.1021,-0.1415,-0.1493,-0.1571,-0.2121,-0.2672,-0.2668,-0.3061,-0.3376,-0.3532,-0.3765,-0.3919,-0.3997,-0.3765,-0.361,-0.3532,-0.3843,-0.4073,-0.4302,-0.4696,-0.4929,-0.516,-0.4774,-0.4304,-0.368,-0.3444,-0.2976,-0.2352,-0.2116,-0.204,-0.2043,-0.2043,-0.1807,-0.1492,-0.1492,-0.1886,-0.2595,-0.2591,-0.2588,-0.2588,-0.2588,-0.3139,-0.3849,-0.416,-0.4621,-0.5082,-0.5318,-0.5789,-0.6338,-0.6338,-0.6338,-0.6338,-0.6338,-0.6338,-0.6338,-0.6338,-0.6338,-0.6338,-0.6338,-0.6338,-0.6338,-0.6338,-0.6338,-0.6338,-0.6338,-0.6338,-0.6338,-0.6338,-0.6338,-0.6338,-0.6338,-0.6338,-0.6261,-0.6261,0.0,-0.5864,-0.5783,-0.5395,-0.5007,-0.4849,-0.4613,-0.4453,-0.4217,-0.4231,-0.4086,-0.3702,-0.362,-0.3692,-0.3845,-0.3771,-0.3377,-0.2669,-0.2121,-0.165,-0.1335,-0.1178,-0.11,-0.11,-0.0314,-0.0,-0.0,-0.0,-0.0,-0.0,-0.0,-0.0,-0.0,-0.0,-0.0,-0.0,-0.0,-0.0,-0.0,-0.0786,-0.0864,-0.0943,-0.1257,-0.1887,-0.2358,-0.2591,-0.2984,-0.3297,-0.3528,-0.3686,-0.3919,-0.4389,-0.4545,-0.4621,-0.4771,-0.4929,-0.4854,-0.4467,-0.4696,-0.4927,-0.5085,-0.5473,-0.5709,-0.5783,-0.5556,-0.5165,-0.4768,-0.4382,-0.3995,-0.3528,-0.3292,-0.3056,-0.2899,-0.2746,-0.2512,-0.2276,-0.2276,-0.2669,-0.3142,-0.2904,-0.2823,-0.2976,-0.2976,-0.3444,-0.407,-0.4307,-0.4854,-0.5556,-0.5709,-0.6022,-0.6338,-0.6338,-0.6338,-0.6338,-0.6338,-0.6338,-0.6338,-0.6338,-0.6338,-0.6338,-0.6338,-0.6338,-0.6338,-0.6338,-0.6338,-0.6338,-0.6338,-0.6338,-0.6338,-0.6338,-0.6338,-0.6338,-0.6338,-0.6338,-0.6257,-0.6018,0.0,-0.5553,-0.516,-0.4613,-0.4226,-0.3995,-0.368,-0.3522,-0.3444,-0.3372,-0.3301,-0.3229,-0.2912,-0.2752,-0.2752,-0.2906,-0.2591,-0.1571,-0.1414,-0.1336,-0.1257,-0.055,-0.0236,-0.0236,-0.0079,-0.0,-0.0,-0.0,-0.0,-0.0,-0.0,-0.0,-0.0,-0.0,-0.0,-0.0,-0.0,-0.0,-0.0,-0.11,-0.165,-0.1964,-0.1962,-0.2357,-0.2906,-0.3295,-0.3606,-0.3841,-0.4231,-0.4465,-0.4698,-0.501,-0.5243,-0.5395,-0.5473,-0.5709,-0.5789,-0.5556,-0.555,-0.555,-0.5631,-0.5944,-0.6022,-0.5941,-0.5786,-0.5631,-0.5321,-0.5007,-0.4696,-0.446,-0.4229,-0.3995,-0.3759,-0.3602,-0.337,-0.3215,-0.3215,-0.3372,-0.3761,-0.3682,-0.3837,-0.4144,-0.4144,-0.438,-0.4771,-0.4851,-0.5243,-0.5789,-0.5864,-0.6099,-0.6338,-0.6338,-0.6338,-0.6338,-0.6338,-0.6338,-0.6338,-0.6338,-0.6338,-0.6338,-0.6338,-0.6338,-0.6338,-0.6338,-0.6338,-0.6338,-0.6338,-0.6338,-0.6261,-0.6099,-0.6099,-0.6022,-0.5789,-0.5789,0.0,0.0,-0.5162,-0.4851,-0.4535,-0.4151,-0.3765,-0.3374,-0.3057,-0.2666,-0.2275,-0.2198,-0.2121,-0.2123,-0.1965,-0.1887,-0.1887,-0.1963,-0.1806,-0.1335,-0.0864,-0.0628,-0.0628,-0.0157,-0.0,-0.0,-0.0,-0.0,-0.0,-0.0,-0.0,-0.0,-0.0,-0.0,-0.0,-0.0,-0.0,-0.0,-0.0,-0.0,-0.0,-0.1335,-0.2044,-0.2515,-0.2668,-0.2979,-0.3372,-0.3995,-0.4226,-0.4538,-0.4932,-0.5243,-0.5476,-0.5556,-0.5786,-0.6018,-0.6018,-0.618,-0.6338,-0.6338,-0.6099,-0.6018,-0.6018,-0.618,-0.618,-0.6018,-0.6018,-0.5944,-0.5792,-0.5556,-0.5395,-0.5237,-0.501,-0.4854,-0.4696,-0.446,-0.4307,-0.4153,-0.4073,-0.4226,-0.4382,-0.454,-0.4851,-0.5162,-0.5162,-0.524,-0.5476,-0.5476,-0.5709,-0.6018,-0.6018,-0.6099,-0.6338,-0.6338,-0.6338,-0.6338,-0.6338,-0.6338,-0.6338,-0.6338,-0.6338,-0.6338,-0.6338,-0.6338,-0.6338,-0.6338,-0.6261,-0.618,-0.618,-0.618,-0.6025,-0.5786,-0.5705,-0.555,-0.5243,0.0,0.0,0.0,-0.4382,-0.407,-0.3834,-0.361,-0.3142,-0.2591,-0.2354,-0.1962,-0.1335,-0.11,-0.11,-0.1257,-0.1335,-0.1335,-0.1335,-0.11,-0.1021,-0.1021,-0.0314,-0.0,-0.0,-0.0,-0.0,-0.0,-0.0,-0.0,-0.0,-0.0,-0.0,-0.0,-0.0,-0.0,-0.0,-0.0,-0.0,-0.0,-0.0,-0.0,-0.0,-0.1965,-0.2277,-0.2668,-0.3212,-0.368,-0.4224,-0.4846,-0.5085,-0.5321,-0.5783,-0.5864,-0.5941,-0.6183,-0.6261,-0.6261,-0.6261,-0.6261,-0.6338,-0.6338,-0.6261,-0.6261,-0.6261,-0.6261,-0.6261,-0.6261,-0.6261,-0.6261,-0.6261,-0.6022,-0.5864,-0.586,-0.5634,-0.5559,-0.5482,-0.5321,-0.5243,-0.5162,-0.5004,-0.5004,-0.5243,-0.5243,-0.5398,-0.5559,-0.5559,-0.5712,-0.5864,-0.5864,-0.6022,-0.6261,-0.6261,-0.6261,-0.6338,-0.6338,-0.6338,-0.6338,-0.6338,-0.6338,-0.6338,-0.6338,-0.6338,-0.6338,-0.6338,-0.6338,-0.6338,-0.6338,-0.6099,-0.5941,-0.5941,-0.5789,-0.5559,-0.5398,-0.516,-0.5004,-0.4776,0.0,0.0,-0.3919,-0.3682,-0.337,-0.3061,-0.2514,-0.2044,-0.1492,-0.1414,-0.1335,-0.1335,-0.055,-0.0471,-0.1257,-0.1335,-0.1335,-0.1335,-0.055,-0.0079,-0.0079,-0.0,-0.0,-0.0,-0.0,-0.0,-0.0,-0.0,-0.0,-0.0,-0.0,-0.0,-0.0,-0.0,-0.0,-0.0,-0.0,-0.0,-0.0,-0.0,-0.0,-0.0,-0.2514,-0.2984,-0.3454,-0.3917,-0.4307,-0.4696,-0.547,-0.5628,-0.5786,-0.6099,-0.618,-0.618,-0.6261,-0.6338,-0.6338,-0.6338,-0.6338,-0.6338,-0.6338,-0.6338,-0.6338,-0.6338,-0.6338,-0.6338,-0.6338,-0.6338,-0.6338,-0.6338,-0.618,-0.618,-0.618,-0.6103,-0.6028,-0.6028,-0.5789,-0.5709,-0.5631,-0.5476,-0.5476,-0.5709,-0.5709,-0.5789,-0.6028,-0.6028,-0.6103,-0.618,-0.618,-0.618,-0.6338,-0.6338,-0.6338,-0.6338,-0.6338,-0.6338,-0.6338,-0.6338,-0.6338,-0.6338,-0.6338,-0.6338,-0.6338,-0.6338,-0.618,-0.6022,-0.6022,-0.5786,-0.5553,-0.5553,-0.5246,-0.5012,-0.4774,-0.4462,-0.4231,-0.416,0.0,-0.3608,-0.3374,-0.3059,-0.2824,-0.2672,-0.2438,-0.2044,-0.1336,-0.0786,-0.0471,-0.0471,-0.0157,-0.0157,-0.0471,-0.0471,-0.0471,-0.0471,-0.0157,-0.0,-0.0,-0.0,-0.0,-0.0,-0.0,-0.0,-0.0,-0.0,-0.0,-0.0,-0.0,-0.0,-0.0,-0.0,-0.0,-0.0,-0.0,-0.0,-0.0,-0.0,-0.0,-0.0,-0.3139,-0.361,-0.4157,-0.4698,-0.4932,-0.5321,-0.5941,-0.6022,-0.6099,-0.6261,-0.6338,-0.6338,-0.6338,-0.6338,-0.6338,-0.6338,-0.6338,-0.6338,-0.6338,-0.6338,-0.6338,-0.6338,-0.6338,-0.6338,-0.6338,-0.6338,-0.6338,-0.6338,-0.6338,-0.6338,-0.6338,-0.6338,-0.6338,-0.6261,-0.6099,-0.6022,-0.6022,-0.587,-0.587,-0.6022,-0.6022,-0.6103,-0.6338,-0.6338,-0.6338,-0.6338,-0.6338,-0.6338,-0.6338,-0.6338,-0.6338,-0.6338,-0.6338,-0.6338,-0.6338,-0.6338,-0.6338,-0.6261,-0.618,-0.618,-0.618,-0.618,-0.6022,-0.5786,-0.5628,-0.5237,-0.4929,-0.4854,-0.4462,-0.4151,-0.3917,-0.3684,-0.3452,-0.3377,-0.2984,-0.2671,-0.2512,-0.2276,-0.212,-0.2123,-0.2123,-0.1807,-0.0943,-0.0314,-0.0,-0.0,-0.0,-0.0,-0.0,-0.0,-0.0,-0.0,0.0236,0.0393,0.0393,0.0157,-0.0,-0.0,-0.0,-0.0,-0.0,-0.0,-0.0,-0.0,-0.0,-0.0,-0.0,-0.0,-0.0,-0.0,-0.0,-0.0,-0.0,-0.0,-0.0,-0.0,-0.3684,-0.4153,-0.4696,-0.5482,-0.5786,-0.6018,-0.6261,-0.6338,-0.6338,-0.6338,-0.6338,-0.6338,-0.6338,-0.6338,-0.6338,-0.6338,-0.6338,-0.6338,-0.6338,-0.6338,-0.6338,-0.6338,-0.6338,-0.6338,-0.6338,-0.6338,-0.6338,-0.6338,-0.6338,-0.6338,-0.6338,-0.6338,-0.6338,-0.6338,-0.6338,-0.6338,-0.6338,-0.6338,-0.6338,-0.6338,-0.6338,-0.6338,-0.6338,-0.6338,-0.6338,-0.6338,-0.6338,-0.6338,-0.6338,-0.6338,-0.6338,-0.6338,-0.6338,-0.6338,-0.6338,-0.6338,-0.6261,-0.6257,-0.5941,-0.586,-0.586,-0.586,-0.5712,-0.5479,-0.5082,-0.4535,-0.407,-0.3841,-0.3446,-0.3056,-0.2824,-0.2826,-0.2826,-0.2511,-0.1806,-0.1335,-0.1257,-0.1257,-0.1257,-0.1257,-0.1257,-0.0943,-0.0079,-0.0,-0.0,-0.0,-0.0,-0.0,-0.0,-0.0,-0.0,-0.0,0.0864,0.1335,0.1335,0.0471,-0.0,-0.0,-0.0,-0.0,-0.0,-0.0,-0.0,-0.0,-0.0,-0.0,-0.0,-0.0,-0.0,-0.0,-0.0,-0.0,-0.0,-0.0,-0.0,-0.0,-0.4309,-0.4776,-0.5165,-0.5709,-0.5864,-0.6018,-0.6261,-0.6338,-0.6338,-0.6338,-0.6338,-0.6338,-0.6338,-0.6338,-0.6338,-0.6338,-0.6338,-0.6338,-0.6338,-0.6338,-0.6338,-0.6338,-0.6338,-0.6338,-0.6338,-0.6338,-0.6338,-0.6338,-0.6338,-0.6338,-0.6338,-0.6338,-0.6338,-0.6338,-0.6338,-0.6338,-0.6338,-0.6338,-0.6338,-0.6338,-0.6338,-0.6338,-0.6338,-0.6338,-0.6338,-0.6338,-0.6338,-0.6338,-0.6338,-0.6338,-0.6338,-0.6338,-0.6338,-0.6338,-0.6338,-0.6338,-0.618,-0.5944,-0.5712,-0.5476,-0.5315,-0.5473,-0.5243,-0.4854,-0.446,-0.4153,-0.3769,-0.3532,-0.3059,-0.2666,-0.2589,-0.2356,-0.2278,-0.2437,-0.1807,-0.11,-0.0471,-0.0393,-0.0393,-0.0393,-0.0393,-0.0314,-0.0,-0.0,-0.0,-0.0,-0.0,-0.0,-0.0,-0.0,0.0314,0.0864,0.1729,0.2121,0.2119,0.1021,0.0393,0.0393,0.0157,-0.0,-0.0,-0.0,-0.0,-0.0,-0.0,-0.0,-0.0,-0.0,-0.0,-0.0,-0.0,-0.0,-0.0,-0.0,-0.0,-0.0,-0.4854,-0.5243,-0.5631,-0.6022,-0.6022,-0.6099,-0.6261,-0.6338,-0.6338,-0.6338,-0.6338,-0.6338,-0.6338,-0.6338,-0.6338,-0.6338,-0.6338,-0.6338,-0.6338,-0.6338,-0.6338,-0.6338,-0.6338,-0.6338,-0.6338,-0.6338,-0.6338,-0.6338,-0.6338,-0.6338,-0.6338,-0.6338,-0.6338,-0.6338,-0.6338,-0.6338,-0.6338,-0.6338,-0.6338,-0.6338,-0.6338,-0.6338,-0.6338,-0.6338,-0.6338,-0.6338,-0.6338,-0.6338,-0.6338,-0.6338,-0.6338,-0.6338,-0.6338,-0.6338,-0.6261,-0.618,-0.5944,-0.5709,-0.5323,-0.4929,-0.4693,-0.4701,-0.4465,-0.4073,-0.368,-0.3374,-0.2987,-0.2592,-0.2119,-0.1726,-0.1726,-0.1728,-0.1729,-0.1965,-0.1335,-0.0628,-0.0079,-0.0,-0.0,-0.0,-0.0,-0.0,-0.0,-0.0,-0.0,-0.0,0.0314,0.055,0.055,0.0549,0.0785,0.1256,0.2042,0.2512,0.2665,0.1882,0.1333,0.1099,0.0863,0.0706,0.0471,0.0314,0.0236,0.0236,0.0079,-0.0,-0.0,-0.0,-0.0,-0.0,-0.0,-0.0,0.0079,0.0393,0.055,0.055,-0.5243,-0.5631,-0.6018,-0.6261,-0.6338,-0.6338,-0.6338,-0.6338,-0.6338,-0.6338,-0.6338,-0.6338,-0.6338,-0.6338,-0.6338,-0.6338,-0.6338,-0.6338,-0.6338,-0.6338,-0.6338,-0.6338,-0.6338,-0.6338,-0.6338,-0.6338,-0.6338,-0.6338,-0.6338,-0.6338,-0.6338,-0.6338,-0.6338,-0.6338,-0.6338,-0.6338,-0.6338,-0.6338,-0.6338,-0.6338,-0.6338,-0.6338,-0.6338,-0.6338,-0.6338,-0.6338,-0.6338,-0.6338,-0.6261,-0.6261,-0.6261,-0.6261,-0.6261,-0.6183,-0.618,-0.5864,-0.5634,-0.5401,-0.4779,-0.4307,-0.3995,-0.3692,-0.3452,-0.3136,-0.2904,-0.2515,-0.1965,-0.1415,-0.0864,-0.055,-0.055,-0.0864,-0.1178,-0.1178,-0.055,-0.0,-0.0,-0.0,-0.0,-0.0,-0.0,-0.0,-0.0,-0.0,-0.0,0.0079,0.0943,0.1415,0.1414,0.1412,0.1411,0.1488,0.2196,0.2743,0.2974,0.2974,0.2662,0.2037,0.196,0.1726,0.1414,0.1021,0.0785,0.0707,0.0314,0.0157,0.0079,0.0079,-0.0,-0.0,-0.0,0.0079,0.0236,0.1021,0.1335,0.1415,-0.5401,-0.587,-0.6257,-0.6261,-0.6338,-0.6338,-0.6338,-0.6338,-0.6338,-0.6338,-0.6338,-0.6338,-0.6338,-0.6338,-0.6338,-0.6338,-0.6338,-0.6338,-0.6338,-0.6338,-0.6338,-0.6338,-0.6338,-0.6338,-0.6338,-0.6338,-0.6338,-0.6338,-0.6338,-0.6338,-0.6338,-0.6338,-0.6338,-0.6338,-0.6338,-0.6338,-0.6338,-0.6338,-0.6338,-0.6338,-0.6338,-0.6338,-0.6338,-0.6338,-0.6338,-0.6338,-0.6338,-0.6338,-0.6261,-0.6022,-0.6018,-0.5941,-0.5631,-0.5553,-0.5476,-0.5237,-0.4929,-0.454,-0.4153,-0.3765,-0.3297,-0.2672,-0.2121,-0.1885,-0.2437,-0.2516,-0.2202,-0.1493,-0.0707,-0.0157,-0.0157,-0.0236,-0.0314,-0.0314,-0.0157,-0.0,-0.0,-0.0,-0.0,-0.0,-0.0,-0.0,-0.0,-0.0,0.0314,0.0943,0.1807,0.2201,0.2276,0.2275,0.243,0.282,0.3295,0.3608,0.3832,0.399,0.3679,0.282,0.2508,0.2353,0.2276,0.2433,0.2198,0.1647,0.1492,0.11,0.0471,0.0471,0.0314,-0.0,-0.0,0.0393,0.1021,0.1257,0.1729,0.2201,-0.5323,-0.5789,-0.618,-0.6261,-0.6338,-0.6338,-0.6338,-0.6338,-0.6338,-0.6338,-0.6338,-0.6338,-0.6338,-0.6338,-0.6338,-0.6338,-0.6338,-0.6338,-0.6338,-0.6338,-0.6257,-0.6099,-0.6099,-0.6099,-0.5951,-0.587,-0.5944,-0.6099,-0.6025,-0.5951,-0.5951,-0.6099,-0.6099,-0.6099,-0.6257,-0.6338,-0.6338,-0.6338,-0.6338,-0.6338,-0.6338,-0.6338,-0.6261,-0.618,-0.6099,-0.6099,-0.5867,-0.5789,-0.5631,-0.555,-0.5395,-0.5321,-0.5087,-0.4932,-0.4774,-0.454,-0.4148,-0.3837,-0.345,-0.3062,-0.2672,-0.2359,-0.1807,-0.1415,-0.1808,-0.1965,-0.1729,-0.0864,-0.0314,-0.0,-0.0,-0.0,-0.0,-0.0,-0.0,-0.0,-0.0,-0.0,-0.0,-0.0,0.0393,0.0628,0.0628,0.0628,0.0786,0.1257,0.2043,0.2592,0.2668,0.2821,0.313,0.3521,0.3999,0.4311,0.4535,0.4693,0.4618,0.4304,0.3761,0.3526,0.337,0.345,0.3215,0.2823,0.2354,0.1962,0.1491,0.1334,0.102,0.0628,0.0393,0.055,0.1021,0.1178,0.1886,0.2672,-0.5165,-0.5631,-0.6018,-0.6261,-0.6338,-0.6338,-0.6338,-0.6338,-0.6338,-0.6338,-0.6338,-0.6338,-0.6338,-0.6338,-0.6338,-0.6338,-0.6261,-0.6257,-0.6257,-0.618,-0.6025,-0.5786,-0.5783,-0.5631,-0.5482,-0.5243,-0.5318,-0.5783,-0.5553,-0.5479,-0.5479,-0.5709,-0.5864,-0.5941,-0.618,-0.6338,-0.6338,-0.6338,-0.6261,-0.6257,-0.6257,-0.6183,-0.6103,-0.5864,-0.5783,-0.5631,-0.5321,-0.5085,-0.4849,-0.4849,-0.4696,-0.4545,-0.4467,-0.4309,-0.4153,-0.3763,-0.345,-0.3214,-0.2904,-0.2515,-0.2202,-0.2281,-0.1807,-0.1257,-0.11,-0.11,-0.0864,-0.0157,-0.0,-0.0,-0.0,-0.0,-0.0,-0.0,-0.0,-0.0,-0.0,0.0157,0.0236,0.0236,0.0864,0.1336,0.1493,0.1492,0.1571,0.1649,0.2276,0.2824,0.3059,0.3365,0.375,0.4066,0.454,0.4932,0.516,0.5318,0.5476,0.5715,0.5246,0.4854,0.454,0.4151,0.3997,0.3919,0.3214,0.2823,0.2666,0.2352,0.1881,0.1411,0.0942,0.0864,0.1021,0.1492,0.2276,0.3137,-0.5085,-0.5631,-0.6018,-0.6261,-0.6338,-0.6338,-0.6338,-0.6338,-0.6338,-0.6338,-0.6338,-0.6338,-0.6338,-0.6338,-0.6338,-0.6338,-0.6099,-0.5941,-0.5941,-0.5631,-0.5398,-0.5398,-0.524,-0.5007,-0.4857,-0.4621,-0.4693,-0.516,-0.5082,-0.5082,-0.5082,-0.5479,-0.5712,-0.5941,-0.618,-0.6338,-0.6338,-0.6338,-0.618,-0.5941,-0.5941,-0.5709,-0.5398,-0.5398,-0.5165,-0.4854,-0.4776,-0.4621,-0.4462,-0.4073,-0.3919,-0.3843,-0.361,-0.3454,-0.3454,-0.3219,-0.2904,-0.2589,-0.2594,-0.2516,-0.2281,-0.165,-0.1415,-0.11,-0.0314,-0.0157,-0.0157,-0.0,-0.0,-0.0,-0.0,-0.0,-0.0,-0.0,-0.0,-0.0,-0.0,0.0628,0.11,0.11,0.1257,0.1572,0.2281,0.2357,0.2511,0.2984,0.3379,0.3688,0.3912,0.4142,0.453,0.5085,0.5162,0.5398,0.5783,0.5783,0.5941,0.6183,0.6103,0.5789,0.5162,0.4927,0.4774,0.4543,0.4465,0.4075,0.3606,0.329,0.2743,0.196,0.1647,0.1803,0.2353,0.3142,0.3686,0.3992,-0.4927,-0.5395,-0.5709,-0.6183,-0.6338,-0.6338,-0.6338,-0.6338,-0.6338,-0.6338,-0.6338,-0.6338,-0.6338,-0.6338,-0.6257,-0.6099,-0.5867,-0.5631,-0.5395,-0.5165,-0.4776,-0.4465,-0.4384,-0.4151,-0.3837,-0.3604,-0.3604,-0.3839,-0.3992,-0.4068,-0.4146,-0.4538,-0.4851,-0.5085,-0.5553,-0.5712,-0.5789,-0.5944,-0.5944,-0.5712,-0.5712,-0.5476,-0.5082,-0.4771,-0.4462,-0.4153,-0.3999,-0.3843,-0.3684,-0.3452,-0.3295,-0.3059,-0.2904,-0.2512,-0.22,-0.212,-0.1963,-0.1806,-0.1807,-0.1808,-0.1729,-0.1415,-0.0943,-0.0471,-0.0079,-0.0,-0.0,-0.0,-0.0,-0.0,-0.0,-0.0,-0.0,-0.0,-0.0,0.0157,0.0629,0.1021,0.1493,0.1887,0.2121,0.2356,0.2907,0.3139,0.3294,0.353,0.4001,0.4389,0.4613,0.4927,0.5237,0.5631,0.5789,0.5944,0.6099,0.6099,0.618,0.6338,0.6338,0.6183,0.5867,0.5628,0.5473,0.5321,0.5165,0.4854,0.4618,0.4151,0.3682,0.3214,0.2821,0.2899,0.3294,0.3767,0.4233,0.4613]},{"header":{"parameterUnit":"m.s-1","parameterCategory":1,"la1":30.6,"la2":28.766,"lo1":-90.7593,"lo2":-88.6598,"dy":0.0162,"dx":0.0183,"nx":116,"ny":114,"refTime":"2023-09-12T18:00:00:Z","depth":0,"parameterNumber":3,"parameterNumberName":"V-component_of_WINDS"},"data":[0.0,0.0,0.0,0.0,0.0,0.0,0.0,0.0,0.0,0.0,0.0,0.0,0.0,0.0,0.0,0.0,0.0,0.0,0.0,0.0,0.0,0.0,0.0,0.0,0.0,0.0,0.0,0.0,0.0,0.0,0.0,0.0,0.0,0.0,0.0,0.0,0.0,0.0,0.0,0.0,0.0,0.0,0.0,0.0,0.0,0.0,0.0,0.0,0.0,0.0,0.0,0.0,0.0,0.0,0.0,0.0,0.0,0.0,0.0,0.0,0.0,0.0,0.0,0.0,0.0,0.0,0.0,0.0,0.0,0.0,0.0,0.0,0.0,0.0,0.0,0.0,0.0,0.0,0.0,0.0,0.0,0.0,0.0,0.0,0.0,0.0,0.0,0.0,0.0,0.0,0.0,0.0,0.0,0.0,0.0,0.0,0.0,0.0,0.0,0.0,0.0,0.0,0.0,0.0,0.0,0.0,0.0,0.0,0.0,0.0,0.0,0.0,0.0,0.0,0.0,0.0,0.0,0.0,0.0,0.0,0.0,0.0,0.0,0.0,0.0,0.0,0.0,0.0,0.0,0.0,0.0,0.0,0.0,0.0,0.0,0.0,0.0,0.0,0.0,0.0,0.0,0.0,0.0,0.0,0.0,0.0,0.0,0.0,0.0,0.0,0.0,0.0,0.0,0.0,0.0,0.0,0.0,0.0,0.0,0.0,0.0,0.0,0.0,0.0,0.0,0.0,0.0,0.0,0.0,0.0,0.0,0.0,0.0,0.0,0.0,0.0,0.0,0.0,0.0,0.0,0.0,0.0,0.0,0.0,0.0,0.0,0.0,0.0,0.0,0.0,0.0,0.0,0.0,0.0,0.0,0.0,0.0,0.0,0.0,0.0,0.0,0.0,0.0,0.0,0.0,0.0,0.0,0.0,0.0,0.0,0.0,0.0,0.0,0.0,0.0,0.0,0.0,0.0,0.0,0.0,0.0,0.0,0.0,0.0,0.0,0.0,0.0,0.0,0.0,0.0,0.0,0.0,0.0,0.0,0.0,0.0,0.0,0.0,0.0,0.0,0.0,0.0,0.0,0.0,0.0,0.0,0.0,0.0,0.0,0.0,0.0,0.0,0.0,0.0,0.0,0.0,0.0,0.0,0.0,0.0,0.0,0.0,0.0,0.0,0.0,0.0,0.0,0.0,0.0,0.0,0.0,0.0,0.0,0.0,0.0,0.0,0.0,0.0,0.0,0.0,0.0,0.0,0.0,0.0,0.0,0.0,0.0,0.0,0.0,0.0,0.0,0.0,0.0,0.0,0.0,0.0,0.0,0.0,0.0,0.0,0.0,0.0,0.0,0.0,0.0,0.0,0.0,0.0,0.0,0.0,0.0,0.0,0.0,0.0,0.0,0.0,0.0,0.0,0.0,0.0,0.0,0.0,0.0,0.0,0.0,0.0,0.0,0.0,0.0,0.0,0.0,0.0,0.0,0.0,0.0,0.0,0.0,0.0,0.0,0.0,0.0,0.0,0.0,0.0,0.0,0.0,0.0,0.0,0.0,0.0,0.0,0.0,0.0,0.0,0.0,0.0,0.0,0.0,0.0,0.0,0.0,0.0,0.0,0.0,0.0,0.0,0.0,0.0,0.0,0.0,0.0,0.0,0.0,0.0,0.0,0.0,0.0,0.0,0.0,0.0,0.0,0.0,0.0,0.0,0.0,0.0,0.0,0.0,0.0,0.0,0.0,0.0,0.0,0.0,0.0,0.0,0.0,0.0,0.0,0.0,0.0,0.0,0.0,0.0,0.0,0.0,0.0,0.0,0.0,0.0,0.0,0.0,0.0,0.0,0.0,0.0,0.0,0.0,0.0,0.0,0.0,0.0,0.0,0.0,0.0,0.0,0.0,0.0,0.0,0.0,0.0,0.0,0.0,0.0,0.0,0.0,0.0,0.0,0.0,0.0,0.0,0.0,0.0,0.0,0.0,0.0,0.0,0.0,0.0,0.0,0.0,0.0,0.0,0.0,0.0,0.0,0.0,0.0,0.0,0.0,0.0,0.0,0.0,0.0,0.0,0.0,0.0,0.0,0.0,0.0,0.0,0.0,0.0,0.0,0.0,0.0,0.0,0.0,0.0,0.0,0.0,0.0,0.0,0.0,0.0,0.0,0.0,0.0,0.0,0.0,0.0,0.0,0.0,0.0,0.0,0.0,0.0,0.0,0.0,0.0,0.0,0.0,0.0,0.0,0.0,0.0,0.0,0.0,0.0,0.0,0.0,0.0,0.0,0.0,0.0,0.0,0.0,0.0,0.0,0.0,0.0,0.0,0.0,0.0,0.0,0.0,0.0,0.0,0.0,0.0,0.0,0.0,0.0,0.0,0.0,0.0,0.0,0.0,0.0,0.0,0.0,0.0,0.0,0.0,0.0,0.0,0.0,0.0,0.0,0.0,0.0,0.0,0.0,0.0,0.0,0.0,0.0,0.0,0.0,0.0,0.0,0.0,0.0,0.0,0.0,0.0,0.0,0.0,0.0,0.0,0.0,0.0,0.0,0.0,0.0,0.0,0.0,0.0,0.0,0.0,0.0,0.0,0.0,0.0,0.0,0.0,0.0,0.0,0.0,0.0,0.0,0.0,0.0,0.0,0.0,0.0,0.0,0.0,0.0,0.0,0.0,0.0,0.0,0.0,0.0,0.0,0.0,0.0,0.0,0.0,0.0,0.0,0.0,0.0,0.0,0.0,0.0,0.0,0.0,0.0,0.0,0.0,0.0,0.0,0.0,0.0,0.0,0.0,0.0,0.0,0.0,0.0,0.0,0.0,0.0,0.0,0.0,0.0,0.0,0.0,0.0,0.0,0.0,0.0,0.0,0.0,0.0,0.0,0.0,0.0,0.0,0.0,0.0,0.0,0.0,0.0,0.0,0.0,0.0,0.0,0.0,0.0,0.0,0.0,0.0,0.0,0.0,0.0,0.0,0.0,0.0,0.0,0.0,0.0,0.0,0.0,0.0,0.0,0.0,0.0,0.0,0.0,0.0,0.0,0.0,0.0,0.0,0.0,0.0,0.0,0.0,0.0,0.0,0.0,0.0,0.0,0.0,0.0,0.0,0.0,0.0,0.0,0.0,0.0,0.0,0.0,0.0,0.0,0.0,0.0,0.0,0.0,0.0,0.0,0.0,0.0,0.0,0.0,0.0,0.0,0.0,0.0,0.0,0.0,0.0,0.0,0.0,0.0,0.0,0.0,0.0,0.0,0.0,0.0,0.0,0.0,0.0,0.0,0.0,0.0,0.0,0.0,0.0,0.0,0.0,0.0,0.0,0.0,0.0,0.0,0.0,0.0,0.0,0.0,0.0,0.0,0.0,0.0,0.0,0.0,0.0,0.0,0.0,0.0,0.0,0.0,0.0,0.0,0.0,0.0,0.0,0.0,0.0,0.0,0.0,0.0,0.0,0.0,0.0,0.0,0.0,0.0,0.0,0.0,0.0,0.0,0.0,0.0,0.0,0.0,0.0,0.0,0.0,0.0,0.0,0.0,0.0,0.0,0.0,0.0,0.0,0.0,0.0,0.0,0.0,0.0,0.0,0.0,0.0,0.0,0.0,0.0,0.0,0.0,0.0,0.0,0.0,0.0,0.0,0.0,0.0,0.0,0.0,0.0,0.0,0.0,0.0,0.0,0.0,0.0,0.0,0.0,0.0,0.0,0.0,0.0,0.0,0.0,0.0,0.0,0.0,0.0,0.0,0.0,0.0,0.0,0.0,0.0,0.0,0.0,0.0,0.0,0.0,0.0,0.0,0.0,0.0,0.0,0.0,0.0,0.0,0.0,0.0,0.0,0.0,0.0,0.0,0.0,0.0,0.0,0.0,0.0,0.0,0.0,0.0,0.0,0.0,0.0,0.0,0.0,0.0,0.0,0.0,0.0,0.0,0.0,0.0,0.0,0.0,0.0,0.0,0.0,0.0,0.0,0.0,0.0,0.0,0.0,0.0,0.0,0.0,0.0,0.0,0.0,0.0,0.0,0.0,0.0,0.0,0.0,0.0,0.0,0.0,0.0,0.0,0.0,0.0,0.0,0.0,0.0,0.0,0.0,0.0,0.0,0.0,0.0,0.0,0.0,0.0,0.0,0.0,0.0,0.0,0.0,0.0,0.0,0.0,0.0,0.0,0.0,0.0,0.0,0.0,0.0,0.0,0.0,0.0,0.0,0.0,0.0,0.0,0.0,0.0,0.0,0.0,0.0,0.0,0.0,0.0,0.0,0.0,0.0,0.0,0.0,0.0,0.0,0.0,0.0,0.0,0.0,0.0,0.0,0.0,0.0,0.0,0.0,0.0,0.0,0.0,0.0,0.0,0.0,0.0,0.0,0.0,0.0,0.0,0.0,0.0,0.0,0.0,0.0,0.0,0.0,0.0,0.0,0.0,0.0,0.0,0.0,0.0,0.0,0.0,0.0,0.0,0.0,0.0,0.0,0.0,0.0,0.0,0.0,0.0,0.0,0.0,0.0,0.0,0.0,0.0,0.0,0.0,0.0,0.0,0.0,0.0,0.0,0.0,0.0,0.0,0.0,0.0,0.0,0.0,0.0,0.0,0.0,0.0,0.0,0.0,0.0,0.0,0.0,0.0,0.0,0.0,0.0,0.0,0.0,0.0,0.0,0.0,0.0,0.0,0.0,0.0,0.0,0.0,0.0,0.0,0.0,0.0,0.0,0.0,0.0,0.0,0.0,0.0,0.0,0.0,0.0,0.0,0.0,0.0,0.0,0.0,0.0,0.0,0.0,0.0,0.0,0.0,0.0,0.0,0.0,0.0,0.0,0.0,0.0,0.0,0.0,0.0,0.0,0.0,0.0,0.0,0.0,0.0,0.0,0.0,0.0,0.0,0.0,0.0,0.0,0.0,0.0,0.0,0.0,0.0,0.0,0.0,0.0,0.0,0.0,0.0,0.0,0.0,0.0,0.0,0.0,0.0,0.0,0.0,0.0,0.0,0.0,0.0,0.0,0.0,0.0,0.0,0.0,0.0,0.0,0.0,0.0,0.0,0.0,0.0,0.0,0.0,0.0,0.0,0.0,0.0,0.0,0.0,0.0,0.0,0.0,0.0,0.0,0.0,0.0,0.0,0.0,0.0,0.0,0.0,0.0,0.0,0.0,0.0,0.0,0.0,0.0,0.0,0.0,0.0,0.0,0.0,0.0,0.0,0.0,0.0,0.0,0.0,0.0,0.0,0.0,0.0,0.0,0.0,0.0,0.0,0.0,0.0,0.0,0.0,0.0,0.0,0.0,0.0,0.0,0.0,0.0,0.0,0.0,0.0,0.0,0.0,0.0,0.0,0.0,0.0,0.0,0.0,0.0,0.0,0.0,0.0,0.0,0.0,0.0,0.0,0.0,0.0,0.0,0.0,0.0,0.0,0.0,0.0,0.0,0.0,0.0,0.0,0.0,0.0,0.0,0.0,0.0,0.0,0.0,0.0,0.0,0.0,0.0,0.0,0.0,0.0,0.0,0.0,0.0,0.0,0.0,0.0,0.0,0.0,0.0,0.0,0.0,0.0,0.0,0.0,0.0,0.0,0.0,0.0,0.0,0.0,0.0,0.0,0.0,0.0,0.0,0.0,0.0,0.0,0.0,0.0,0.0,0.0,0.0,0.0,0.0,0.0,0.0,0.0,0.0,0.0,0.0,0.0,0.0,0.0,0.0,0.0,0.0,0.0,0.0,0.0,0.0,0.0,0.0,0.0,0.0,0.0,0.0,0.0,0.0,0.0,0.0,0.0,0.0,0.0,0.0,0.0,0.0,0.0,0.0,0.0,0.0,0.0,0.0,0.0,0.0,0.0,0.0,0.0,0.0,0.0,0.0,0.0,0.0,0.0,0.0,0.0,0.0,0.0,0.0,0.0,0.0,0.0,0.0,0.0,0.0,0.0,0.0,0.0,0.0,0.0,0.0,0.0,0.0,0.0,0.0,0.0,0.0,0.0,0.0,0.0,0.0,0.0,0.0,0.0,0.0,0.0,0.0,0.0,0.0,0.0,0.0,0.0,0.0,0.0,0.0,0.0,0.0,0.0,0.0,0.0,0.0,0.0,0.0,0.0,0.0,0.0,0.0,0.0,0.0,-1.8576,0.0,0.0,0.0,0.0,0.0,0.0,0.0,0.0,0.0,0.0,0.0,0.0,0.0,0.0,0.0,0.0,0.0,0.0,0.0,0.0,0.0,0.0,0.0,0.0,0.0,0.0,0.0,0.0,0.0,0.0,0.0,0.0,0.0,0.0,0.0,0.0,0.0,0.0,0.0,0.0,0.0,0.0,0.0,0.0,0.0,0.0,0.0,0.0,0.0,0.0,0.0,0.0,0.0,0.0,0.0,0.0,0.0,0.0,0.0,0.0,0.0,0.0,0.0,0.0,0.0,0.0,0.0,0.0,0.0,0.0,0.0,0.0,0.0,0.0,0.0,0.0,0.0,0.0,0.0,0.0,0.0,0.0,0.0,0.0,0.0,0.0,0.0,0.0,0.0,0.0,0.0,0.0,0.0,0.0,0.0,0.0,0.0,0.0,0.0,0.0,0.0,0.0,0.0,0.0,0.0,0.0,0.0,0.0,0.0,0.0,0.0,0.0,0.0,0.0,0.0,0.0,-1.9856,0.0,0.0,0.0,0.0,0.0,0.0,0.0,0.0,0.0,0.0,0.0,0.0,0.0,0.0,0.0,0.0,0.0,0.0,0.0,0.0,0.0,0.0,0.0,0.0,0.0,0.0,0.0,0.0,0.0,0.0,0.0,0.0,0.0,0.0,0.0,0.0,0.0,0.0,0.0,0.0,0.0,0.0,0.0,0.0,0.0,0.0,0.0,0.0,0.0,0.0,0.0,0.0,0.0,0.0,0.0,0.0,0.0,0.0,0.0,0.0,0.0,0.0,0.0,0.0,0.0,0.0,0.0,0.0,0.0,0.0,0.0,0.0,0.0,0.0,0.0,0.0,0.0,0.0,0.0,0.0,0.0,0.0,0.0,0.0,0.0,0.0,0.0,0.0,0.0,0.0,0.0,0.0,0.0,0.0,0.0,0.0,0.0,0.0,0.0,0.0,0.0,0.0,0.0,0.0,0.0,0.0,0.0,0.0,-2.7783,-2.7239,-2.6202,-2.6324,-2.5941,-2.5172,-2.3902,-2.2845,-2.1976,-2.1576,0.0,0.0,0.0,0.0,0.0,0.0,0.0,0.0,0.0,0.0,0.0,0.0,0.0,0.0,0.0,0.0,0.0,0.0,0.0,0.0,0.0,0.0,0.0,0.0,0.0,0.0,0.0,0.0,0.0,0.0,0.0,0.0,0.0,0.0,0.0,0.0,0.0,0.0,-2.8126,-2.8182,-2.8237,-2.83,-2.851,0.0,0.0,0.0,0.0,0.0,0.0,0.0,0.0,0.0,0.0,0.0,0.0,0.0,0.0,0.0,0.0,0.0,0.0,0.0,0.0,0.0,0.0,0.0,0.0,0.0,0.0,0.0,0.0,0.0,0.0,0.0,0.0,0.0,0.0,0.0,0.0,0.0,0.0,0.0,0.0,0.0,0.0,0.0,-2.1151,-2.1174,0.0,0.0,0.0,0.0,0.0,0.0,0.0,0.0,0.0,0.0,0.0,0.0,0.0,-2.5212,-2.5499,-2.634,-2.6863,-2.712,-2.787,-2.8076,-2.7799,-2.7897,-2.7843,-2.7727,-2.7575,0.0,-2.3653,-2.324,0.0,0.0,0.0,0.0,0.0,0.0,0.0,0.0,0.0,0.0,0.0,0.0,0.0,0.0,0.0,0.0,0.0,0.0,0.0,0.0,0.0,0.0,0.0,0.0,0.0,0.0,0.0,0.0,0.0,0.0,0.0,0.0,0.0,0.0,0.0,0.0,-2.8601,-2.8353,-2.8219,-2.8327,-2.8414,-2.8518,-2.8662,-2.8712,-2.8687,-2.8905,0.0,0.0,0.0,0.0,0.0,0.0,0.0,0.0,0.0,0.0,0.0,0.0,0.0,0.0,0.0,0.0,0.0,0.0,0.0,0.0,0.0,0.0,0.0,0.0,0.0,0.0,0.0,0.0,0.0,0.0,0.0,0.0,0.0,0.0,0.0,0.0,0.0,0.0,0.0,-2.3637,-2.405,-2.405,-2.418,-2.436,0.0,0.0,0.0,0.0,0.0,0.0,0.0,0.0,0.0,-2.7408,-2.6989,-2.6943,-2.7306,-2.7766,-2.8076,-2.82,-2.8607,-2.8777,-2.8782,-2.8805,-2.8828,-2.8805,-2.8819,-2.8088,-2.6861,-2.6109,-2.5689,-2.5435,0.0,0.0,0.0,0.0,-2.4317,-2.4293,0.0,0.0,0.0,0.0,0.0,0.0,0.0,0.0,0.0,0.0,0.0,0.0,0.0,0.0,0.0,-2.4647,0.0,0.0,0.0,0.0,0.0,0.0,0.0,0.0,0.0,0.0,0.0,0.0,-2.8743,-2.8569,-2.8448,-2.8576,-2.8676,-2.8773,-2.8863,-2.8839,-2.8737,-2.8929,-2.9052,0.0,0.0,0.0,0.0,0.0,0.0,0.0,0.0,0.0,0.0,0.0,0.0,0.0,0.0,0.0,0.0,0.0,0.0,0.0,0.0,0.0,0.0,0.0,0.0,0.0,0.0,0.0,0.0,0.0,0.0,0.0,0.0,0.0,0.0,0.0,0.0,0.0,0.0,-2.5797,-2.649,-2.6485,-2.6478,-2.6609,0.0,0.0,0.0,0.0,0.0,0.0,-2.8688,-2.8329,-2.8276,-2.8596,-2.8424,-2.8504,-2.8883,-2.8934,-2.9089,-2.9297,-2.9357,-2.9416,-2.9494,-2.9494,-2.9494,-2.9475,-2.9397,-2.9377,-2.9316,-2.8377,-2.7942,-2.7804,-2.7397,-2.72,-2.7157,-2.665,-2.6505,-2.6505,0.0,0.0,0.0,0.0,0.0,0.0,0.0,0.0,0.0,0.0,0.0,0.0,0.0,0.0,-2.4711,-2.4528,-2.4631,-2.5086,0.0,0.0,0.0,0.0,0.0,0.0,0.0,0.0,0.0,-2.9272,-2.9075,-2.892,-2.8865,-2.8929,-2.8971,-2.8993,-2.9123,-2.9141,-2.9067,-2.9218,-2.9307,-2.9394,0.0,0.0,0.0,0.0,0.0,0.0,0.0,0.0,0.0,0.0,0.0,0.0,0.0,0.0,0.0,0.0,0.0,0.0,0.0,0.0,0.0,0.0,0.0,0.0,0.0,0.0,0.0,0.0,0.0,0.0,0.0,0.0,0.0,0.0,0.0,0.0,0.0,0.0,0.0,-2.7242,-2.7235,0.0,0.0,0.0,0.0,-2.8156,-2.8864,-2.9224,-2.899,-2.8913,-2.8778,-2.8615,-2.8814,-2.9082,-2.9353,-2.9436,-2.9588,-2.9855,-2.9855,-2.9902,-2.9962,-2.9962,-2.9962,-2.9962,-2.9886,-2.9872,-2.9803,-2.9114,-2.8842,-2.88,-2.8517,-2.8384,-2.8298,-2.7918,-2.7765,-2.7678,0.0,0.0,0.0,0.0,0.0,0.0,0.0,0.0,0.0,0.0,0.0,0.0,0.0,-2.4856,-2.4753,-2.4645,-2.518,-2.5951,-2.6908,0.0,0.0,0.0,0.0,0.0,0.0,0.0,-2.9532,-2.9414,-2.9312,-2.9249,-2.923,-2.9293,-2.9355,-2.9397,-2.9436,-2.9513,-2.9589,-2.9433,-2.9412,-2.9474,-2.968,-2.9872,0.0,0.0,0.0,0.0,0.0,0.0,0.0,0.0,0.0,0.0,0.0,0.0,0.0,0.0,0.0,0.0,0.0,0.0,0.0,0.0,0.0,0.0,0.0,0.0,0.0,0.0,0.0,0.0,0.0,0.0,0.0,0.0,0.0,0.0,0.0,0.0,0.0,-2.7531,-2.7764,0.0,-2.8021,-2.8314,-2.8586,-2.8703,-2.8993,-2.9119,-2.9089,-2.9112,-2.9167,-2.9188,-2.9277,-2.9437,-2.9717,-2.9805,-2.9905,-3.0034,-3.0064,-3.0113,-3.0123,-3.0123,-3.0123,-3.0123,-3.0094,-3.0079,-3.0064,-2.9803,-2.9551,-2.9378,-2.9169,-2.8997,-2.886,-2.8583,-2.8422,-2.8291,0.0,0.0,0.0,0.0,0.0,0.0,0.0,0.0,0.0,0.0,0.0,-2.5171,-2.5013,-2.4893,-2.4779,-2.4673,-2.5471,-2.6412,-2.7388,0.0,0.0,0.0,0.0,0.0,0.0,-2.9822,-2.9699,-2.9682,-2.9589,-2.9589,-2.9608,-2.9644,-2.9698,-2.9732,-2.9769,-2.9836,-2.9953,-2.9734,-2.9662,-2.9681,-2.9836,-2.9988,-3.0117,0.0,0.0,0.0,0.0,0.0,0.0,0.0,0.0,0.0,0.0,0.0,0.0,0.0,0.0,0.0,0.0,0.0,0.0,0.0,0.0,0.0,0.0,0.0,0.0,0.0,0.0,0.0,0.0,0.0,0.0,0.0,0.0,0.0,0.0,0.0,-2.7578,-2.7829,-2.8142,-2.8344,-2.8327,-2.8737,-2.8985,-2.9,-2.9053,-2.9122,-2.9191,-2.936,-2.951,-2.9608,-2.9662,-2.9801,-3.0003,-3.0049,-3.0109,-3.0161,-3.0207,-3.0253,-3.0272,-3.0272,-3.0272,-3.0272,-3.0253,-3.0221,-3.024,-3.0204,-3.0034,-2.9803,-2.9551,-2.9394,-2.9249,-2.898,-2.881,-2.8687,0.0,0.0,0.0,0.0,0.0,0.0,0.0,0.0,0.0,0.0,-2.5398,-2.5235,-2.5031,-2.4947,-2.4842,-2.4639,-2.5487,-2.6446,-2.7354,-2.8375,0.0,0.0,0.0,0.0,-3.0102,-2.9972,-2.994,-3.0007,-2.994,-2.9934,-3.0007,-3.0007,-3.0007,-3.0007,-3.0075,-3.0109,-3.0109,-3.0171,-3.0128,-3.0003,-3.0087,-3.0102,-3.0117,0.0,0.0,0.0,0.0,0.0,0.0,0.0,0.0,0.0,0.0,0.0,0.0,0.0,0.0,0.0,0.0,0.0,0.0,0.0,0.0,0.0,0.0,0.0,0.0,0.0,0.0,0.0,0.0,0.0,0.0,0.0,0.0,0.0,-2.8042,-2.7961,-2.7982,-2.8174,-2.8461,-2.8611,-2.8605,-2.8857,-2.8998,-2.8998,-2.9191,-2.9314,-2.9416,-2.9645,-2.9787,-2.9801,-3.0,-3.0142,-3.0199,-3.0207,-3.0228,-3.0304,-3.0304,-3.0336,-3.0398,-3.0398,-3.0398,-3.0398,-3.0336,-3.0304,-3.0304,-3.0305,-3.0226,-3.006,-2.9751,-2.9513,-2.9372,-2.9178,-2.9021,-2.8905,0.0,0.0,0.0,0.0,0.0,0.0,0.0,0.0,0.0,0.0,-2.5459,-2.5321,-2.5163,-2.5087,-2.4987,-2.4902,-2.6284,-2.7304,-2.7599,0.0,0.0,0.0,0.0,0.0,-3.018,-3.0142,-3.0128,-3.0142,-3.0128,-3.0128,-3.0157,-3.0157,-3.0152,-3.0147,-3.0161,-3.0202,-3.0254,-3.0267,-3.0254,-3.0215,-3.0174,-3.0166,-3.018,0.0,0.0,0.0,0.0,0.0,0.0,0.0,0.0,0.0,0.0,0.0,0.0,0.0,0.0,0.0,0.0,0.0,0.0,0.0,0.0,0.0,0.0,0.0,0.0,0.0,0.0,0.0,0.0,0.0,0.0,0.0,0.0,-2.8388,-2.8246,-2.8165,-2.8219,-2.8468,-2.8735,-2.8898,-2.8883,-2.8967,-2.8991,-2.9002,-2.9189,-2.9323,-2.9388,-2.9663,-2.9872,-3.0003,-3.0123,-3.0202,-3.0267,-3.0267,-3.0311,-3.0379,-3.0379,-3.0379,-3.0398,-3.0398,-3.0398,-3.0398,-3.0379,-3.0379,-3.0367,-3.0323,-3.0241,-3.0147,-2.9921,-2.9681,-2.9453,-2.9304,-2.913,-2.8952,0.0,0.0,0.0,0.0,0.0,0.0,0.0,0.0,0.0,0.0,-2.5506,-2.5393,-2.5255,-2.519,-2.513,-2.5087,-2.6689,-2.7713,-2.7735,0.0,0.0,0.0,0.0,-3.0343,-3.0234,-3.0234,-3.0266,-3.0279,-3.0305,-3.033,-3.0343,-3.0336,-3.0328,-3.0321,-3.0321,-3.0537,-3.089,-3.0543,-3.0601,-3.089,-3.0475,-3.0299,-3.0247,-3.0359,-3.039,-3.0355,-3.039,-3.0355,-3.0247,-3.018,0.0,0.0,0.0,0.0,0.0,0.0,0.0,0.0,0.0,0.0,0.0,0.0,0.0,0.0,0.0,0.0,0.0,0.0,0.0,0.0,0.0,0.0,0.0,0.0,-2.8637,-2.8721,-2.9021,-2.8673,-2.8438,-2.8522,-2.8767,-2.8937,-2.8983,-2.9049,-2.9072,-2.9076,-2.924,-2.937,-2.9491,-2.9753,-2.9953,-3.0147,-3.0207,-3.0267,-3.0348,-3.0348,-3.0367,-3.0398,-3.0398,-3.0398,-3.0398,-3.0398,-3.0398,-3.0398,-3.0398,-3.0398,-3.0398,-3.0367,-3.0286,0.0,0.0,0.0,0.0,0.0,-2.9237,-2.9108,0.0,0.0,0.0,0.0,0.0,0.0,0.0,0.0,0.0,0.0,0.0,-2.5468,-2.5329,-2.5274,-2.5231,-2.5231,-2.6825,-2.7915,0.0,0.0,0.0,-3.0409,-3.0414,-3.0379,-3.0318,-3.0316,-3.0359,-3.0414,-3.0469,-3.051,-3.0511,-3.0511,-3.051,-3.053,-3.0607,-3.1091,-3.1777,-3.1091,-3.1187,-3.1739,-3.0965,-3.0524,-3.033,-3.0398,-3.0374,-3.0305,-3.0305,-3.0253,-3.0171,-3.0053,0.0,0.0,0.0,0.0,0.0,0.0,0.0,0.0,0.0,0.0,0.0,0.0,0.0,0.0,0.0,0.0,0.0,0.0,0.0,0.0,0.0,0.0,0.0,0.0,-2.8883,-2.9217,-3.0009,-2.9497,-2.887,-2.8488,-2.8651,-2.9002,-2.954,-2.9347,-2.9259,-2.937,-2.94,-2.9453,-2.9588,0.0,0.0,0.0,0.0,-3.0336,-3.0398,-3.0398,-3.0398,-3.0398,-3.0398,-3.0398,-3.0398,-3.0398,-3.0398,-3.0398,-3.0398,-3.0398,-3.0398,-3.0398,-3.033,-3.0207,-3.0034,-2.9855,-2.9681,-2.9411,-2.9323,-2.9283,0.0,0.0,0.0,0.0,0.0,0.0,0.0,0.0,0.0,-2.5687,-2.5615,-2.555,-2.5473,-2.5453,-2.5432,-2.5448,-2.6983,-2.8558,0.0,0.0,-3.0559,-3.0481,-3.0471,-3.0471,-3.046,-3.046,-3.0491,-3.0559,-3.0577,-3.0586,-3.0585,-3.0574,-3.0574,-3.0613,-3.1319,-3.1715,-3.1928,-3.2452,-3.2374,-3.187,-3.1706,-3.1168,-3.046,-3.0488,-3.0447,-3.0364,-3.0316,-3.0273,-3.0194,-3.0098,-3.0022,-2.994,-2.9926,0.0,0.0,0.0,0.0,0.0,0.0,0.0,0.0,0.0,0.0,0.0,0.0,0.0,0.0,0.0,0.0,0.0,0.0,0.0,0.0,-2.8881,-2.9436,-2.9936,-3.0221,-3.0709,-3.0465,-2.89,-2.8772,-2.9945,-3.2906,-3.0765,-2.9584,-3.0498,-2.9789,-2.9373,-2.9512,-2.977,-2.9988,-3.0109,-3.0241,-3.0336,-3.0398,-3.0398,-3.0398,-3.0398,0.0,0.0,-3.0398,-3.0398,-3.0398,-3.0398,-3.0398,-3.0398,-3.0398,-3.0398,-3.0343,-3.0253,-2.9956,-2.9789,-2.9681,-2.9531,-2.9431,-2.9372,0.0,0.0,0.0,0.0,0.0,0.0,0.0,0.0,0.0,0.0,-2.5636,-2.5586,-2.5546,-2.5531,-2.5503,-2.555,-2.7071,0.0,0.0,-3.0602,-3.0595,-3.054,-3.0559,-3.054,-3.0549,-3.0576,-3.0621,-3.0645,-3.0642,-3.0649,-3.0656,-3.0683,-3.071,-3.0729,-3.1156,-3.1824,-3.2562,-3.2166,-3.2225,-3.2516,-3.1644,-3.1008,-3.0603,-3.0558,-3.051,-3.0439,-3.0364,-3.0323,-3.0221,-3.0142,-3.0019,-2.994,-2.9876,-2.9859,-2.9912,0.0,0.0,0.0,0.0,0.0,0.0,0.0,0.0,0.0,0.0,0.0,0.0,0.0,0.0,-2.8952,0.0,0.0,-2.9533,-2.9586,-3.0289,-3.1022,-3.1635,-3.2094,-3.1853,-3.0374,-3.059,-3.1823,-3.4311,-3.2462,-3.1328,-3.1808,-3.0695,-3.0217,-3.0728,-3.0565,-3.0736,-3.1333,-3.1451,-3.1546,-3.166,-3.166,-3.166,-3.166,-3.166,-3.166,-3.166,-3.166,-3.166,-3.166,-3.166,-3.166,-3.166,-3.1655,-3.136,-3.0938,-3.0738,-3.0349,-2.9869,-2.9753,-2.9681,-2.9645,0.0,0.0,0.0,0.0,0.0,0.0,0.0,0.0,0.0,0.0,0.0,-2.5603,-2.5593,-2.5551,-2.569,0.0,0.0,0.0,0.0,-3.0614,-3.061,-3.0593,-3.0613,-3.0629,-3.0626,-3.0664,-3.0704,-3.0711,-3.073,-3.0722,-3.0714,-3.0764,-3.0808,-3.0808,-3.0984,-3.1802,-3.2989,-3.181,-3.1999,-3.2933,-3.1544,-3.0871,-3.0701,-3.0658,-3.0604,-3.052,-3.046,-3.0375,-3.0311,-3.0207,-3.0104,-3.0034,-2.9907,-2.9891,-2.994,-2.9937,-3.0071,0.0,0.0,0.0,0.0,0.0,0.0,0.0,0.0,0.0,-2.8994,-2.8994,-2.9104,-2.9214,-2.9214,-2.9898,-3.0454,-3.0525,-3.1212,-3.2064,-3.2989,-3.3321,-3.3178,-3.235,-3.2866,-3.3721,-3.4843,-3.3801,-3.302,-3.2916,-3.1699,-3.1289,-3.1986,-3.1544,-3.167,-3.254,-3.2653,-3.2757,-3.2885,-3.2897,-3.2897,-3.2897,-3.291,-3.2891,-3.2891,-3.2891,-3.2891,-3.2891,-3.2891,-3.2891,-3.291,-3.2904,-3.2487,-3.1853,-3.1788,-3.1312,-3.0591,-3.0133,-2.9937,-2.9921,0.0,0.0,0.0,0.0,0.0,0.0,0.0,0.0,0.0,0.0,0.0,0.0,0.0,0.0,0.0,0.0,0.0,0.0,0.0,-3.0685,-3.0656,-3.0595,-3.0656,-3.069,-3.0691,-3.0698,-3.0736,-3.0794,-3.0794,-3.0798,-3.0794,-3.0794,-3.0794,-3.0833,-3.1613,-3.2065,-3.2277,-3.2859,-3.2778,-3.2212,-3.202,-3.1487,-3.0794,-3.0786,-3.0739,-3.0661,-3.0519,-3.0482,-3.0462,-3.0398,-3.0328,-3.0235,-3.0109,-3.0066,-3.008,-3.008,0.0,-3.0292,-3.0292,-3.0142,-2.9971,-2.9758,-2.9446,-2.916,0.0,0.0,-2.8994,-2.8994,-2.9586,-3.0081,-3.0081,-3.0723,-3.128,-3.1354,-3.2084,-3.276,-3.315,-3.3896,-3.4499,-3.4605,-3.4661,-3.4775,-3.504,-3.398,-3.3298,-3.3346,-3.2477,-3.2006,-3.2079,-3.2127,-3.2259,-3.2511,-3.2626,-3.2752,-3.2818,-3.2864,-3.2897,-3.2897,-3.2897,-3.2891,-3.2891,-3.2891,-3.2891,-3.2891,-3.2891,-3.2891,-3.2891,-3.291,-3.2852,-3.2756,-3.2744,-3.2673,-3.2391,-3.0748,-3.0142,-3.006,0.0,0.0,0.0,0.0,0.0,0.0,0.0,0.0,0.0,0.0,0.0,0.0,0.0,0.0,0.0,0.0,0.0,0.0,-3.0591,-3.0745,-3.0724,-3.0651,-3.0724,-3.0767,-3.075,-3.0765,-3.0778,-3.079,-3.0837,-3.0866,-3.086,-3.0852,-3.0856,-3.0875,-3.1246,-3.1676,-3.2145,-3.2008,-3.2026,-3.2104,-3.1602,-3.1178,-3.0859,-3.0819,-3.0777,-3.0751,-3.0639,-3.0618,0.0,0.0,-3.0472,-3.04,-3.0294,-3.0271,-3.0271,-3.0275,-3.0342,0.0,-3.037,-3.0209,-2.9969,-2.9662,-2.9418,-2.9479,-3.032,-3.0179,-2.9982,-3.0373,-3.0722,-3.0962,-3.0962,-3.1624,-3.2226,0.0,-3.3157,-3.3836,-3.4141,-3.4565,-3.4889,-3.51,-3.5171,-3.5196,-3.5204,-3.4696,-3.4339,-3.4339,-3.3448,-3.3144,-3.3631,-3.3241,-3.328,-3.3938,-3.4042,-3.4159,-3.4255,-3.4328,-3.4356,-3.4356,-3.4384,-3.441,-3.441,-3.441,-3.441,-3.441,-3.441,-3.441,-3.441,-3.441,-3.4103,-3.366,-3.366,-3.3353,-3.2801,-3.2064,-3.1755,-3.1728,0.0,0.0,0.0,0.0,0.0,0.0,0.0,0.0,0.0,0.0,0.0,0.0,0.0,0.0,0.0,0.0,0.0,0.0,0.0,-3.0615,-3.0745,-3.0698,-3.0767,0.0,-3.0794,-3.0807,-3.0816,-3.0823,-3.0886,-3.0907,-3.0907,-3.0897,-3.0898,-3.0898,-3.0898,-3.125,-3.1797,-3.1172,-3.1269,-3.1797,-3.1145,-3.0901,-3.0899,-3.0857,-3.0839,-3.0818,-3.0758,-3.073,0.0,0.0,-3.0603,-3.0552,-3.0498,-3.0481,-3.0472,-3.0481,-3.0513,-3.0545,-3.0453,-3.0314,-3.0114,-2.9708,-2.9514,-2.9828,-3.1446,-3.1418,-3.1184,-3.1533,-3.1787,-3.1911,-3.1911,-3.2576,-3.3228,-3.344,-3.4035,-3.4586,-3.4889,-3.4962,-3.5064,-3.5224,-3.5345,-3.5403,-3.5366,-3.5231,-3.5126,-3.5073,-3.4357,-3.4207,-3.4831,-3.4283,-3.4264,-3.4982,-3.5072,-3.5176,-3.528,-3.5339,-3.5364,-3.5364,-3.546,-3.5493,-3.5493,-3.5493,-3.5493,-3.5493,-3.5493,-3.5493,-3.5493,-3.5493,-3.5141,-3.4564,-3.4564,-3.416,-3.3622,-3.3615,-3.3313,-3.2891,0.0,0.0,0.0,0.0,0.0,0.0,0.0,0.0,0.0,0.0,0.0,0.0,0.0,0.0,0.0,0.0,0.0,0.0,0.0,-3.0231,-3.0696,-3.0698,-3.0767,-3.0793,-3.0799,-3.0799,-3.0831,-3.0898,-3.0898,-3.0898,-3.0898,-3.0898,-3.0898,-3.0898,-3.0898,-3.0918,-3.0937,-3.0918,-3.0918,-3.0937,-3.0918,-3.0898,-3.0898,-3.0909,-3.0907,-3.0897,-3.0819,0.0,0.0,0.0,-3.0759,-3.0697,-3.0697,-3.07,0.0,-3.0697,-3.0697,-3.0681,-3.054,-3.0479,-3.0394,-2.9981,-2.9794,-3.015,-3.1871,-3.2411,-3.2406,-3.1989,-3.2463,-3.2953,-3.2953,-3.3669,-3.4302,-3.4435,-3.4583,-3.4751,-3.4981,-3.5013,-3.5098,-3.5364,-3.5398,-3.5412,0.0,-3.5364,-3.527,-3.5209,-3.5122,-3.5034,-3.5001,-3.5019,-3.5056,-3.5001,-3.5129,-3.52,-3.52,-3.5273,-3.5296,-3.5296,-3.5446,-3.5493,-3.5493,-3.5493,-3.5493,-3.5493,-3.5493,-3.5493,-3.5493,-3.5493,-3.5474,-3.5468,-3.5468,-3.5449,-3.5416,-3.5416,-3.4353,-3.291,0.0,0.0,0.0,0.0,0.0,0.0,0.0,0.0,0.0,0.0,0.0,0.0,0.0,0.0,0.0,0.0,0.0,0.0,0.0,-2.9726,-3.0152,-3.0747,-3.0782,-3.0798,-3.0799,-3.0795,-3.0839,-3.0898,-3.0859,-3.0859,-3.0898,-3.0898,-3.0898,-3.0898,-3.0898,-3.0898,-3.0898,-3.0898,-3.0898,-3.0898,-3.0898,-3.0897,-3.0909,-3.0901,-3.0901,-3.0907,0.0,0.0,0.0,0.0,0.0,-3.0765,-3.0771,-3.0763,-3.0778,-3.0774,-3.0774,-3.074,-3.0651,-3.1158,-3.1445,-3.0428,-3.089,-3.2062,-3.3658,-3.3166,-3.2636,-3.34,-3.377,-3.3899,-3.3824,-3.403,-3.4323,-3.4526,-3.4642,-3.4811,-3.5076,-3.5197,-3.5315,-3.546,-3.546,0.0,0.0,0.0,0.0,-3.5335,-3.5273,-3.5209,-3.5212,-3.5143,-3.5089,-3.5072,-3.5145,-3.5198,-3.5212,-3.527,-3.5315,-3.5364,-3.546,-3.5493,-3.5493,-3.5493,-3.5493,-3.5493,-3.5493,-3.5493,-3.5493,-3.5493,-3.5493,-3.5493,-3.5493,-3.5493,-3.5493,-3.5493,-3.5141,-3.4641,0.0,0.0,0.0,0.0,0.0,0.0,0.0,0.0,0.0,0.0,0.0,0.0,0.0,0.0,0.0,0.0,0.0,0.0,0.0,0.0,-2.9707,-3.0281,-3.0591,-3.0751,-3.0756,-3.0761,-3.0796,-3.0832,-3.0786,-3.0806,-3.0855,-3.0856,-3.0857,-3.0857,-3.0857,-3.0857,-3.0857,-3.0857,-3.0857,-3.0857,-3.0857,-3.0852,-3.0858,-3.0852,-3.0869,0.0,0.0,0.0,0.0,0.0,-3.0831,-3.0845,-3.0838,-3.0813,-3.0807,-3.0801,-3.0802,-3.0842,-3.1066,-3.1689,-3.2188,-3.1693,-3.2594,-3.3872,-3.4802,-3.4105,-3.3539,-3.4472,-3.4624,-3.4548,-3.4472,-3.4453,-3.4509,-3.4691,-3.4783,-3.498,-3.5239,-3.5326,-3.5393,-3.5493,-3.5493,-3.5493,0.0,0.0,0.0,-3.5446,-3.5403,-3.5373,-3.5339,-3.5239,-3.5207,-3.5174,-3.5209,-3.5229,-3.5245,-3.5285,-3.5364,-3.5446,-3.5493,-3.5493,-3.5493,-3.5493,-3.5493,-3.5493,-3.5493,-3.5493,-3.5493,-3.5493,-3.5493,-3.5493,-3.5493,-3.5493,-3.5493,-3.5493,-3.5493,-3.5493,0.0,0.0,0.0,0.0,0.0,0.0,0.0,0.0,0.0,0.0,0.0,0.0,0.0,0.0,0.0,0.0,0.0,0.0,0.0,0.0,0.0,-2.9394,-3.0233,-3.0681,-3.0681,-3.0682,-3.0677,-3.0681,-3.0682,-3.073,-3.0794,-3.0791,-3.0799,-3.0796,-3.0796,-3.0796,-3.0796,-3.0796,-3.0796,-3.0796,-3.0796,-3.0796,-3.0796,-3.0794,0.0,0.0,0.0,0.0,0.0,0.0,-3.0894,-3.0892,-3.0892,-3.0847,-3.0794,-3.0786,-3.0784,-3.0944,-3.1689,-3.2096,-3.2574,-3.3544,-3.4674,-3.5431,-3.5159,-3.499,-3.4929,-3.4994,-3.4975,-3.4955,0.0,0.0,-3.4951,-3.4936,-3.5105,-3.5273,-3.5379,-3.5355,-3.5369,0.0,0.0,0.0,0.0,0.0,0.0,-3.5507,0.0,-3.546,-3.5412,-3.5412,-3.5369,-3.5312,-3.5285,-3.5285,-3.5312,-3.5369,-3.5446,-3.5493,-3.5493,-3.5493,-3.5493,-3.5493,-3.5493,-3.5493,-3.5493,-3.5493,-3.5493,-3.5493,-3.5493,-3.5493,-3.5493,-3.5493,-3.5493,-3.5493,-3.5507,-3.5507,0.0,0.0,0.0,0.0,0.0,0.0,0.0,0.0,0.0,0.0,0.0,0.0,0.0,0.0,0.0,0.0,0.0,0.0,0.0,0.0,0.0,0.0,0.0,0.0,0.0,0.0,0.0,0.0,0.0,-3.0545,-3.0656,-3.0658,-3.0682,-3.0735,-3.0735,-3.0755,-3.0794,-3.0794,-3.0794,-3.0794,0.0,-3.0769,-3.0725,0.0,0.0,0.0,0.0,0.0,0.0,0.0,-3.0866,-3.0829,-3.0829,-3.0789,-3.0739,-3.0736,-3.0685,-3.0824,-3.1609,-3.2309,-3.2976,-3.3635,-3.4655,-3.5161,-3.3862,-3.3569,-3.359,-3.3667,-3.4718,-3.5654,-3.5654,0.0,0.0,-3.5425,-3.5411,0.0,-3.546,-3.546,0.0,-3.5509,0.0,-3.5522,-3.5566,-3.5522,0.0,0.0,-3.5501,-3.5493,-3.5493,-3.5427,-3.5398,-3.5383,-3.5335,-3.5315,-3.5383,-3.5446,-3.5474,-3.5493,-3.5493,-3.5493,-3.5493,-3.5493,-3.5493,-3.5493,-3.5493,-3.5493,-3.5493,-3.5493,-3.5493,-3.5493,-3.5493,-3.5493,-3.5493,-3.5493,-3.5501,-3.5489,0.0,0.0,0.0,0.0,0.0,0.0,0.0,0.0,0.0,0.0,0.0,0.0,0.0,0.0,0.0,0.0,0.0,0.0,0.0,0.0,0.0,0.0,0.0,0.0,0.0,0.0,0.0,0.0,0.0,0.0,0.0,-3.0502,-3.0552,-3.0605,-3.0605,-3.0651,-3.0717,0.0,0.0,0.0,0.0,0.0,0.0,0.0,0.0,0.0,0.0,0.0,0.0,0.0,0.0,-3.0789,-3.0778,-3.0736,-3.0691,-3.071,-3.0913,-3.1335,-3.2126,-3.2943,-3.3735,-3.4379,-3.4725,-3.4674,-3.3628,-3.3053,-3.3072,-3.4168,-3.5224,-3.5939,-3.5937,-3.5872,-3.5766,0.0,0.0,0.0,-3.5495,-3.5488,-3.5501,0.0,-3.5515,0.0,-3.5591,-3.5547,-3.5515,0.0,-3.5501,-3.5493,-3.5493,-3.546,-3.5427,-3.5427,-3.5412,-3.5412,-3.5446,-3.5474,-3.5493,-3.5493,-3.5493,-3.5493,-3.5493,-3.5493,-3.5493,-3.5493,0.0,-3.5493,-3.5493,-3.5493,-3.5493,-3.5507,-3.5501,-3.5495,-3.5495,-3.5522,-3.5528,-3.5553,0.0,0.0,0.0,0.0,0.0,0.0,0.0,0.0,0.0,0.0,0.0,0.0,0.0,0.0,0.0,0.0,0.0,0.0,0.0,0.0,0.0,0.0,0.0,0.0,0.0,0.0,0.0,0.0,0.0,0.0,0.0,0.0,0.0,0.0,0.0,0.0,0.0,0.0,0.0,0.0,0.0,0.0,0.0,0.0,0.0,0.0,0.0,0.0,0.0,0.0,-3.0786,-3.0798,-3.0724,-3.0691,-3.0704,-3.0707,-3.1188,-3.1902,-3.2772,-3.3558,-3.4333,-3.5136,-3.4764,-3.4108,-3.3712,-3.3006,-3.2992,-3.4967,-3.5528,-3.569,-3.5816,-3.5774,-3.5728,-3.5704,0.0,-3.5512,-3.5509,-3.5509,-3.5515,-3.5515,-3.5509,-3.554,-3.5616,-3.554,-3.5509,-3.5509,-3.5515,-3.5493,-3.5493,-3.5493,-3.5493,-3.5493,-3.5493,-3.5493,-3.5493,-3.5493,-3.5493,-3.5493,-3.5493,-3.5493,-3.5493,-3.5493,-3.5493,-3.5493,-3.5493,-3.5493,-3.5493,-3.5493,-3.5493,-3.5507,-3.5489,-3.5515,-3.5528,-3.5589,-3.5612,-3.5615,0.0,0.0,0.0,0.0,0.0,0.0,0.0,0.0,0.0,0.0,-2.5085,0.0,0.0,0.0,0.0,0.0,0.0,0.0,0.0,0.0,0.0,0.0,0.0,0.0,0.0,0.0,0.0,0.0,0.0,0.0,0.0,0.0,0.0,0.0,0.0,0.0,0.0,0.0,0.0,0.0,0.0,0.0,0.0,0.0,0.0,0.0,0.0,0.0,0.0,0.0,-3.0758,-3.0789,-3.073,-3.0697,-3.0707,-3.07,-3.0757,-3.1139,-3.2607,-3.3103,-3.3422,-3.4212,-3.4359,-3.3898,-3.2492,-3.2667,0.0,-3.2732,-3.3297,-3.4077,-3.4784,-3.4878,-3.5042,-3.5682,-3.5727,-3.5646,-3.5584,-3.5579,-3.5572,0.0,-3.5574,-3.5607,-3.5679,-3.5615,0.0,0.0,-3.5541,-3.5493,-3.5493,-3.5493,-3.5493,-3.5493,-3.5493,-3.5493,-3.5493,-3.5493,-3.5493,-3.5493,-3.5493,-3.5493,-3.5493,-3.5493,-3.5493,-3.5493,-3.5493,0.0,-3.5493,-3.5493,-3.5493,-3.5507,-3.5489,-3.5528,-3.5572,-3.5604,-3.5639,-3.5679,0.0,0.0,0.0,0.0,0.0,0.0,0.0,0.0,0.0,-2.2901,-2.4097,-2.5014,0.0,0.0,0.0,0.0,0.0,0.0,0.0,0.0,0.0,0.0,0.0,0.0,0.0,0.0,0.0,0.0,0.0,0.0,0.0,0.0,0.0,0.0,0.0,0.0,0.0,0.0,0.0,0.0,0.0,0.0,0.0,0.0,0.0,0.0,0.0,0.0,0.0,0.0,-3.0739,-3.0794,-3.0722,-3.0697,-3.071,-3.0703,-3.0964,-3.1435,-3.2174,-3.2714,-3.3134,-3.3499,-3.3277,-3.2782,-3.1981,0.0,0.0,-3.2032,-3.2411,-3.2989,-3.3851,-3.4371,-3.478,-3.5118,-3.5504,-3.5718,-3.5665,-3.562,-3.5589,-3.5604,-3.5596,-3.5629,-3.5679,-3.5637,-3.5601,-3.5601,-3.5541,-3.5493,-3.5493,-3.5493,-3.5493,-3.5493,-3.5493,-3.5493,-3.5493,-3.5493,-3.5493,-3.5493,-3.5493,-3.5493,-3.5493,-3.5493,-3.5493,-3.5493,-3.5493,0.0,-3.5507,-3.5501,-3.5495,-3.5509,-3.5577,-3.5623,-3.5657,-3.5728,-3.5784,-3.5815,0.0,0.0,0.0,0.0,0.0,0.0,0.0,-2.1133,-2.1598,-2.1788,-2.2957,-2.4159,-2.515,-2.5364,-2.5423,0.0,0.0,0.0,0.0,0.0,0.0,0.0,0.0,0.0,0.0,0.0,0.0,0.0,0.0,0.0,0.0,0.0,0.0,0.0,0.0,0.0,0.0,0.0,0.0,0.0,0.0,0.0,0.0,0.0,0.0,0.0,0.0,0.0,0.0,0.0,-3.073,-3.0762,-3.072,-3.0709,-3.0716,-3.0724,-3.1158,-3.1681,-3.182,-3.2338,-3.2831,-3.2767,-3.2289,-3.1787,-3.1601,-3.1122,-3.0936,-3.167,-3.1825,-3.21,-3.2965,-3.384,-3.4471,0.0,-3.5295,-3.5799,-3.5728,-3.5678,-3.5646,-3.5629,-3.5629,0.0,-3.5708,-3.5648,0.0,-3.5601,-3.5541,-3.5493,-3.5493,-3.5493,-3.5493,-3.5493,-3.5493,-3.5493,-3.5493,-3.5493,-3.5493,-3.5493,-3.5493,-3.5493,-3.5493,-3.5493,-3.5493,-3.5493,-3.5493,0.0,0.0,-3.5522,-3.5528,-3.5534,-3.5648,-3.5708,-3.5736,-3.5857,-3.5916,-3.5911,0.0,0.0,0.0,0.0,0.0,0.0,0.0,-2.0618,-2.0976,-2.1695,-2.194,-2.2667,-2.4319,-2.5082,-2.5464,0.0,0.0,0.0,0.0,0.0,0.0,0.0,0.0,0.0,0.0,0.0,0.0,-2.9098,-2.9836,0.0,0.0,0.0,0.0,0.0,0.0,0.0,0.0,0.0,0.0,0.0,0.0,0.0,0.0,0.0,0.0,0.0,0.0,0.0,0.0,0.0,0.0,-3.0726,-3.0762,-3.0786,-3.079,-3.0782,-3.0789,-3.0983,-3.1773,-3.2,-3.1988,-3.1922,-3.1891,-3.1701,-3.0969,0.0,-3.0823,-3.0905,-3.0971,-3.1269,-3.207,-3.293,-3.3787,-3.4569,0.0,-3.5879,-3.5799,-3.5784,-3.5766,-3.5699,0.0,0.0,-3.5794,-3.5669,-3.5596,-3.5601,-3.5541,-3.5493,-3.5493,-3.5493,-3.5493,-3.5493,-3.5493,-3.5493,-3.5493,-3.5493,-3.5493,-3.5493,-3.5493,-3.5493,-3.5493,-3.5493,-3.5493,-3.5493,-3.5493,0.0,0.0,-3.5579,-3.5589,-3.5607,-3.567,-3.5743,-3.5791,-3.5859,-3.5936,-3.5992,0.0,0.0,0.0,0.0,0.0,0.0,0.0,-2.0521,-2.0653,-2.0975,-2.1464,-2.2257,-2.3471,-2.4358,-2.5007,0.0,0.0,0.0,0.0,0.0,0.0,0.0,0.0,0.0,0.0,0.0,0.0,-2.9075,-2.9378,0.0,0.0,0.0,0.0,0.0,0.0,-3.0379,0.0,0.0,0.0,0.0,0.0,0.0,0.0,0.0,0.0,0.0,0.0,0.0,-3.054,0.0,0.0,0.0,-3.0712,-3.0767,0.0,0.0,-3.0781,-3.0845,-3.1188,-3.1234,-3.1164,-3.1134,-3.1156,-3.1093,-3.0769,-3.0748,-3.0804,-3.0794,-3.0855,-3.0996,-3.1328,-3.2051,-3.289,-3.3786,0.0,0.0,-3.58,-3.5833,-3.5784,-3.5757,-3.5779,0.0,0.0,0.0,-3.5574,-3.5534,-3.552,-3.5493,-3.5493,-3.5493,-3.5493,-3.5493,-3.5493,-3.5493,-3.5493,-3.5493,-3.5493,-3.5493,-3.5493,-3.5493,-3.5493,-3.5493,-3.5493,-3.5507,-3.5495,0.0,0.0,-3.5631,-3.5648,-3.567,-3.5771,-3.5845,-3.5866,-3.5936,-3.5986,-3.6009,0.0,0.0,0.0,0.0,0.0,0.0,-2.0452,-2.0487,-2.0492,-2.0508,-2.1031,-2.1758,-2.2612,-2.3499,-2.4336,-2.5104,0.0,0.0,0.0,0.0,0.0,0.0,0.0,0.0,0.0,0.0,0.0,-2.8385,-2.8905,-2.9473,0.0,0.0,-3.0436,-3.0436,0.0,0.0,0.0,0.0,0.0,0.0,0.0,0.0,0.0,0.0,0.0,0.0,0.0,0.0,0.0,0.0,0.0,0.0,0.0,0.0,0.0,0.0,-3.0793,-3.0804,-3.081,-3.0771,-3.0726,-3.0728,-3.0728,-3.0739,-3.0734,-3.0769,-3.0813,-3.0833,-3.0874,-3.0898,-3.0898,-3.1562,-3.2402,0.0,0.0,-3.4981,-3.5814,-3.586,-3.5833,-3.5833,0.0,-3.5826,0.0,-3.5669,-3.5577,-3.5507,-3.5493,-3.5493,-3.5493,-3.5493,-3.5493,-3.5493,-3.5493,-3.5493,-3.5493,-3.5493,-3.5493,-3.5493,-3.5493,-3.5493,-3.5493,-3.5493,-3.5507,-3.5501,-3.5522,0.0,0.0,-3.5688,-3.5747,-3.5771,-3.5872,-3.5922,-3.5934,-3.5986,-3.6003,-3.5995,0.0,0.0,0.0,0.0,0.0,0.0,0.0,-2.0458,-2.0508,-2.0509,-2.0508,-2.0851,-2.1716,-2.2596,-2.3468,-2.4347,0.0,0.0,0.0,0.0,0.0,0.0,0.0,0.0,0.0,0.0,0.0,0.0,0.0,-2.9312,-2.9331,-3.0124,-3.0501,-3.0501,0.0,0.0,0.0,0.0,0.0,0.0,0.0,0.0,0.0,0.0,0.0,0.0,0.0,0.0,0.0,0.0,0.0,0.0,0.0,0.0,0.0,0.0,-3.0798,-3.0797,-3.0793,-3.0799,-3.0798,-3.0798,-3.0804,-3.0806,-3.0794,-3.0799,-3.0813,-3.0891,-3.0894,-3.0898,-3.0898,-3.1601,-3.2461,-3.3262,-3.4121,0.0,-3.5879,-3.5942,-3.5903,0.0,0.0,-3.5877,-3.5812,-3.5684,-3.5566,-3.5507,-3.5493,0.0,-3.5493,-3.5493,-3.5493,-3.5493,-3.5493,-3.5493,-3.5493,-3.5493,-3.5493,-3.5493,-3.5493,-3.5493,-3.5493,-3.5493,-3.5501,-3.5496,0.0,0.0,0.0,-3.5765,-3.5834,-3.591,-3.5972,-3.599,-3.5996,-3.5995,-3.5995,-3.6007,0.0,0.0,0.0,0.0,0.0,0.0,0.0,-2.039,-2.0434,-2.0422,-2.0477,-2.0831,-2.1704,-2.2575,-2.3457,-2.4316,0.0,0.0,0.0,0.0,0.0,0.0,0.0,0.0,0.0,0.0,0.0,0.0,0.0,0.0,0.0,-2.955,-3.0004,-3.0565,-3.0576,0.0,0.0,0.0,0.0,0.0,0.0,0.0,0.0,0.0,0.0,0.0,0.0,0.0,0.0,0.0,0.0,0.0,0.0,0.0,0.0,0.0,0.0,0.0,-3.0859,-3.0877,-3.0855,-3.081,-3.0827,-3.0866,-3.0806,-3.0849,-3.0871,-3.0891,-3.0897,-3.0898,-3.0898,-3.1133,-3.1777,-3.3164,-3.3632,0.0,0.0,0.0,0.0,-3.5908,-3.5864,-3.5793,0.0,0.0,-3.5566,-3.5507,-3.5493,-3.5493,-3.5493,-3.5493,-3.5493,-3.5493,-3.5493,-3.5493,-3.5493,-3.5493,-3.5493,-3.5493,-3.5493,-3.5493,-3.5507,-3.5495,-3.5534,0.0,0.0,0.0,0.0,-3.5834,-3.5905,-3.5972,-3.5992,-3.6001,-3.5995,-3.5996,-3.5997,-3.5994,0.0,0.0,0.0,0.0,0.0,0.0,0.0,-2.0327,-2.0372,-2.041,-2.0433,-2.0678,-2.1249,-2.2088,-2.2956,-2.3838,0.0,0.0,0.0,0.0,0.0,0.0,0.0,0.0,0.0,0.0,0.0,0.0,0.0,0.0,0.0,0.0,0.0,-3.0192,-3.051,0.0,0.0,0.0,0.0,0.0,0.0,0.0,-3.0672,0.0,0.0,0.0,0.0,0.0,0.0,0.0,0.0,0.0,0.0,0.0,0.0,0.0,-3.0706,-3.0788,0.0,-3.0879,-3.0898,-3.0859,-3.0878,-3.0896,-3.0859,-3.0878,-3.0897,-3.0898,-3.0898,-3.0898,-3.0898,-3.0898,-3.1445,-3.3122,-3.339,-3.4007,0.0,0.0,0.0,-3.5879,0.0,0.0,0.0,-3.5577,-3.5534,-3.5507,-3.5493,-3.5493,-3.5493,-3.5493,-3.5493,-3.5493,-3.5493,-3.5493,-3.5493,-3.5493,-3.5493,-3.5493,-3.5493,-3.5493,-3.5507,-3.5509,-3.554,0.0,0.0,0.0,0.0,-3.5905,-3.5958,-3.6001,-3.6001,-3.6009,-3.5991,-3.6005,-3.5972,-3.5961,0.0,0.0,0.0,0.0,0.0,0.0,0.0,0.0,0.0,0.0,-2.0394,-2.043,-2.0488,-2.1269,-2.2146,0.0,0.0,0.0,0.0,0.0,0.0,0.0,0.0,0.0,0.0,0.0,0.0,-2.5697,-2.6445,-2.6852,-2.693,0.0,0.0,0.0,0.0,0.0,0.0,0.0,0.0,0.0,0.0,0.0,0.0,0.0,0.0,0.0,0.0,0.0,0.0,0.0,0.0,0.0,0.0,0.0,0.0,0.0,0.0,0.0,0.0,-3.0857,-3.0898,-3.0905,-3.0899,-3.0897,-3.0899,-3.0899,0.0,-3.0899,-3.0894,-3.0898,-3.0898,-3.0898,-3.1443,-3.3124,-3.3392,-3.4007,0.0,-3.5922,0.0,0.0,-3.5728,0.0,-3.5601,-3.554,-3.5489,-3.5507,-3.5493,-3.5493,-3.5493,-3.5493,-3.5493,-3.5493,-3.5493,-3.5493,-3.5493,-3.5493,-3.5493,-3.5493,-3.5493,-3.5507,-3.5507,-3.5489,-3.5526,0.0,0.0,0.0,0.0,-3.5972,-3.6004,-3.5993,-3.5996,-3.6009,-3.5988,-3.5981,-3.5955,-3.5877,0.0,0.0,0.0,0.0,0.0,0.0,0.0,0.0,0.0,0.0,-2.036,-2.041,-2.0413,-2.1197,-2.2075,0.0,0.0,0.0,0.0,0.0,0.0,0.0,0.0,0.0,0.0,0.0,0.0,-2.5696,-2.5888,-2.6326,-2.6992,-2.74,0.0,0.0,0.0,0.0,0.0,0.0,0.0,0.0,0.0,0.0,0.0,0.0,0.0,0.0,-3.0782,-3.0739,0.0,0.0,0.0,0.0,0.0,0.0,0.0,0.0,-3.0563,-3.0651,-3.0769,0.0,-3.0837,-3.0892,-3.0862,-3.0833,0.0,0.0,0.0,0.0,0.0,0.0,0.0,-3.0894,-3.1448,-3.3119,-3.3392,-3.3984,-3.5683,-3.583,0.0,-3.5718,-3.5667,-3.5612,-3.5596,-3.5528,-3.5489,-3.5507,-3.5493,-3.5493,-3.5493,-3.5493,-3.5493,-3.5493,-3.5493,-3.5493,-3.5493,-3.5493,-3.5493,-3.5493,-3.5493,-3.5501,-3.5489,-3.5553,-3.5607,0.0,0.0,0.0,-3.5977,-3.5992,-3.6004,-3.5996,-3.601,-3.5977,-3.5924,-3.5924,-3.5857,-3.5735,0.0,0.0,0.0,0.0,0.0,0.0,0.0,0.0,0.0,0.0,0.0,0.0,0.0,0.0,0.0,0.0,0.0,0.0,0.0,0.0,0.0,0.0,0.0,0.0,0.0,0.0,0.0,0.0,0.0,-2.5931,0.0,0.0,0.0,0.0,0.0,0.0,0.0,0.0,0.0,0.0,-3.085,0.0,0.0,0.0,0.0,0.0,-3.0791,-3.075,0.0,-3.0618,-3.0559,-3.0488,0.0,0.0,0.0,0.0,-3.054,-3.0582,-3.0724,-3.0786,-3.0806,-3.0845,-3.0838,-3.081,-3.0858,0.0,0.0,0.0,0.0,0.0,0.0,-3.0905,-3.1441,-3.3138,-3.3406,-3.396,0.0,0.0,-3.5658,-3.5654,-3.5589,-3.5553,0.0,-3.5522,-3.5501,-3.5507,-3.5493,-3.5493,-3.5493,-3.5493,-3.5493,-3.5493,-3.5493,-3.5493,-3.5493,-3.5493,-3.5488,-3.5495,-3.5495,-3.5522,-3.5553,-3.5612,-3.5689,0.0,0.0,0.0,-3.5994,-3.6004,-3.5992,-3.6009,-3.5981,-3.5903,-3.5846,-3.5811,-3.5735,-3.565,0.0,0.0,0.0,0.0,0.0,0.0,0.0,0.0,0.0,0.0,0.0,0.0,0.0,0.0,0.0,0.0,0.0,0.0,0.0,0.0,0.0,0.0,0.0,0.0,0.0,0.0,0.0,0.0,0.0,0.0,0.0,0.0,-2.6805,0.0,0.0,0.0,0.0,0.0,0.0,0.0,-3.0644,0.0,0.0,0.0,0.0,0.0,0.0,0.0,0.0,-3.0614,-3.0568,-3.0488,-3.0421,0.0,0.0,0.0,0.0,0.0,-3.0642,-3.0734,-3.0774,-3.0785,-3.0807,-3.081,-3.0819,0.0,0.0,0.0,0.0,0.0,0.0,-3.0899,0.0,0.0,0.0,0.0,-3.5512,-3.562,-3.5581,-3.5591,-3.5534,0.0,-3.5502,-3.5501,-3.5493,-3.5493,-3.5493,-3.5493,-3.5493,-3.5493,-3.5493,-3.5493,-3.5493,-3.5507,-3.5488,-3.5488,-3.5515,-3.5515,-3.5528,-3.5546,-3.5615,-3.5688,-3.5745,-3.5833,0.0,0.0,-3.5994,-3.5995,-3.6009,-3.5981,-3.5924,-3.5846,-3.5779,-3.5715,-3.564,-3.5585,0.0,0.0,0.0,0.0,0.0,0.0,0.0,0.0,0.0,0.0,0.0,0.0,0.0,0.0,0.0,0.0,0.0,0.0,0.0,0.0,0.0,0.0,0.0,0.0,0.0,0.0,0.0,0.0,0.0,0.0,-2.5625,-2.5732,-2.6193,-2.6958,0.0,-2.8578,-2.8699,-2.8691,-2.869,-2.876,-2.9498,0.0,0.0,0.0,0.0,0.0,0.0,0.0,0.0,-3.0614,-3.0568,-3.0488,-3.0421,0.0,0.0,0.0,0.0,0.0,-3.0585,-3.063,-3.0659,-3.0767,-3.0801,-3.0804,-3.0877,0.0,0.0,0.0,0.0,0.0,0.0,-3.0899,-3.1443,0.0,0.0,-3.548,0.0,0.0,-3.5515,-3.552,0.0,-3.5488,-3.5488,-3.5507,-3.5493,-3.5493,-3.5493,-3.5493,-3.5493,-3.5493,-3.5493,-3.5493,-3.5493,-3.5501,-3.5502,-3.5502,-3.5534,-3.5572,-3.5581,-3.5609,-3.5679,-3.5752,-3.5833,-3.5897,0.0,-3.5997,-3.5996,-3.5993,-3.6001,-3.5997,-3.5936,-3.5826,-3.5715,-3.5699,-3.5615,-3.5496,0.0,0.0,0.0,0.0,0.0,0.0,0.0,0.0,0.0,0.0,0.0,0.0,0.0,0.0,0.0,0.0,0.0,0.0,0.0,0.0,0.0,0.0,0.0,0.0,0.0,0.0,0.0,0.0,0.0,-2.556,-2.5604,-2.559,-2.6072,-2.6924,0.0,-2.7822,-2.8303,-2.8295,-2.8294,-2.8323,0.0,0.0,0.0,0.0,0.0,0.0,0.0,0.0,0.0,0.0,-3.0568,-3.0488,-3.0421,0.0,0.0,0.0,0.0,0.0,-3.052,-3.0574,-3.063,-3.0769,-3.0802,-3.0817,-3.0875,-3.0886,0.0,0.0,0.0,0.0,0.0,0.0,-3.139,-3.3069,0.0,-3.5718,-3.5657,-3.5565,-3.5489,0.0,0.0,-3.5493,-3.5493,-3.5493,-3.5493,-3.5493,-3.5493,-3.5493,-3.5493,-3.5493,-3.5493,-3.5493,-3.5501,-3.5522,-3.556,-3.5589,-3.5612,-3.5654,-3.5649,-3.5718,-3.5801,-3.5838,-3.5898,-3.5967,0.0,-3.5997,-3.5996,-3.5992,-3.597,-3.5942,-3.5878,-3.5791,-3.5689,-3.5631,-3.5547,-3.5482,0.0,0.0,0.0,0.0,0.0,0.0,0.0,0.0,0.0,0.0,0.0,0.0,0.0,0.0,0.0,0.0,0.0,0.0,0.0,0.0,0.0,0.0,0.0,0.0,0.0,0.0,-2.5492,-2.5499,-2.5506,-2.5531,-2.5576,-2.5576,-2.5937,0.0,0.0,-2.7,-2.7691,-2.7682,-2.7682,-2.7713,0.0,0.0,0.0,0.0,0.0,0.0,0.0,0.0,0.0,0.0,0.0,0.0,0.0,0.0,0.0,-3.0398,-3.041,-3.0406,-3.0472,-3.0565,-3.0642,-3.0775,0.0,-3.0817,-3.0882,-3.0897,0.0,0.0,0.0,0.0,0.0,-3.1155,0.0,-3.3349,-3.4764,-3.5669,-3.5612,-3.554,-3.5495,-3.5507,-3.5493,-3.5493,-3.5493,-3.5493,-3.5493,-3.5493,-3.5493,-3.5507,-3.5501,-3.5501,-3.5501,-3.5534,-3.5522,-3.556,-3.5628,-3.5667,-3.5708,-3.5718,-3.5745,-3.5799,-3.5916,-3.5924,-3.5953,-3.6007,-3.6007,-3.5997,-3.5992,-3.6007,-3.5966,-3.5891,-3.5823,-3.5737,-3.5635,-3.5541,-3.5493,-3.5493,0.0,0.0,0.0,0.0,0.0,0.0,0.0,0.0,0.0,0.0,0.0,0.0,0.0,0.0,0.0,0.0,0.0,0.0,0.0,0.0,0.0,0.0,0.0,0.0,0.0,-2.5492,-2.5499,-2.5499,-2.5499,-2.5499,-2.5499,-2.5515,-2.5543,-2.5602,0.0,-2.5766,-2.5882,-2.5893,-2.5898,-2.5966,-2.6776,0.0,0.0,0.0,0.0,0.0,0.0,0.0,0.0,0.0,0.0,0.0,0.0,0.0,-3.0398,-3.0398,-3.0402,-3.0409,-3.0482,-3.0591,-3.0717,-3.0775,-3.0799,0.0,-3.0877,-3.0859,0.0,-3.081,0.0,0.0,0.0,-3.206,-3.3398,-3.4282,-3.5135,-3.5667,-3.5612,0.0,-3.5507,-3.5507,-3.5493,-3.5493,-3.5493,-3.5493,-3.5493,-3.5493,-3.5493,-3.5501,-3.5502,-3.5502,-3.5534,-3.5591,-3.5591,-3.562,-3.5697,-3.5689,-3.5726,-3.5791,-3.5862,-3.5911,-3.5987,-3.5997,-3.6007,-3.6007,-3.6007,-3.5993,-3.5999,-3.5994,-3.5958,-3.5884,-3.5826,-3.5679,-3.5515,-3.5501,-3.5493,-3.5474,0.0,0.0,0.0,0.0,0.0,0.0,0.0,0.0,0.0,0.0,0.0,0.0,0.0,0.0,0.0,0.0,0.0,0.0,0.0,0.0,0.0,0.0,0.0,-2.5322,-2.536,-2.5388,-2.5397,-2.5434,-2.5443,-2.544,-2.5429,-2.5472,0.0,0.0,0.0,-2.5574,-2.5649,-2.5648,-2.5662,-2.5723,-2.6052,-2.6199,0.0,0.0,0.0,0.0,0.0,0.0,0.0,0.0,-3.0076,-3.0428,0.0,0.0,-3.041,0.0,-3.0436,-3.049,-3.0539,-3.0637,-3.0717,-3.0774,-3.0791,0.0,0.0,-3.0858,-3.0798,-3.0794,-3.0774,0.0,0.0,0.0,-3.3556,-3.432,-3.5097,-3.5612,-3.5553,-3.5528,-3.5493,-3.5493,-3.5501,-3.5509,-3.5509,-3.5541,-3.5541,-3.5509,-3.5541,-3.5566,-3.556,-3.5553,-3.557,-3.5593,-3.5646,-3.5698,-3.5756,-3.5799,-3.5864,-3.5911,-3.5942,-3.5986,-3.5997,-3.5997,-3.6001,-3.5993,-3.5996,-3.6003,-3.5997,-3.5958,-3.5917,-3.5885,-3.5718,-3.5601,-3.5501,-3.5507,-3.5493,-3.5493,0.0,0.0,0.0,0.0,0.0,0.0,0.0,0.0,0.0,0.0,0.0,0.0,0.0,0.0,0.0,0.0,0.0,0.0,0.0,0.0,0.0,0.0,0.0,-2.5303,-2.5303,-2.5303,-2.5322,-2.5361,-2.5379,-2.5378,-2.5404,0.0,0.0,0.0,0.0,0.0,-2.5599,-2.56,-2.5648,-2.5704,-2.5705,-2.5697,0.0,0.0,0.0,0.0,0.0,0.0,0.0,0.0,-2.9776,0.0,0.0,0.0,0.0,0.0,0.0,-3.055,-3.0604,-3.0676,-3.0734,0.0,0.0,0.0,-3.086,-3.0825,-3.0799,-3.0774,-3.073,-3.1041,-3.2147,0.0,0.0,0.0,-3.5248,-3.5589,-3.554,-3.5522,-3.5528,-3.5528,-3.5528,-3.5521,-3.5534,-3.5577,-3.5577,-3.5534,-3.5577,-3.562,-3.5631,-3.5626,-3.5639,-3.565,-3.5717,-3.576,-3.5838,-3.5878,-3.5936,-3.6009,-3.6009,-3.6001,-3.5992,-3.5994,-3.5994,-3.5993,-3.5991,-3.6001,-3.5997,-3.5936,-3.5864,-3.5785,-3.5623,-3.5547,-3.5493,-3.5493,-3.5493,-3.5474,0.0,0.0,0.0,0.0,0.0,0.0,0.0,0.0,0.0,0.0,0.0,0.0,0.0,0.0,0.0,0.0,0.0,0.0,0.0,0.0,0.0,0.0,0.0,-2.5284,-2.5303,-2.5303,-2.5303,-2.5303,-2.5303,-2.5322,-2.5398,-2.5398,0.0,0.0,0.0,0.0,0.0,-2.561,-2.5644,-2.5693,-2.5694,-2.5702,-2.5703,0.0,0.0,0.0,0.0,0.0,0.0,0.0,-2.9725,-3.0406,0.0,0.0,0.0,0.0,-3.0559,-3.0621,-3.0679,-3.0748,-3.0794,0.0,0.0,0.0,-3.0798,-3.0804,-3.0778,-3.0706,-3.071,-3.12,-3.2812,-3.317,0.0,-3.5347,-3.5604,-3.5601,-3.5601,-3.5596,-3.5596,-3.5601,-3.5601,-3.5593,-3.5607,-3.5588,-3.5588,-3.5607,-3.5588,-3.5639,-3.5708,-3.5688,-3.5724,-3.5791,-3.5794,-3.584,-3.5908,-3.5908,-3.5934,-3.5991,-3.5991,-3.5994,-3.5994,-3.5994,-3.5993,-3.5991,-3.5992,-3.5997,-3.5987,-3.5931,-3.5773,-3.5596,-3.5534,-3.5495,-3.5493,-3.5493,-3.5493,-3.5493,0.0,0.0,0.0,0.0,0.0,0.0,0.0,0.0,0.0,0.0,0.0,0.0,0.0,0.0,0.0,0.0,0.0,0.0,0.0,0.0,0.0,0.0,0.0,0.0,0.0,0.0,-2.5303,-2.5303,-2.5303,-2.5322,0.0,0.0,0.0,-2.5401,0.0,0.0,-2.5601,-2.559,-2.5643,-2.5694,-2.5703,-2.5699,-2.5703,0.0,0.0,0.0,0.0,0.0,0.0,0.0,0.0,0.0,0.0,0.0,0.0,-3.055,-3.0618,-3.0678,-3.0689,-3.0758,0.0,-3.0801,0.0,0.0,0.0,-3.0728,0.0,0.0,-3.1115,-3.1883,-3.2976,-3.3692,0.0,-3.5494,-3.5667,-3.5667,-3.5667,-3.5676,-3.5667,-3.5669,-3.5708,-3.5747,-3.5736,-3.5752,-3.5732,-3.5736,-3.5732,-3.5749,-3.5768,-3.5815,-3.5857,-3.5866,-3.5866,-3.5903,-3.5967,-3.5967,-3.5973,-3.5991,-3.5991,-3.6003,-3.5994,-3.5992,-3.6001,-3.5991,-3.5992,-3.5961,-3.5911,-3.581,-3.5707,-3.5577,-3.5528,-3.5495,-3.5493,-3.5493,-3.5493,-3.5493,0.0,0.0,0.0,0.0,0.0,0.0,0.0,0.0,0.0,0.0,0.0,0.0,0.0,0.0,0.0,0.0,0.0,0.0,0.0,0.0,0.0,0.0,0.0,0.0,0.0,-2.5303,-2.5303,0.0,0.0,0.0,0.0,0.0,0.0,-2.5395,0.0,-2.5498,0.0,-2.559,-2.5648,-2.5704,-2.5701,-2.57,-2.5739,0.0,0.0,0.0,0.0,0.0,0.0,0.0,0.0,0.0,0.0,0.0,0.0,-3.0585,-3.0646,-3.0711,-3.0732,-3.0778,0.0,-3.0804,-3.0786,-3.0739,-3.0678,0.0,0.0,0.0,-3.1243,-3.2133,-3.3006,-3.3867,0.0,-3.5601,-3.5737,-3.5737,-3.5745,-3.5745,-3.5745,-3.5773,-3.5818,-3.5842,-3.5845,-3.5846,-3.5833,-3.5845,-3.584,-3.5846,-3.5846,-3.5911,-3.595,-3.5943,-3.5942,-3.5955,-3.5994,-3.6001,-3.599,-3.5994,-3.6003,-3.5995,-3.5992,-3.6001,-3.5991,-3.601,-3.5933,-3.5878,-3.5807,-3.5698,-3.562,-3.556,-3.5522,-3.5501,-3.5493,-3.5493,-3.5493,-3.5493,0.0,0.0,0.0,0.0,0.0,0.0,0.0,0.0,0.0,0.0,0.0,0.0,0.0,0.0,0.0,0.0,0.0,0.0,0.0,0.0,0.0,0.0,0.0,0.0,0.0,0.0,0.0,0.0,0.0,0.0,0.0,0.0,-2.5341,-2.5407,0.0,-2.5459,-2.551,-2.5586,-2.5691,-2.5826,-2.5829,-2.5879,-2.6015,-2.6813,0.0,0.0,0.0,0.0,0.0,0.0,0.0,0.0,-3.0509,-3.054,-3.0597,-3.0607,-3.0656,-3.0713,-3.0779,-3.0793,0.0,-3.0789,-3.0759,0.0,-3.0613,-3.0586,-3.0597,-3.0608,0.0,-3.2193,-3.3073,-3.3944,-3.4824,-3.5663,-3.5807,-3.5803,-3.5801,-3.5807,-3.5827,-3.5898,-3.5917,-3.5918,-3.5914,-3.5919,-3.5899,-3.5899,-3.5917,-3.5911,-3.5914,-3.5977,-3.5997,-3.5991,-3.6007,-3.5992,-3.5992,-3.6003,-3.5996,-3.5996,-3.5995,-3.5992,-3.5991,-3.5991,-3.601,-3.5981,-3.584,-3.5754,-3.5697,-3.5608,-3.556,-3.5502,-3.5501,-3.5493,-3.5493,-3.5493,-3.5493,-3.5493,0.0,0.0,0.0,0.0,0.0,0.0,0.0,0.0,0.0,0.0,0.0,0.0,0.0,0.0,0.0,0.0,0.0,0.0,0.0,0.0,0.0,0.0,0.0,0.0,0.0,0.0,0.0,0.0,0.0,0.0,0.0,0.0,0.0,-2.5406,0.0,-2.5525,-2.5581,-2.5643,-2.6077,-2.6715,-2.6716,-2.7123,-2.7768,-2.7881,-2.7935,0.0,0.0,0.0,0.0,0.0,0.0,0.0,-3.05,-3.055,-3.0604,-3.0668,-3.0735,-3.0782,-3.0798,-3.0792,0.0,0.0,-3.0704,-3.0599,-3.053,-3.052,-3.0714,-3.1381,-3.2259,-3.3164,-3.4031,-3.494,-3.5636,-3.5859,-3.5879,-3.5872,-3.5878,-3.5878,-3.5908,-3.5968,-3.5986,-3.5978,-3.5981,-3.5974,-3.5982,-3.5982,-3.5979,-3.5974,-3.5981,-3.5981,-3.6004,-3.5991,-3.5992,-3.5996,-3.5996,-3.5995,-3.5995,0.0,-3.5991,-3.5999,-3.5991,-3.5991,-3.5966,-3.5918,-3.5776,-3.5689,-3.5612,-3.5553,-3.5509,-3.5488,-3.5507,-3.5493,-3.5493,-3.5493,-3.5493,-3.5493,0.0,0.0,0.0,0.0,0.0,0.0,0.0,0.0,0.0,0.0,0.0,0.0,0.0,0.0,0.0,0.0,0.0,0.0,0.0,0.0,0.0,0.0,0.0,0.0,0.0,0.0,0.0,0.0,0.0,0.0,0.0,0.0,0.0,-2.5395,0.0,-2.5531,-2.563,-2.6112,-2.6579,-2.7049,-2.7451,-2.7894,-2.8333,-2.8695,-2.8793,-2.8876,-2.9679,0.0,0.0,0.0,0.0,0.0,0.0,0.0,-3.0613,-3.0642,-3.0706,-3.0755,-3.0798,0.0,0.0,-3.0753,0.0,-3.0626,-3.0558,-3.0568,-3.0954,-3.2201,-3.2857,-3.348,-3.4379,-3.5282,-3.5905,-3.5938,-3.5953,-3.5947,-3.5958,-3.5942,-3.5962,-3.6001,-3.6007,-3.5999,-3.6009,-3.5993,-3.5995,-3.5995,-3.5995,-3.5994,-3.601,-3.6009,-3.6009,-3.6009,-3.5995,-3.5996,-3.5996,-3.5994,-3.5991,-3.5991,-3.6004,-3.5981,-3.5958,-3.5958,-3.5897,-3.5807,-3.5698,-3.5618,-3.5553,-3.5502,-3.5501,-3.5493,-3.5493,-3.5493,-3.5493,-3.5493,-3.5493,-3.5493,0.0,0.0,0.0,0.0,0.0,0.0,0.0,0.0,0.0,0.0,0.0,0.0,0.0,0.0,0.0,0.0,0.0,0.0,0.0,0.0,0.0,0.0,0.0,0.0,0.0,0.0,0.0,0.0,0.0,0.0,0.0,0.0,0.0,-2.5395,0.0,-2.5609,-2.5887,-2.6672,-2.7171,-2.7518,-2.8237,-2.8611,-2.8805,-2.9469,-2.9683,-2.9699,-3.0389,-3.0613,-3.0606,-3.0578,0.0,0.0,0.0,0.0,-3.0604,-3.0607,-3.0639,-3.0703,-3.0779,0.0,-3.0774,-3.0724,-3.0704,0.0,-3.0629,-3.0781,-3.1348,-3.287,-3.3208,-3.3541,-3.462,-3.541,-3.5948,-3.6001,-3.5994,-3.6003,-3.5992,-3.5993,-3.5991,-3.6001,-3.5999,-3.6007,-3.5996,-3.5996,-3.5996,-3.5996,-3.5996,-3.5996,-3.5996,-3.5996,-3.5996,-3.5996,-3.5996,-3.5996,-3.5995,-3.6003,-3.601,-3.6004,-3.5987,-3.595,-3.5885,-3.5878,-3.5803,-3.5697,-3.5639,-3.555,-3.5502,-3.5501,-3.5493,-3.5493,-3.5493,-3.5493,-3.5493,-3.5493,-3.5493,-3.5493,0.0,0.0,0.0,0.0,0.0,0.0,0.0,0.0,0.0,0.0,0.0,0.0,0.0,0.0,0.0,0.0,0.0,0.0,-2.0021,0.0,0.0,-2.269,-2.4369,0.0,0.0,0.0,0.0,0.0,0.0,0.0,0.0,0.0,0.0,-2.5395,0.0,0.0,-2.6744,-2.6926,-2.7874,-2.9255,-2.9375,-2.9838,-3.0484,-3.0595,-3.0585,-3.0541,-3.0656,-3.066,-3.0598,-3.053,-3.051,0.0,0.0,0.0,-3.0597,-3.0602,-3.0646,-3.0716,-3.0774,0.0,-3.0774,0.0,-3.0697,-3.0704,0.0,0.0,-3.2018,0.0,-3.3245,-3.3782,-3.5427,-3.5875,-3.5994,-3.6005,-3.5994,-3.5996,-3.5996,-3.5996,-3.5996,-3.5996,-3.5996,-3.5996,-3.5996,-3.5996,-3.5996,-3.5996,-3.5996,-3.5996,-3.5996,-3.5996,-3.5996,-3.5996,-3.5996,-3.5994,-3.5999,-3.5994,-3.5997,-3.5997,-3.5936,-3.5878,-3.5807,-3.5745,-3.5727,-3.5708,-3.5626,-3.5558,-3.5502,-3.5501,-3.5493,-3.5493,-3.5493,-3.5493,-3.5493,-3.5493,-3.5493,-3.5493,0.0,0.0,0.0,0.0,0.0,0.0,0.0,0.0,0.0,0.0,0.0,0.0,0.0,0.0,0.0,-1.9732,-1.9775,-2.0017,-2.0577,-2.2293,-2.3252,-2.3252,-2.4525,-2.525,-2.525,0.0,0.0,0.0,0.0,0.0,0.0,-2.5303,-2.5341,0.0,0.0,0.0,0.0,-2.7967,-2.8864,-2.9646,-3.0135,-3.0527,-3.0796,-3.0794,-3.0782,-3.0759,-3.0704,-3.0665,-3.0595,-3.0569,-3.052,-3.05,-3.0509,0.0,0.0,0.0,-3.0658,-3.0711,-3.0779,-3.0808,-3.079,0.0,-3.0769,-3.075,-3.0749,-3.1404,-3.2253,-3.3134,-3.3726,-3.4467,-3.5719,-3.599,-3.6007,-3.6001,-3.5993,-3.5996,-3.5996,-3.5996,-3.5996,-3.5996,-3.5996,-3.5996,-3.5996,-3.5996,-3.5996,-3.5996,-3.5996,-3.5996,-3.5996,-3.5993,-3.6009,-3.6009,-3.5993,-3.5992,-3.6003,-3.5996,-3.5986,-3.5931,-3.5884,-3.5807,-3.5737,-3.5669,-3.5637,-3.5635,-3.5577,-3.5528,-3.5515,-3.5507,-3.5493,-3.5493,-3.5493,-3.5493,-3.5493,-3.5493,-3.5493,-3.5493,0.0,0.0,0.0,0.0,0.0,0.0,0.0,0.0,0.0,0.0,0.0,0.0,0.0,0.0,0.0,0.0,-2.0257,-2.0554,-2.1285,-2.2778,-2.3638,-2.3638,-2.4593,-2.5122,-2.5153,0.0,0.0,0.0,0.0,0.0,-2.5303,-2.5303,-2.5457,0.0,-2.6431,-2.6909,0.0,0.0,0.0,0.0,-3.0639,-3.0875,-3.082,-3.0813,-3.0807,-3.0793,-3.0728,-3.0671,-3.061,-3.0606,-3.055,-3.0501,-3.051,-3.0559,0.0,0.0,0.0,0.0,0.0,0.0,-3.083,-3.083,-3.081,-3.0863,0.0,0.0,-3.2679,0.0,-3.4429,-3.5233,-3.5888,-3.6001,-3.5991,-3.5991,-3.5992,-3.5996,-3.5996,-3.5996,-3.5995,-3.5995,-3.5995,-3.5996,-3.5996,-3.5995,-3.5995,-3.5995,-3.5995,-3.5995,-3.5995,-3.6003,-3.5991,-3.6007,-3.5977,-3.596,-3.596,-3.5978,-3.5933,-3.5842,-3.581,-3.5737,-3.5676,-3.5601,-3.5565,-3.5566,-3.5515,-3.5509,-3.5493,-3.5493,-3.5493,-3.5493,-3.5493,-3.5493,-3.5493,-3.5493,-3.5493,-3.5493,0.0,0.0,0.0,0.0,0.0,0.0,0.0,0.0,0.0,0.0,0.0,0.0,0.0,-2.1671,-2.1721,-2.1791,-2.1787,-2.1816,-2.195,-2.2869,-2.3445,-2.3512,-2.4412,0.0,-2.5006,-2.508,0.0,0.0,0.0,0.0,-2.5303,-2.5303,-2.5784,-2.665,-2.6746,-2.7298,-2.8189,0.0,0.0,0.0,0.0,-3.0899,0.0,0.0,-3.0795,0.0,0.0,-3.067,-3.0595,-3.0591,-3.0557,-3.0501,-3.0492,-3.0548,-3.061,0.0,0.0,0.0,0.0,-3.0898,0.0,-3.0894,-3.0855,-3.1011,0.0,0.0,-3.3573,-3.4454,-3.533,-3.5952,-3.5991,-3.5991,-3.5991,-3.5991,-3.5992,-3.5996,-3.5996,-3.6009,-3.5994,-3.5994,-3.6005,-3.5992,-3.5992,-3.6003,-3.5994,-3.5994,-3.5994,-3.5994,-3.5994,-3.5994,-3.6004,-3.6005,-3.5948,-3.5914,-3.5914,-3.591,-3.5838,-3.5706,-3.5718,-3.5676,-3.5604,-3.5528,-3.5509,-3.5507,-3.5489,-3.5509,-3.5493,-3.5493,-3.5493,-3.5493,-3.5493,-3.5493,-3.5493,-3.5493,-3.5493,-3.5493,0.0,0.0,0.0,0.0,0.0,0.0,0.0,0.0,0.0,0.0,0.0,0.0,0.0,-2.1784,-2.1818,-2.1834,-2.2347,-2.2676,-2.2693,-2.3584,-2.4113,-2.4129,-2.4584,-2.4856,-2.4879,-2.4942,0.0,0.0,0.0,-2.5252,-2.5303,-2.5303,-2.5803,-2.6727,-2.7307,-2.8087,-2.9021,-2.9961,0.0,0.0,0.0,0.0,0.0,0.0,0.0,0.0,0.0,0.0,-3.073,-3.0672,-3.0656,-3.0626,-3.0626,-3.0649,-3.0678,-3.0739,-3.0769,0.0,0.0,0.0,0.0,-3.0898,-3.0878,-3.1093,-3.1972,-3.2811,-3.3648,-3.4517,-3.5389,-3.5991,-3.5991,-3.6005,-3.5993,-3.5993,-3.5995,-3.5996,-3.6007,-3.6001,-3.6001,-3.5994,-3.5955,-3.5931,-3.5931,-3.5942,-3.5948,-3.5933,-3.5933,-3.5933,-3.5933,-3.5947,-3.5936,-3.5943,-3.5866,-3.5846,-3.5845,-3.5799,-3.5727,-3.563,-3.5635,-3.5596,-3.5547,-3.5509,-3.5501,-3.5507,-3.5501,-3.5501,-3.5493,-3.5493,-3.5493,-3.5493,-3.5493,-3.5493,-3.5493,-3.5493,-3.5493,-3.5493,0.0,0.0,0.0,0.0,0.0,0.0,0.0,0.0,0.0,0.0,0.0,0.0,0.0,0.0,-2.2611,-2.2609,-2.3143,-2.3474,-2.3474,-2.4042,-2.4409,-2.4426,-2.4582,-2.4695,-2.4738,-2.4823,0.0,0.0,0.0,0.0,0.0,-2.5591,-2.6227,-2.7132,-2.805,-2.8793,0.0,0.0,0.0,-3.0895,0.0,0.0,-3.0899,0.0,0.0,0.0,0.0,0.0,0.0,-3.0745,-3.0722,-3.073,-3.073,-3.0724,-3.0748,0.0,0.0,0.0,-3.0884,0.0,0.0,0.0,-3.0897,-3.1209,-3.2343,-3.3027,-3.373,-3.4897,-3.5597,-3.6005,-3.6005,-3.5994,-3.5996,-3.5996,-3.5996,-3.5995,-3.5996,-3.6001,-3.5992,-3.5973,-3.5933,-3.5883,-3.5878,-3.5866,-3.5866,-3.5864,-3.585,0.0,-3.5823,-3.5834,-3.5826,-3.5838,-3.5788,-3.5771,-3.5737,-3.5679,-3.5639,-3.5562,-3.5565,-3.5547,-3.5509,-3.5501,-3.5493,-3.5493,-3.5493,-3.5493,-3.5493,-3.5493,-3.5493,-3.5493,-3.5493,-3.5493,-3.5493,-3.5493,-3.5493,-3.5493,0.0,0.0,0.0,0.0,0.0,0.0,0.0,0.0,0.0,0.0,0.0,0.0,0.0,0.0,0.0,-2.419,-2.419,-2.419,-2.419,-2.4191,-2.4229,-2.4284,-2.4358,-2.4446,-2.4599,-2.4745,0.0,0.0,0.0,0.0,0.0,0.0,-2.7074,-2.7981,-2.8891,-2.9343,-2.9508,0.0,-3.0838,-3.0895,0.0,-3.0909,-3.0899,0.0,0.0,0.0,-3.0798,-3.08,0.0,-3.0794,0.0,0.0,0.0,0.0,0.0,0.0,0.0,0.0,0.0,0.0,0.0,0.0,0.0,0.0,-3.3019,0.0,-3.3887,-3.5644,-3.5996,-3.5996,-3.5996,-3.5996,-3.5996,-3.5996,-3.5996,-3.5995,-3.5996,-3.6001,-3.5967,-3.5908,-3.5897,-3.5879,-3.5801,-3.5803,-3.5791,-3.5791,-3.5727,-3.5708,-3.5708,-3.5699,-3.5689,-3.5707,-3.5707,-3.5657,-3.5601,-3.5601,-3.5546,-3.5502,-3.5502,-3.5509,-3.5493,-3.5493,-3.5493,-3.5493,-3.5493,-3.5493,-3.5493,-3.5493,-3.5493,-3.5493,-3.5493,-3.5493,-3.5493,-3.5493,-3.5493,-3.5493,0.0,0.0,0.0,0.0,0.0,0.0,0.0,0.0,0.0,0.0,0.0,0.0,0.0,0.0,-2.419,-2.419,-2.419,-2.419,-2.419,-2.4191,-2.421,-2.4229,-2.4284,-2.4393,-2.4515,-2.4613,0.0,0.0,0.0,0.0,0.0,0.0,0.0,0.0,-2.9165,-2.9698,-3.0358,-3.0665,0.0,-3.0895,-3.0895,-3.0909,0.0,0.0,0.0,0.0,0.0,-3.0875,-3.0859,0.0,-3.0806,-3.0799,0.0,0.0,0.0,0.0,0.0,0.0,-3.0898,0.0,0.0,0.0,0.0,0.0,0.0,0.0,-3.3898,-3.5644,-3.5996,-3.5996,-3.5996,-3.5996,-3.5996,-3.5996,-3.5996,-3.5995,-3.5996,-3.5962,-3.5903,-3.584,-3.583,-3.581,-3.5727,-3.5669,-3.5649,0.0,-3.5639,-3.5629,-3.5629,-3.5626,-3.5623,-3.5639,-3.5639,-3.5596,-3.554,-3.554,-3.5515,-3.5501,-3.5501,-3.5488,-3.5493,-3.5493,-3.5493,-3.5493,-3.5493,-3.5493,-3.5493,-3.5493,-3.5493,-3.5493,-3.5493,-3.5493,-3.5493,-3.5493,-3.5493,-3.5493,0.0,0.0,0.0,0.0,0.0,0.0,0.0,0.0,0.0,0.0,0.0,0.0,0.0,0.0,0.0,-2.419,-2.419,-2.419,-2.419,-2.419,-2.4191,-2.4191,-2.4229,-2.4303,-2.4411,-2.4545,-2.4666,0.0,0.0,0.0,0.0,0.0,0.0,0.0,0.0,0.0,0.0,0.0,0.0,0.0,-3.0897,0.0,0.0,-3.086,-3.0843,0.0,0.0,0.0,-3.0859,-3.0859,-3.0839,0.0,0.0,0.0,0.0,0.0,0.0,0.0,0.0,0.0,0.0,0.0,0.0,0.0,-3.309,-3.3659,-3.4293,0.0,-3.5992,-3.5992,-3.5992,-3.5992,-3.5993,-3.5995,-3.5995,-3.5993,-3.5996,-3.5948,-3.5872,-3.5799,-3.5754,-3.5698,-3.5665,-3.5593,-3.555,-3.555,-3.5558,-3.5565,-3.5565,-3.5572,-3.5547,-3.5554,-3.5554,-3.5541,-3.5495,-3.5495,-3.5501,-3.5493,-3.5493,-3.5493,-3.5493,-3.5493,-3.5493,-3.5493,-3.5493,-3.5493,-3.5493,-3.5493,-3.5493,-3.5493,-3.5493,-3.5493,-3.5493,-3.5493,-3.5493,-3.5493,0.0,0.0,0.0,0.0,0.0,0.0,0.0,0.0,0.0,0.0,0.0,0.0,0.0,0.0,0.0,0.0,-2.419,-2.419,-2.419,-2.419,0.0,-2.419,-2.4191,-2.4229,-2.4321,-2.4605,-2.4801,-2.4936,0.0,0.0,0.0,0.0,0.0,0.0,0.0,0.0,0.0,0.0,0.0,-3.0895,-3.0898,-3.0896,0.0,0.0,-3.0891,-3.0897,-3.0897,-3.0859,-3.08,-3.0879,-3.0898,0.0,0.0,0.0,0.0,0.0,-3.0898,0.0,0.0,0.0,0.0,0.0,0.0,0.0,-3.3312,-3.409,-3.4862,0.0,-3.5985,-3.5985,-3.5985,-3.5985,-3.5991,-3.5986,-3.5987,-3.5984,-3.5991,-3.5947,-3.5869,-3.5791,-3.5689,-3.5593,-3.5591,-3.5534,-3.5502,-3.5502,-3.5501,-3.5493,-3.5493,-3.5493,-3.5493,-3.5493,-3.5493,-3.5493,-3.5493,-3.5493,-3.5493,-3.5493,-3.5493,-3.5493,-3.5493,-3.5493,-3.5493,-3.5493,-3.5493,-3.5493,-3.5493,-3.5493,-3.5493,-3.5493,-3.5493,-3.5493,-3.5493,-3.5493,-3.5493,-3.5493,-2.3807,0.0,0.0,0.0,0.0,0.0,0.0,0.0,0.0,0.0,0.0,0.0,0.0,0.0,0.0,0.0,-2.419,-2.419,-2.419,-2.419,-2.419,-2.419,-2.4191,-2.4266,-2.4394,-2.5217,-2.5716,-2.5849,0.0,0.0,0.0,0.0,0.0,0.0,0.0,0.0,0.0,0.0,0.0,-3.0895,-3.0898,0.0,-3.0898,-3.0898,-3.0879,-3.0819,-3.0818,-3.0816,-3.0806,-3.0816,-3.0821,-3.081,0.0,0.0,0.0,-3.0898,0.0,0.0,0.0,0.0,0.0,0.0,0.0,0.0,-3.4013,-3.4491,-3.4847,0.0,-3.5928,-3.5911,-3.5911,-3.5911,-3.5922,-3.5929,-3.5914,-3.5934,-3.5981,-3.593,-3.5862,-3.5727,-3.5648,-3.5577,-3.5515,-3.552,-3.5488,-3.5488,-3.5507,-3.5493,-3.5493,-3.5493,-3.5493,-3.5493,-3.5493,-3.5493,-3.5493,-3.5493,-3.5493,-3.5493,-3.5493,-3.5493,-3.5493,-3.5493,-3.5493,-3.5493,-3.5493,-3.5493,-3.5493,-3.5493,-3.5493,-3.5493,-3.5493,-3.5493,-3.5493,-3.5493,-3.5493,-3.5493,-2.3743,0.0,0.0,0.0,0.0,0.0,0.0,0.0,0.0,0.0,0.0,0.0,0.0,0.0,0.0,0.0,0.0,0.0,0.0,0.0,-2.5461,-2.5461,-2.5463,-2.5503,-2.5579,-2.6224,-2.6615,-2.6737,0.0,0.0,0.0,0.0,0.0,0.0,0.0,0.0,0.0,0.0,-3.081,-3.0855,-3.0898,0.0,-3.0894,-3.0894,-3.0866,-3.0794,-3.0791,-3.0778,-3.0739,-3.075,-3.0771,0.0,0.0,-3.0857,-3.0975,0.0,-3.1495,-3.1597,0.0,0.0,0.0,-3.258,0.0,0.0,0.0,-3.4843,-3.5271,-3.5714,-3.5795,-3.5799,-3.5799,-3.5799,-3.5815,-3.5833,-3.5859,-3.5866,-3.5911,-3.5866,-3.5807,-3.5718,-3.5635,-3.556,-3.5507,-3.5493,-3.5493,-3.5493,-3.5493,-3.5493,-3.5493,-3.5493,-3.5493,-3.5493,-3.5493,-3.5493,-3.5493,-3.5493,-3.5493,-3.5493,-3.5493,-3.5493,-3.5493,-3.5493,-3.5493,-3.5493,-3.5493,-3.5493,-3.5493,-3.5493,-3.5493,-3.5493,-3.5493,-3.5493,-3.5493,-3.5493,-3.5501,-3.5495,-2.397,0.0,0.0,0.0,0.0,0.0,0.0,0.0,0.0,0.0,0.0,0.0,0.0,0.0,0.0,0.0,0.0,0.0,0.0,0.0,0.0,0.0,-2.6722,-2.6762,-2.6839,-2.7231,-2.7514,-2.7657,0.0,0.0,0.0,0.0,0.0,0.0,0.0,0.0,0.0,0.0,0.0,-3.0811,0.0,-3.0897,-3.0901,-3.0901,-3.0863,-3.0799,-3.0764,-3.0728,-3.0704,-3.086,-3.0984,-3.1051,-3.1243,-3.1335,0.0,0.0,0.0,0.0,0.0,0.0,0.0,0.0,0.0,-3.4516,0.0,0.0,0.0,0.0,0.0,0.0,-3.5669,0.0,0.0,0.0,0.0,0.0,0.0,-3.5732,0.0,-3.5678,-3.5608,-3.5541,-3.5479,-3.546,-3.546,-3.546,-3.546,-3.5493,-3.5493,-3.5493,-3.5493,-3.5493,-3.5493,-3.5493,-3.5493,-3.5493,-3.5493,-3.5493,-3.5493,-3.5493,-3.5493,-3.5493,-3.5493,-3.5493,-3.5493,-3.5493,-3.5493,-3.5493,-3.5493,-3.5493,-3.5493,-3.5493,-3.5493,-3.5493,-3.5495,-3.5515,-2.4974,-2.4847,0.0,0.0,0.0,0.0,0.0,0.0,0.0,0.0,0.0,0.0,0.0,0.0,0.0,0.0,0.0,0.0,-2.6898,0.0,0.0,0.0,-2.6799,-2.6859,-2.6972,-2.7809,-2.8357,-2.8544,0.0,0.0,0.0,0.0,0.0,0.0,-3.0626,0.0,0.0,0.0,-3.0804,0.0,-3.0862,-3.0897,0.0,-3.0894,-3.0852,-3.0774,-3.0665,-3.0622,-3.0723,0.0,-3.1799,-3.201,0.0,-3.3102,-3.3129,-3.3224,0.0,0.0,0.0,0.0,0.0,0.0,-3.4434,0.0,0.0,0.0,-3.5604,-3.5607,0.0,0.0,0.0,0.0,0.0,0.0,0.0,0.0,-3.5538,-3.5488,-3.547,-3.5526,-3.5457,-3.5398,-3.5343,-3.532,-3.5315,-3.5315,-3.5379,-3.5412,-3.5412,-3.546,-3.5493,-3.5493,-3.5493,-3.5493,-3.5493,-3.5493,-3.5493,-3.5493,-3.5493,-3.5493,-3.5493,-3.5493,-3.5493,-3.5493,-3.5493,-3.5493,-3.5493,-3.5493,-3.5493,-3.5493,-3.5493,-3.5493,-3.5493,-3.5493,-3.5495,-3.5515,-2.5742,-2.5646,0.0,0.0,0.0,0.0,0.0,0.0,0.0,0.0,0.0,0.0,0.0,0.0,0.0,0.0,0.0,-2.8539,0.0,0.0,0.0,0.0,0.0,0.0,0.0,-2.8914,-2.9244,0.0,-2.9956,0.0,0.0,0.0,0.0,0.0,-3.0593,0.0,-3.0691,0.0,-3.0794,0.0,0.0,0.0,0.0,-3.0897,-3.083,-3.0728,-3.0622,-3.0613,-3.0731,0.0,-3.193,0.0,0.0,0.0,0.0,0.0,0.0,0.0,0.0,0.0,0.0,0.0,0.0,0.0,-3.5566,0.0,-3.5534,0.0,0.0,0.0,0.0,0.0,0.0,0.0,-3.5438,0.0,0.0,0.0,-3.5111,0.0,0.0,0.0,-3.5193,-3.5207,-3.5273,-3.5289,-3.5335,-3.5364,-3.5398,-3.546,-3.5493,-3.5493,-3.5493,-3.5493,-3.5493,-3.5493,-3.5493,-3.5493,-3.5493,-3.5493,-3.5493,-3.5493,-3.5493,-3.5493,-3.5493,-3.5493,-3.5493,-3.5493,-3.5493,-3.5493,-3.5493,-3.5493,-3.5493,-3.5493,-3.5528,-3.556,-2.6879,0.0,0.0,0.0,0.0,0.0,0.0,0.0,0.0,0.0,0.0,0.0,-2.9222,-2.933,0.0,0.0,-2.9717,-2.9789,0.0,0.0,-2.9645,0.0,0.0,0.0,0.0,0.0,-2.9808,0.0,0.0,0.0,0.0,0.0,0.0,0.0,0.0,-3.0642,-3.0704,0.0,-3.0806,-3.0801,-3.0875,-3.0909,-3.0898,-3.0874,-3.0798,-3.0691,-3.0618,-3.0732,-3.1052,-3.1942,-3.2385,0.0,-3.3679,0.0,0.0,0.0,0.0,0.0,-3.5727,0.0,0.0,0.0,0.0,0.0,0.0,0.0,0.0,0.0,0.0,0.0,0.0,0.0,0.0,0.0,0.0,-3.5117,0.0,-3.4832,0.0,0.0,0.0,0.0,0.0,-3.5089,-3.516,-3.5229,-3.5273,-3.5335,-3.5364,-3.546,-3.5493,-3.5493,-3.5493,-3.5493,-3.5493,-3.5493,-3.5493,-3.5493,-3.5493,-3.5493,-3.5493,-3.5493,-3.5493,-3.5493,-3.5493,-3.5493,-3.5493,-3.5493,-3.5493,-3.5493,-3.5493,-3.5493,-3.5493,-3.5493,-3.5528,-3.5604,-2.8621,-2.7985,0.0,0.0,0.0,0.0,0.0,0.0,0.0,0.0,0.0,0.0,0.0,0.0,0.0,0.0,0.0,-2.9893,-2.9907,0.0,-2.9842,0.0,0.0,-2.9626,0.0,0.0,0.0,0.0,0.0,0.0,0.0,0.0,0.0,0.0,0.0,-3.063,-3.0703,-3.0769,-3.0802,-3.0807,-3.0875,-3.0895,-3.0894,0.0,-3.0754,-3.0691,-3.0618,0.0,0.0,-3.2772,-3.3615,0.0,0.0,0.0,0.0,0.0,0.0,0.0,0.0,0.0,0.0,-3.5793,0.0,0.0,0.0,0.0,-3.5493,0.0,0.0,0.0,0.0,0.0,0.0,0.0,0.0,0.0,0.0,0.0,0.0,0.0,0.0,0.0,0.0,-3.487,-3.4964,-3.5092,-3.5229,-3.5308,-3.5315,-3.5427,-3.5493,-3.5493,-3.5493,-3.5493,-3.5493,-3.5493,-3.5493,-3.5493,-3.5493,-3.5493,-3.5493,-3.5493,-3.5493,-3.5493,-3.5493,-3.5493,-3.5493,-3.5493,-3.5493,-3.5493,-3.5493,-3.5493,-3.5493,-3.5493,-3.5528,-3.5604,0.0,0.0,0.0,0.0,0.0,0.0,0.0,-2.9112,0.0,0.0,0.0,0.0,0.0,-2.9645,-2.9789,0.0,0.0,-3.0098,-3.009,-3.009,0.0,0.0,0.0,-2.9886,0.0,0.0,0.0,0.0,0.0,0.0,0.0,0.0,0.0,0.0,0.0,-3.0563,0.0,0.0,0.0,0.0,0.0,-3.0895,-3.0892,0.0,-3.0759,-3.0767,-3.127,-3.1602,0.0,-3.3429,-3.4097,-3.4485,-3.5398,-3.5669,-3.566,-3.5698,-3.5717,0.0,0.0,0.0,-3.5793,-3.5747,0.0,0.0,0.0,0.0,0.0,0.0,0.0,0.0,0.0,0.0,0.0,0.0,0.0,0.0,0.0,0.0,0.0,0.0,0.0,0.0,0.0,0.0,0.0,-3.502,-3.516,-3.5258,-3.53,-3.5427,-3.5493,-3.5493,-3.5493,-3.5493,-3.5493,-3.5493,-3.5493,-3.5493,-3.5493,-3.5493,-3.5493,-3.5493,-3.5493,-3.5493,-3.5493,-3.5493,-3.5493,-3.5493,-3.5501,-3.5509,-3.5509,-3.5534,-3.556,-3.5534,-3.5528,-3.5616,-2.8737,0.0,0.0,0.0,0.0,0.0,0.0,0.0,0.0,0.0,-2.9455,0.0,-2.9698,0.0,-2.9956,0.0,-3.0166,-3.024,-3.0228,-3.0267,0.0,-3.0203,-3.0144,0.0,0.0,0.0,0.0,0.0,0.0,-3.0286,0.0,0.0,0.0,0.0,0.0,-3.0546,-3.0637,-3.0749,-3.0808,0.0,0.0,-3.0895,0.0,0.0,-3.0767,-3.0842,0.0,-3.2083,-3.2474,-3.3834,-3.4519,-3.4855,-3.5419,-3.5593,-3.5604,-3.5604,-3.5637,-3.5669,-3.5659,-3.5689,0.0,-3.5669,-3.5635,0.0,-3.5572,0.0,0.0,0.0,0.0,0.0,0.0,0.0,0.0,0.0,0.0,0.0,0.0,-3.4074,0.0,0.0,0.0,0.0,0.0,-3.4645,-3.4849,-3.4983,-3.5143,-3.5258,0.0,0.0,-3.5493,-3.5493,-3.5493,-3.5493,-3.5493,-3.5493,-3.5493,-3.5493,-3.5493,-3.5493,-3.5493,-3.5493,-3.5493,-3.5493,-3.5493,-3.5493,-3.5507,-3.5501,-3.5509,-3.5547,-3.5534,-3.557,-3.5623,-3.556,-3.5584,-3.5695,-2.881,0.0,0.0,0.0,-2.8858,0.0,0.0,0.0,-2.9355,0.0,-2.9698,-2.9853,-2.9905,-3.0034,-3.0123,-3.0199,-3.0272,-3.0318,-3.0316,-3.0375,0.0,0.0,-3.0351,-3.0321,-3.0298,0.0,0.0,0.0,0.0,0.0,0.0,0.0,0.0,0.0,-3.0462,0.0,-3.069,-3.0769,-3.0806,-3.0816,-3.0866,-3.0896,-3.0894,-3.0825,-3.082,-3.0979,-3.1786,-3.2532,-3.3297,-3.4097,-3.4913,-3.5591,-3.5591,-3.5591,-3.5604,-3.5608,-3.5601,-3.5601,-3.5596,-3.5607,-3.5596,-3.5612,0.0,0.0,0.0,0.0,-3.5493,0.0,0.0,0.0,0.0,0.0,0.0,0.0,0.0,0.0,0.0,0.0,-3.3815,0.0,-3.3947,-3.4074,-3.4293,-3.4539,-3.479,-3.4983,-3.5176,-3.5324,0.0,0.0,-3.5493,-3.5493,-3.5493,-3.5493,-3.5493,-3.5493,-3.5493,-3.5493,-3.5493,-3.5493,-3.5493,-3.5493,-3.5493,-3.5493,-3.5493,-3.5493,-3.5507,-3.5489,-3.5528,-3.5604,-3.5604,-3.5648,-3.5688,-3.5635,-3.5688,-3.5812,-2.8881,-2.8905,-2.8952,0.0,-2.9017,-2.904,0.0,0.0,0.0,0.0,-2.9888,-3.0049,-3.0104,-3.0147,-3.0188,-3.0267,-3.0343,0.0,0.0,0.0,0.0,-3.0554,-3.0585,-3.0574,-3.0513,-3.0461,-3.0424,-3.0452,0.0,0.0,-3.0406,0.0,0.0,0.0,0.0,0.0,-3.0634,-3.0703,-3.0785,-3.0879,-3.0897,-3.0898,-3.0898,0.0,-3.1253,-3.1877,-3.2684,-3.3465,-3.4263,-3.5009,-3.5377,-3.5534,-3.5528,-3.5534,-3.5534,-3.5528,-3.5534,-3.554,-3.5521,-3.5565,-3.5596,-3.5596,-3.556,-3.5515,0.0,0.0,0.0,0.0,0.0,0.0,0.0,0.0,0.0,0.0,0.0,0.0,0.0,0.0,0.0,-3.3895,0.0,0.0,-3.434,-3.4561,-3.479,-3.4983,-3.5143,-3.5242,-3.5324,0.0,0.0,-3.5446,-3.546,-3.5493,-3.5493,-3.5493,-3.5493,-3.5493,-3.5493,-3.5493,-3.5493,-3.5493,-3.5493,-3.5493,-3.5493,-3.5493,-3.5507,-3.5489,-3.5534,-3.5596,-3.5649,-3.5756,-3.5846,-3.5765,-3.5763,-3.5803,-2.8952,0.0,0.0,-2.9134,0.0,0.0,-2.9347,-2.9492,0.0,-2.9872,-3.0049,0.0,-3.0228,-3.0273,-3.0299,-3.034,-3.0406,0.0,-3.055,0.0,0.0,-3.0685,-3.0711,-3.0736,-3.0697,-3.0658,0.0,-3.0582,0.0,0.0,-3.043,0.0,0.0,0.0,0.0,-3.054,-3.0618,-3.07,-3.0796,-3.0898,-3.0898,-3.0898,0.0,-3.1324,-3.1968,-3.2788,-3.3607,-3.4174,-3.4661,-3.5398,-3.5596,-3.554,-3.5509,-3.5501,-3.5493,-3.5493,-3.5501,-3.5495,-3.5495,-3.5528,-3.5573,-3.5573,-3.5528,-3.5495,-3.5495,-3.5501,-3.5493,0.0,0.0,0.0,0.0,0.0,0.0,0.0,0.0,0.0,0.0,0.0,0.0,0.0,-3.4023,0.0,-3.4427,-3.4561,-3.4749,-3.4927,-3.5091,-3.5212,0.0,0.0,0.0,-3.5398,-3.546,-3.5493,-3.5493,-3.5493,-3.5493,-3.5493,-3.5493,-3.5493,-3.5493,-3.5493,-3.5493,-3.5507,-3.5501,-3.5495,-3.5495,-3.5565,-3.5615,-3.565,-3.5752,-3.584,-3.5933,-3.5897,-3.5866,-3.5859,-2.9017,0.0,0.0,0.0,0.0,0.0,0.0,-2.9626,0.0,-2.9988,0.0,-3.0241,-3.0316,-3.0359,-3.0414,-3.0409,0.0,-3.054,-3.061,-3.0673,-3.0736,-3.0803,-3.0804,-3.081,-3.0804,-3.0804,-3.0765,0.0,0.0,0.0,0.0,0.0,0.0,0.0,0.0,0.0,0.0,-3.0745,-3.0843,-3.0898,-3.0898,-3.0898,-3.0996,-3.1875,-3.2695,-3.3513,-3.439,-3.4732,-3.4866,-3.5507,-3.5659,-3.5601,-3.5509,-3.5495,-3.5493,-3.5493,-3.5493,-3.5493,-3.5493,-3.5493,-3.5493,-3.5493,-3.5493,-3.5493,-3.5493,-3.5493,-3.5493,-3.5493,-3.5493,-3.5493,0.0,0.0,0.0,0.0,0.0,0.0,0.0,0.0,0.0,0.0,0.0,0.0,-3.445,-3.4539,-3.4689,-3.487,-3.502,0.0,0.0,0.0,0.0,-3.5398,-3.546,-3.5493,-3.5493,0.0,-3.5493,-3.5493,-3.5493,-3.5493,-3.5507,-3.5507,-3.5507,-3.5488,-3.5502,-3.5509,-3.5521,-3.5657,-3.5718,-3.5741,-3.5852,-3.5947,-3.5991,-3.5991,-3.5955,-3.5924,-2.9085,0.0,0.0,0.0,0.0,-2.9626,-2.9787,-2.9891,-2.9988,-3.0142,-3.0279,-3.0379,-3.0375,-3.0449,-3.0471,-3.0481,-3.0549,0.0,0.0,0.0,0.0,-3.0798,-3.084,-3.088,-3.0873,-3.0823,-3.0788,0.0,0.0,0.0,0.0,0.0,0.0,0.0,0.0,0.0,-3.0689,-3.0763,0.0,-3.0896,-3.0898,-3.0898,-3.0996,-3.1875,-3.2695,-3.3515,-3.4392,-3.5118,-3.568,-3.5753,-3.5708,-3.5585,-3.5521,-3.5495,-3.5493,-3.5493,-3.5493,-3.5493,-3.5493,-3.5493,-3.5493,-3.5493,-3.5493,-3.5493,-3.5493,-3.5493,-3.5493,-3.5493,-3.5493,-3.5493,-3.5493,0.0,0.0,0.0,0.0,0.0,0.0,0.0,0.0,0.0,0.0,-3.4221,0.0,0.0,-3.4689,-3.487,-3.4964,0.0,0.0,0.0,0.0,0.0,-3.5446,0.0,0.0,0.0,-3.5493,-3.5493,-3.5493,-3.5493,-3.5507,-3.5495,-3.5502,-3.5502,-3.5565,-3.5581,-3.5596,-3.5679,-3.5768,-3.5878,-3.5951,-3.5988,-3.5991,-3.5991,-3.5988,-3.5988,-2.9246,0.0,0.0,0.0,0.0,0.0,0.0,-3.0529,-3.0726,-3.0305,-3.0367,-3.0458,-3.0462,-3.0521,-3.0577,-3.0593,-3.0634,-3.0678,-3.0742,-3.0784,-3.0828,-3.0843,-3.0886,-3.0895,-3.0897,-3.0837,-3.0792,-3.0794,0.0,0.0,0.0,0.0,0.0,0.0,0.0,-3.0698,0.0,0.0,0.0,-3.0909,-3.0898,-3.0898,-3.1035,-3.2324,-3.3066,-3.3574,-3.4899,-3.5611,-3.5939,-3.5872,-3.5763,-3.5637,-3.557,-3.5522,-3.5493,-3.5493,-3.5493,-3.5493,-3.5493,-3.5493,-3.5493,-3.5493,-3.5493,-3.5493,-3.5493,-3.5493,-3.5493,-3.5493,-3.5493,-3.5493,-3.5493,-3.5446,0.0,0.0,0.0,0.0,0.0,0.0,-3.4668,0.0,0.0,0.0,0.0,0.0,0.0,0.0,0.0,0.0,0.0,0.0,0.0,0.0,0.0,0.0,0.0,0.0,0.0,-3.5493,-3.5493,-3.5493,-3.5507,-3.5509,-3.5515,-3.556,-3.5615,-3.5649,-3.566,-3.5757,-3.5853,-3.5953,-3.5997,-3.5991,-3.5994,-3.6007,-3.5991,-3.5991,0.0,-2.9551,0.0,0.0,-3.02,0.0,-3.0724,-3.1468,-3.1664,-3.0748,-3.0884,-3.1072,-3.107,-3.1125,-3.1196,-3.1248,-3.1268,-3.1298,-3.1354,-3.1349,-3.1293,-3.115,-3.1169,-3.1094,-3.0898,-3.0859,-3.0819,0.0,0.0,0.0,0.0,0.0,0.0,0.0,0.0,0.0,0.0,0.0,-3.0843,-3.0901,-3.0897,-3.1016,-3.1348,-3.2832,-3.3516,-3.3887,-3.5445,-3.6001,-3.5981,-3.5919,-3.5803,-3.5688,-3.5612,-3.5547,-3.5493,-3.5493,-3.5493,-3.5493,-3.5493,-3.5493,-3.5493,-3.5493,-3.5493,-3.5493,-3.5493,-3.5493,-3.5493,-3.5493,-3.5493,-3.5493,-3.5493,-3.546,0.0,0.0,0.0,0.0,0.0,0.0,0.0,0.0,0.0,0.0,-3.4689,0.0,0.0,0.0,0.0,0.0,-3.5088,0.0,0.0,0.0,0.0,-3.5509,-3.5507,0.0,-3.5493,-3.5507,-3.5488,-3.5501,-3.5501,-3.5528,-3.5565,-3.562,-3.5698,-3.5745,-3.5768,-3.5878,-3.5943,-3.6007,-3.6001,-3.5996,-3.6003,-3.5995,-3.5996,-3.5996,0.0,0.0,0.0,0.0,0.0,0.0,-3.2532,-3.2838,-3.2658,-3.1767,-3.2405,-3.2951,-3.2955,-3.3011,-3.3051,-3.3051,-3.3106,-3.3147,-3.3171,-3.3171,-3.2818,-3.2012,-3.2048,-3.1719,-3.0918,-3.0898,-3.0898,0.0,0.0,-3.079,0.0,0.0,0.0,0.0,0.0,0.0,0.0,-3.0804,-3.0849,-3.0901,-3.0897,-3.1367,-3.2168,-3.3066,-3.3887,-3.4707,-3.5652,-3.6004,-3.5981,-3.5918,-3.5818,-3.5689,-3.562,-3.5554,-3.5493,-3.5493,-3.5493,-3.5493,-3.5493,-3.5493,-3.5493,-3.5493,-3.5493,-3.5493,-3.5493,-3.5493,-3.5493,-3.5493,-3.5493,-3.5493,-3.5493,-3.5493,-3.546,0.0,0.0,0.0,0.0,0.0,-3.5053,-3.4983,0.0,0.0,-3.4713,-3.4753,-3.4792,0.0,-3.4851,0.0,0.0,0.0,0.0,-3.5398,0.0,-3.5509,-3.5507,-3.5493,-3.5493,-3.5507,-3.5509,-3.5502,-3.5502,-3.5623,-3.5688,-3.5699,-3.5823,-3.5916,-3.5961,-3.5994,-3.5988,-3.6007,-3.5991,-3.6007,-3.5996,-3.5996,-3.5996,-3.5996,0.0,0.0,0.0,0.0,0.0,0.0,0.0,-3.3576,-3.3879,-3.3526,-3.3354,-3.3252,-3.3271,-3.3315,-3.3356,-3.3364,-3.3376,-3.3402,-3.3402,-3.3402,-3.3239,-3.2906,-3.291,-3.2754,-3.2402,-3.2402,-3.2168,0.0,0.0,0.0,0.0,0.0,0.0,0.0,0.0,-3.082,-3.0859,-3.0859,-3.0877,-3.0954,-3.1464,-3.1894,-3.2344,-3.3672,-3.4394,-3.4805,-3.5696,-3.5965,-3.5938,-3.5853,-3.5779,-3.5689,-3.5623,-3.5547,-3.5493,-3.5493,-3.5493,-3.5493,-3.5493,-3.5493,-3.5493,-3.5493,-3.5493,-3.5493,-3.5493,-3.5493,-3.5493,-3.5493,-3.5493,-3.5493,-3.5493,-3.5493,-3.5493,0.0,0.0,0.0,0.0,0.0,0.0,-3.5196,0.0,-3.5072,-3.5018,-3.5,-3.4963,-3.4963,0.0,0.0,0.0,0.0,0.0,-3.546,0.0,-3.5554,-3.5507,-3.5501,-3.5509,-3.5509,-3.554,-3.5565,-3.5546,-3.5669,-3.5743,-3.5833,-3.5918,-3.5972,-3.5994,-3.6007,-3.6001,-3.5992,-3.5992,-3.5995,-3.5996,-3.5996,-3.5996,-3.5996,-3.1823,0.0,-3.2897,0.0,-3.343,-3.3595,-3.3852,-3.4513,-3.4983,-3.5001,-3.4481,-3.4096,-3.4087,-3.414,-3.4156,-3.4159,-3.4168,-3.4152,-3.4152,-3.4152,-3.4058,-3.3789,-3.3789,0.0,-3.3418,-3.3398,-3.3125,-3.2559,-3.2519,0.0,0.0,0.0,0.0,0.0,-3.0946,-3.0868,-3.0907,-3.0907,-3.1051,-3.1348,-3.1953,-3.25,-3.3066,-3.4258,-3.4863,-3.5154,-3.5774,-3.5962,-3.5883,-3.5827,-3.576,-3.5679,-3.5623,-3.5547,-3.5493,-3.5493,-3.5493,-3.5493,-3.5493,-3.5493,-3.5493,-3.5493,-3.5493,-3.5493,-3.5493,-3.5493,-3.5493,-3.5493,-3.5493,-3.5493,-3.5493,-3.5493,-3.5493,-3.5493,0.0,0.0,0.0,-3.5412,0.0,-3.5324,-3.5308,-3.5273,-3.5223,-3.519,-3.5155,-3.5119,0.0,0.0,0.0,0.0,0.0,0.0,0.0,0.0,0.0,-3.5489,-3.5515,-3.554,-3.5601,-3.5635,-3.5637,-3.5706,-3.5813,-3.5928,-3.5977,-3.6004,-3.6003,-3.6003,-3.5992,-3.5996,-3.5996,-3.5996,-3.5996,-3.5996,-3.5996,-3.5996,-3.2872,-3.2949,-3.3265,-3.4128,-3.4389,-3.4766,-3.5636,-3.582,-3.5914,-3.5973,-3.5978,-3.5971,-3.5971,-3.5971,-3.5971,-3.5971,-3.5972,-3.5976,-3.5976,-3.5976,-3.5586,0.0,0.0,-3.4277,-3.3418,-3.3398,-3.3398,-3.3398,0.0,0.0,-3.3359,0.0,-3.2187,-3.2148,-3.1289,-3.0898,-3.0898,-3.0898,-3.1406,-3.2187,-3.2207,-3.3184,-3.4668,-3.4687,-3.523,-3.5994,-3.5994,-3.5951,-3.5883,-3.5813,-3.5754,-3.5697,-3.5628,-3.5541,-3.5493,-3.5493,-3.5493,-3.5493,-3.5493,-3.5493,-3.5493,-3.5493,-3.5493,-3.5493,-3.5493,-3.5493,-3.5493,-3.5493,-3.5493,-3.5493,-3.5493,-3.5493,-3.5493,-3.5493,0.0,0.0,0.0,-3.5446,0.0,-3.5398,-3.533,-3.53,-3.53,-3.53,0.0,0.0,0.0,0.0,0.0,0.0,0.0,-3.5508,-3.5501,0.0,-3.5502,-3.5502,-3.5521,-3.5601,-3.5657,-3.5699,-3.5706,-3.5833,-3.5928,-3.5992,-3.5997,-3.6007,-3.5996,-3.5996,-3.5996,-3.5996,-3.5996,-3.5996,-3.5996,-3.5996,-3.5996,-3.5996,-3.3984,-3.4487,-3.4999,-3.5324,-3.5422,-3.5554,-3.5885,-3.5961,-3.5982,-3.5997,-3.6007,-3.5991,-3.5991,-3.6007,-3.5994,0.0,-3.5996,-3.5996,0.0,-3.5992,-3.5888,-3.5595,-3.5595,-3.5458,-3.5183,-3.5172,-3.4881,-3.4295,0.0,0.0,0.0,-3.3144,-3.3027,-3.3008,-3.2734,-3.2598,-3.2598,-3.2598,-3.2754,-3.3066,-3.3672,-3.4219,-3.4766,-3.5351,-3.5757,-3.601,-3.6005,-3.5967,-3.5878,-3.5768,-3.5679,-3.5623,-3.5553,-3.5528,-3.5493,-3.5493,-3.5493,-3.5493,-3.5493,-3.5493,-3.5493,-3.5493,-3.5493,-3.5493,-3.5493,-3.5493,-3.5493,-3.5493,-3.5493,-3.5493,-3.5493,-3.5493,-3.5493,-3.5493,-3.5493,0.0,-3.5493,0.0,-3.546,-3.546,-3.5446,-3.5446,-3.5446,-3.5398,0.0,0.0,0.0,0.0,0.0,0.0,0.0,0.0,-3.5495,0.0,-3.5515,-3.5553,-3.5601,-3.5667,-3.5736,-3.5811,-3.5911,-3.5958,-3.5977,-3.5997,-3.6007,-3.6007,-3.5996,-3.5996,-3.5996,-3.5996,-3.5996,-3.5996,-3.5996,-3.5996,-3.5996,-3.5996,-3.5002,-3.5473,-3.5857,-3.5885,-3.5922,-3.5943,-3.5997,-3.5997,-3.6005,-3.601,-3.6009,-3.5995,-3.5995,-3.5996,0.0,-3.5996,-3.5995,-3.5993,-3.5993,-3.6001,-3.6007,-3.5994,-3.5974,-3.597,-3.5962,-3.5962,0.0,-3.5159,-3.5172,-3.4902,-3.4375,-3.4043,-3.3887,-3.3867,-3.3555,-3.3398,-3.3398,-3.3398,-3.3594,-3.3945,-3.4473,-3.4902,-3.5254,-3.5781,-3.5992,-3.6007,-3.5968,-3.5924,-3.585,-3.5735,-3.5658,-3.5596,-3.5528,-3.5495,-3.5493,-3.5493,-3.5493,-3.5493,-3.5493,-3.5493,-3.5493,-3.5493,-3.5493,-3.5493,-3.5493,-3.5493,-3.5493,-3.5493,-3.5493,-3.5493,-3.5493,-3.5493,-3.5493,-3.5493,-3.5493,-3.5493,-3.5493,0.0,-3.5493,0.0,0.0,0.0,0.0,-3.546,-3.5446,0.0,0.0,0.0,0.0,0.0,0.0,-3.5545,-3.5509,0.0,-3.5558,-3.5623,-3.5658,-3.5745,-3.5826,-3.5922,-3.5997,-3.6005,-3.6007,-3.6007,-3.6007,-3.5993,-3.5996,-3.5996,-3.5996,-3.5996,-3.5996,-3.5996,-3.5996,-3.5996,-3.5996,-3.5996,-3.5884,-3.5911,-3.5911,0.0,-3.5951,0.0,-3.5999,-3.5999,-3.5999,-3.5999,-3.5995,-3.5991,-3.5988,-3.5988,-3.5979,-3.5995,0.0,0.0,0.0,-3.5988,-3.5994,-3.5986,-3.5922,-3.5891,-3.5898,-3.5891,-3.5899,-3.5908,-3.596,-3.5993,-3.5976,-3.5176,-3.4785,-3.4746,-3.3945,-3.3574,-3.3574,-3.3574,-3.4043,-3.4785,-3.4785,-3.5273,-3.5996,-3.5996,-3.5992,-3.5985,-3.5924,-3.5853,-3.5784,-3.5727,-3.5646,-3.5591,-3.5515,-3.5495,-3.5493,-3.5493,-3.5493,-3.5493,-3.5493,-3.5493,-3.5493,-3.5493,-3.5493,-3.5493,-3.5493,-3.5493,-3.5493,-3.5493,-3.5493,-3.5493,-3.5493,-3.5493,-3.5493,-3.5493,-3.5493,-3.5493,-3.5493,-3.5493,-3.5493,0.0,0.0,0.0,0.0,-3.5507,-3.5488,0.0,0.0,0.0,0.0,0.0,-3.5537,-3.5597,-3.5541,-3.5558,-3.5688,-3.5698,-3.5745,-3.5827,-3.5938,-3.5997,-3.6009,-3.6004,-3.6007,-3.5996,-3.5996,-3.5996,-3.5996,-3.5996,-3.5996,-3.5996,-3.5996,-3.5996,-3.5996,-3.5996,-3.5996,-3.5996,0.0,0.0,-3.5978,-3.5981,-3.5988,-3.6005,-3.5993,-3.6009,-3.6009,-3.6009,-3.6001,-3.5981,-3.5934,-3.5929,-3.5924,-3.5919,-3.5974,-3.5981,-3.5929,-3.5914,-3.5917,-3.5924,-3.5857,-3.5823,-3.5815,-3.5823,-3.5846,-3.5899,-3.5919,-3.5955,-3.6001,-3.5795,-3.568,-3.568,-3.5485,-3.5389,-3.5371,-3.5389,-3.5501,-3.5691,-3.5698,-3.5817,-3.5993,-3.5993,-3.5999,-3.5997,-3.5924,-3.583,-3.5706,-3.5648,-3.5589,-3.5515,-3.5515,-3.5507,-3.5493,-3.5493,-3.5493,-3.5493,-3.5493,-3.5493,-3.5493,-3.5493,-3.5493,-3.5493,-3.5493,-3.5493,-3.5493,-3.5493,-3.5493,-3.5493,-3.5493,-3.5493,-3.5493,-3.5493,-3.5493,-3.5493,-3.5493,-3.5493,-3.5493,0.0,-3.5495,-3.5489,-3.5489,-3.5502,-3.5507,0.0,0.0,0.0,0.0,-3.5778,-3.5747,-3.5604,-3.5639,-3.5657,-3.5708,-3.5743,-3.5852,-3.5958,-3.5977,-3.599,-3.6007,-3.5991,-3.6007,-3.5996,-3.5996,-3.5996,-3.5996,-3.5996,-3.5996,-3.5996,-3.5996,-3.5996,-3.5996,-3.5996,-3.5996,-3.5996,-3.5981,-3.6001,-3.6001,-3.5995,-3.5996,-3.5995,-3.5996,-3.5997,-3.5986,-3.5966,-3.5958,-3.5938,-3.5905,-3.5872,-3.5852,-3.5857,-3.5917,-3.5933,-3.5905,-3.5878,-3.583,-3.5807,-3.5773,-3.5747,-3.5708,-3.5736,-3.5795,-3.5858,-3.5855,-3.5895,-3.5958,-3.5955,-3.5979,-3.5996,-3.5996,-3.6003,-3.5991,-3.6005,-3.5994,-3.6009,-3.5962,-3.5946,-3.5946,-3.5946,-3.5958,-3.595,-3.5881,-3.5765,-3.564,-3.5615,-3.5572,-3.5495,-3.5507,-3.5493,-3.5493,-3.5493,-3.5493,-3.5493,-3.5493,-3.5493,-3.5493,-3.5493,-3.5493,-3.5493,-3.5493,-3.5493,-3.5493,-3.5493,-3.5493,-3.5493,-3.5493,-3.5493,-3.5493,-3.5493,-3.5493,-3.5493,-3.5493,-3.5501,0.0,-3.5495,-3.5528,-3.5565,-3.5558,-3.5554,-3.5549,-3.554,-3.56,0.0,-3.5873,-3.5912,-3.5844,-3.5697,-3.5766,-3.5794,-3.5784,-3.5853,-3.5938,-3.5994,-3.5997,-3.6004,-3.5994,-3.6005,-3.5993,-3.5996,-3.5996,-3.5996,-3.5996,-3.5996,-3.5996,-3.5996,-3.5996,-3.5996,-3.5996,-3.5996,-3.5996,-3.5996,-3.6003,-3.6003,-3.5993,-3.6001,-3.6007,-3.6004,-3.5981,-3.5973,-3.5955,-3.5897,-3.5885,-3.5877,-3.5862,-3.5818,-3.5782,-3.5773,-3.5818,-3.5854,-3.5862,-3.581,-3.5745,-3.5679,-3.5669,-3.5637,-3.5585,-3.5658,-3.5698,-3.5768,-3.5772,-3.5814,-3.588,-3.5875,-3.5919,-3.5977,-3.5977,-3.599,-3.5985,-3.5985,-3.5986,-3.5981,-3.5922,-3.5883,-3.5883,-3.5883,-3.5878,-3.5868,-3.5814,-3.5698,-3.5596,-3.5581,-3.5547,-3.5493,-3.5493,-3.5493,-3.5493,-3.5493,-3.5493,-3.5493,-3.5493,-3.5493,-3.5493,-3.5493,-3.5493,-3.5493,-3.5493,-3.5493,-3.5493,-3.5493,-3.5493,-3.5493,-3.5493,-3.5493,-3.5493,-3.5493,-3.5493,-3.5507,-3.5507,0.0,-3.5515,-3.5509,-3.557,-3.5626,-3.5629,-3.564,-3.5621,-3.563,-3.5747,-3.5862,-3.5982,-3.5951,-3.5885,-3.5829,-3.5877,-3.5896,-3.5917,-3.5973,-3.5997,-3.5991,-3.5996,-3.5999,-3.5999,-3.5995,-3.5996,-3.5996,-3.5996,-3.5996,-3.5996,-3.5996,-3.5996,-3.5996,-3.5996,-3.5996,-3.5996,-3.5996,-3.5996,-3.5996,-3.6007,-3.6005,-3.6003,-3.5994,-3.6005,-3.5977,-3.5922,-3.5911,-3.5884,-3.5823,-3.5826,-3.5782,-3.5747,-3.5728,-3.5698,-3.5639,-3.5637,-3.5667,-3.5737,-3.5669,-3.5618,-3.5615,-3.5558,-3.554,-3.5509,-3.5584,-3.5623,-3.562,-3.5689,-3.5754,-3.5823,-3.5826,-3.5827,-3.584,-3.5891,-3.5928,-3.5924,-3.5924,-3.5917,-3.5917,-3.5898,-3.5866,-3.5814,-3.5814,-3.5772,-3.5726,-3.5718,-3.5667,-3.5584,-3.554,-3.5509,-3.5493,-3.5493,-3.5493,-3.5493,-3.5493,-3.5493,-3.5493,-3.5493,-3.5493,-3.5493,-3.5493,-3.5493,-3.5493,-3.5493,-3.5493,-3.5493,-3.5493,-3.5493,-3.5493,-3.5493,-3.5493,-3.5493,-3.5493,-3.5493,-3.5488,-3.5489,0.0,-3.5565,-3.5585,-3.564,-3.5708,-3.5754,-3.5768,-3.5764,-3.5772,-3.5838,-3.5923,-3.6008,-3.5996,-3.5969,-3.5969,-3.5918,-3.5922,-3.5981,-3.5988,-3.601,-3.5994,-3.5992,-3.5995,-3.5995,-3.5996,-3.5996,-3.5996,-3.5996,-3.5996,-3.5996,-3.5996,-3.5996,-3.5996,-3.5996,-3.5996,-3.5996,-3.5996,-3.5996,-3.5996,-3.5999,-3.5997,-3.5981,-3.5942,-3.5958,-3.5918,-3.5864,-3.5815,-3.5791,-3.5747,-3.5718,-3.5688,-3.5646,-3.5612,-3.557,-3.5558,-3.554,-3.5547,-3.5584,-3.5546,-3.5546,-3.5553,-3.5522,-3.5509,-3.5502,-3.5528,-3.5553,-3.5601,-3.5626,-3.5669,-3.5679,-3.5727,-3.5754,-3.576,-3.5776,-3.5818,-3.5852,-3.5852,-3.5838,-3.5779,-3.5788,-3.5752,-3.5678,-3.5678,-3.567,-3.5639,-3.5648,-3.5612,-3.5547,-3.5515,-3.5495,-3.5493,-3.5493,-3.5493,-3.5493,-3.5493,-3.5493,-3.5493,-3.5493,-3.5493,-3.5493,-3.5493,-3.5493,-3.5493,-3.5493,-3.5493,-3.5493,-3.5493,-3.5493,-3.5507,-3.5495,-3.5495,-3.5509,-3.5547,-3.5547,0.0,0.0,-3.5604,-3.5648,-3.565,-3.5736,-3.5818,-3.5857,-3.5846,-3.5878,-3.5904,-3.5929,-3.5973,-3.5992,-3.6001,-3.6005,-3.6005,-3.5962,-3.597,-3.5991,-3.6005,-3.5991,-3.5991,-3.5996,-3.5996,-3.5996,-3.5996,-3.5996,-3.5996,-3.5996,-3.5996,-3.5996,-3.5996,-3.5996,-3.5996,-3.5996,-3.5996,-3.5996,-3.5996,-3.5996,-3.5996,-3.5991,-3.5997,-3.5967,-3.5897,-3.5853,-3.5838,-3.5754,-3.5708,-3.5669,-3.5657,-3.5612,-3.5577,-3.5584,-3.5528,-3.5489,-3.5489,-3.5501,-3.5493,-3.5493,-3.5495,-3.5489,-3.5489,-3.5501,-3.5501,-3.5489,-3.5489,-3.5522,-3.5566,-3.5584,-3.557,-3.5574,-3.5646,-3.5667,-3.5669,-3.5679,-3.5718,-3.5756,-3.5745,-3.5708,-3.5689,-3.5689,-3.5648,-3.5604,-3.5604,-3.5593,-3.5577,-3.5577,-3.554,-3.5489,-3.5489,-3.5495,-3.5493,-3.5493,-3.5493,-3.5493,-3.5493,-3.5493,-3.5493,-3.5493,-3.5493,-3.5493,-3.5493,-3.5493,-3.5493,-3.5493,-3.5507,-3.5501,-3.5501,-3.5501,-3.5528,-3.5528,-3.5521,-3.5546,-3.5612,0.0,0.0,0.0,-3.5689,-3.5726,-3.5732,-3.5854,-3.5917,-3.5922,-3.5919,-3.5942,-3.5991,-3.5999,-3.5999,-3.5994,-3.5991,-3.5991,-3.5991,-3.5999,-3.6001,-3.6001,-3.5995,-3.5996,-3.5996,-3.5996,-3.5996,-3.5996,-3.5996,-3.5996,-3.5996,-3.5996,-3.5996,-3.5996,-3.5996,-3.5996,-3.5996,-3.5996,-3.5996,-3.5996,-3.5996,-3.5996,-3.5996,-3.6001,-3.5943,-3.5897,-3.5813,-3.5768,-3.5688,-3.5609,-3.5615,-3.5601,-3.5509,-3.5515,-3.5502,-3.552,-3.5507,-3.5507,-3.5507,-3.5507,-3.5493,-3.5493,-3.5507,-3.5507,-3.5507,-3.5507,-3.5507,-3.5507,-3.5507,-3.5507,-3.5507,-3.5509,-3.5515,-3.5496,-3.5572,-3.5604,-3.5616,-3.5601,-3.5612,-3.5604,-3.5607,-3.5607,-3.5612,-3.5612,-3.5589,-3.5604,-3.5604,-3.556,-3.5515,-3.5515,-3.5509,-3.5507,-3.5507,-3.5507,-3.5493,-3.5493,-3.5493,-3.5493,-3.5493,-3.5493,-3.5493,-3.5493,-3.5493,-3.5493,-3.5493,-3.5493,-3.5493,-3.5493,-3.5495,-3.5502,-3.5502,-3.5547,-3.5604,-3.5589,-3.5585,-3.5607,-3.5678,0.0,0.0,-3.5782,-3.5788,-3.5818,-3.5885,-3.5947,-3.5997,-3.5985,-3.5988,-3.5991,-3.5991,-3.5992,-3.5993,-3.5994,-3.5991,-3.5991,-3.5991,-3.5992,-3.5996,-3.5996,-3.5996,-3.5996,-3.5996,-3.5996,-3.5996,-3.5996,-3.5996,-3.5996,-3.5996,-3.5996,-3.5996,-3.5996,-3.5996,-3.5996,-3.5996,-3.5996,-3.5996,-3.5996,-3.5996,-3.5996,-3.5996,-3.5947,-3.5911,-3.5869,-3.5763,-3.5718,-3.5669,-3.5538,-3.5534,-3.5528,-3.5495,-3.5501,-3.5501,-3.5507,-3.5493,-3.5493,-3.5493,-3.5493,-3.5493,-3.5493,-3.5493,-3.5493,-3.5493,-3.5493,-3.5493,-3.5493,-3.5493,-3.5493,-3.5493,-3.5501,-3.5501,-3.5501,-3.5515,-3.5547,-3.5547,-3.5547,-3.554,-3.5553,-3.5577,-3.5577,-3.554,-3.554,-3.5547,-3.5547,-3.5547,-3.5515,-3.5501,-3.5501,-3.5501,-3.5493,-3.5493,-3.5493,-3.5493,-3.5493,-3.5493,-3.5493,-3.5493,-3.5493,-3.5493,-3.5493,-3.5493,-3.5493,-3.5493,-3.5501,-3.5509,-3.5509,-3.5528,-3.5565,-3.5565,-3.5631,-3.5665,-3.5658,-3.5699,-3.5747,-3.5814,0.0,-3.5834,-3.5857,-3.5866,-3.5885,-3.5955,-3.5992,-3.5997,-3.601,-3.6007,-3.5993,-3.5993,-3.5996,-3.5996,-3.5993,-3.5993,-3.5993,-3.5993,-3.5996,-3.5996,-3.5996,-3.5996,-3.5996,-3.5996,-3.5996,-3.5996,-3.5996,-3.5996,-3.5996,-3.5996,-3.5996,-3.5996,-3.5996,-3.5996,-3.5996,-3.5996,-3.5996,-3.5996,-3.5996,-3.5996,-3.5996,-3.5996,-3.5878,-3.5854,-3.5794,-3.5688,-3.5657,-3.5601,-3.5502,-3.5509,-3.5495,-3.5507,-3.5493,-3.5493,-3.5493,-3.5493,-3.5493,-3.5493,-3.5493,-3.5493,-3.5493,-3.5493,-3.5493,-3.5493,-3.5493,-3.5493,-3.5493,-3.5493,-3.5493,-3.5493,-3.5493,-3.5493,-3.5493,-3.5493,-3.5493,-3.5507,-3.5495,-3.5509,-3.5509,-3.5554,-3.5554,-3.5509,-3.5509,-3.5515,-3.5493,-3.5493,-3.5493,-3.5493,-3.5493,-3.5493,-3.5493,-3.5493,-3.5493,-3.5493,-3.5493,-3.5493,-3.5493,-3.5493,-3.5493,-3.5507,-3.5501,-3.5501,-3.5501,-3.5501,-3.5509,-3.5528,-3.5534,-3.5574,-3.5637,-3.5667,-3.5699,-3.5736,-3.5763,-3.5807,-3.585,-3.5896,-3.5911,-3.5936,-3.5928,-3.5924,-3.5953,-3.5992,-3.5992,-3.599,-3.6003,-3.5995,-3.5996,-3.5996,-3.5996,-3.5996,-3.5996,-3.5996,-3.5996,-3.5996,-3.5995,-3.5994,-3.5994,-3.5996,-3.5996,-3.5996,-3.5996,-3.5996,-3.5996,-3.5996,-3.5996,-3.5996,-3.5996,-3.5996,-3.5996,-3.5996,-3.5996,-3.5996,-3.5996,-3.5996,-3.5996,-3.5996,-3.5996,-3.5996,-3.5807,-3.5756,-3.5669,-3.5616,-3.5528,-3.5489,-3.5507,-3.5493,-3.5493,-3.5493,-3.5493,-3.5493,-3.5493,-3.5493,-3.5493,-3.5493,-3.5493,-3.5493,-3.5493,-3.5493,-3.5493,-3.5493,-3.5493,-3.5493,-3.5493,-3.5493,-3.5493,-3.5493,-3.5493,-3.5493,-3.5493,-3.5493,-3.5493,-3.5493,-3.5493,-3.5493,-3.5493,-3.5493,-3.5493,-3.5493,-3.5493,-3.5493,-3.5493,-3.5493,-3.5493,-3.5493,-3.5493,-3.5493,-3.5493,-3.5493,-3.5493,-3.5493,-3.5493,-3.5493,-3.5493,-3.5493,-3.5507,-3.5488,-3.5502,-3.5496,-3.5496,-3.5496,-3.556,-3.5596,-3.5596,-3.565,-3.5726,-3.5791,-3.5791,-3.5827,-3.5885,-3.5905,-3.5905,-3.5908,-3.597,-3.5991,-3.5994,-3.5994,-3.5994,-3.5994,-3.5994,-3.6003,-3.5996,-3.5996,-3.5996,-3.5996,-3.5996,-3.5996,-3.5996,-3.5996,-3.5996,-3.5996,-3.6005,-3.5991,-3.5991,-3.5993,-3.5996,-3.5996,-3.5996,-3.5996,-3.5996,-3.5996,-3.5996,-3.5996,-3.5996,-3.5996,-3.5996,-3.5996,-3.5996,-3.5996,-3.5996,-3.5996,-3.5996,-3.5996,-3.5996,-3.5996,-3.5737,-3.5678,-3.5623,-3.554,-3.5515,-3.5489,-3.5507,-3.5493,-3.5493,-3.5493,-3.5493,-3.5493,-3.5493,-3.5493,-3.5493,-3.5493,-3.5493,-3.5493,-3.5493,-3.5493,-3.5493,-3.5493,-3.5493,-3.5493,-3.5493,-3.5493,-3.5493,-3.5493,-3.5493,-3.5493,-3.5493,-3.5493,-3.5493,-3.5493,-3.5493,-3.5493,-3.5493,-3.5493,-3.5493,-3.5493,-3.5493,-3.5493,-3.5493,-3.5493,-3.5493,-3.5493,-3.5493,-3.5493,-3.5493,-3.5493,-3.5493,-3.5493,-3.5493,-3.5493,-3.5493,-3.5493,-3.5501,-3.5522,-3.556,-3.5577,-3.5562,-3.5558,-3.5612,-3.5667,-3.5679,-3.5756,-3.5857,-3.5862,-3.5866,-3.5878,-3.5903,-3.5938,-3.5963,-3.5972,-3.599,-3.5999,-3.5993,-3.5994,-3.5994,-3.5994,-3.5994,-3.5995,-3.5996,-3.5996,-3.5996,-3.5996,-3.5996,-3.5996,-3.5996,-3.5996,-3.5995,-3.6005,-3.5994,-3.5973,-3.5934,-3.5982,-3.5994,-3.5994,-3.5996,-3.5996,-3.5996,-3.5996,-3.5996,-3.5996,-3.5996,-3.5996,-3.5996,-3.5996,-3.5996,-3.5996,-3.5996,-3.5996,-3.5996,-3.5996,-3.5996,-3.5996,-3.5667,-3.5612,-3.5553,-3.5509,-3.5509,-3.5495,-3.5507,-3.5493,-3.5493,-3.5493,-3.5493,-3.5493,-3.5493,-3.5493,-3.5493,-3.5493,-3.5493,-3.5493,-3.5493,-3.5493,-3.5493,-3.5493,-3.5493,-3.5493,-3.5493,-3.5493,-3.5493,-3.5493,-3.5493,-3.5493,-3.5493,-3.5493,-3.5493,-3.5493,-3.5493,-3.5493,-3.5493,-3.5493,-3.5493,-3.5493,-3.5493,-3.5493,-3.5493,-3.5493,-3.5493,-3.5493,-3.5493,-3.5493,-3.5493,-3.5493,-3.5493,-3.5493,-3.5493,-3.5493,-3.5507,-3.5501,-3.5522,-3.554,-3.562,-3.5637,-3.5649,-3.5707,-3.5718,-3.5745,-3.5768,-3.5857,-3.595,-3.5942,-3.5934,-3.5935,-3.5935,-3.5974,-3.5994,-3.6001,-3.5991,-3.5991,-3.5996,-3.5996,-3.5996,-3.5996,-3.5996,-3.5996,-3.5996,-3.5996,-3.5996,-3.5996,-3.5995,-3.5992,-3.5992,-3.5972,-3.5968,-3.5955,-3.5958,-3.5928,-3.5858,-3.5908,-3.5932,-3.596,-3.5966,-3.597,-3.5993,-3.5995,-3.5995,-3.5995,-3.5996,-3.5996,-3.5996,-3.5996,-3.5996,-3.5996,-3.5996,-3.5996,-3.5996,-3.5994,-3.5992,-3.5992,-3.5612,-3.5553,-3.5489,-3.5507,-3.5493,-3.5493,-3.5493,-3.5493,-3.5493,-3.5493,-3.5493,-3.5493,-3.5493,-3.5493,-3.5493,-3.5493,-3.5493,-3.5493,-3.5493,-3.5493,-3.5493,-3.5493,-3.5493,-3.5493,-3.5493,-3.5493,-3.5493,-3.5493,-3.5493,-3.5493,-3.5493,-3.5493,-3.5493,-3.5493,-3.5493,-3.5493,-3.5493,-3.5493,-3.5493,-3.5493,-3.5493,-3.5493,-3.5493,-3.5493,-3.5493,-3.5493,-3.5493,-3.5493,-3.5507,-3.5507,-3.5507,-3.5507,-3.5507,-3.552,-3.5501,-3.5515,-3.5572,-3.5608,-3.5697,-3.5718,-3.5754,-3.5885,-3.585,-3.584,-3.5898,-3.5967,-3.6001,-3.6007,-3.6005,-3.5992,-3.5992,-3.6005,-3.5996,-3.5996,-3.5992,-3.5996,-3.5996,-3.5996,-3.5996,-3.5996,-3.5996,-3.5996,-3.5996,-3.5996,-3.5996,-3.5996,-3.6003,-3.6007,-3.5988,-3.5929,-3.591,-3.5887,-3.5909,-3.5852,-3.5795,-3.5795,-3.5819,-3.588,-3.5903,-3.5935,-3.5988,-3.5982,-3.5987,-3.5989,-3.5995,-3.5996,-3.5996,-3.5996,-3.5996,-3.5996,-3.5996,-3.5996,-3.5995,-3.6001,-3.5991,-3.6007,-3.5608,-3.5554,-3.5488,-3.5507,-3.5493,-3.5493,-3.5493,-3.5493,-3.5493,-3.5493,-3.5493,-3.5493,-3.5493,-3.5493,-3.5493,-3.5493,-3.5493,-3.5493,-3.5493,-3.5493,-3.5493,-3.5493,-3.5493,-3.5493,-3.5493,-3.5493,-3.5493,-3.5493,-3.5493,-3.5493,-3.5493,-3.5493,-3.5493,-3.5493,-3.5493,-3.5493,-3.5493,-3.5493,-3.5493,-3.5493,-3.5493,-3.5493,-3.5493,-3.5493,-3.5493,-3.5493,-3.5493,-3.5493,-3.5507,-3.5509,-3.5489,-3.5502,-3.5553,-3.5565,-3.5577,-3.5574,-3.5637,-3.5689,-3.5756,-3.5818,-3.5884,-3.5955,-3.5973,-3.5966,-3.5972,-3.5986,-3.6007,-3.6004,-3.6009,-3.5996,-3.5996,-3.5995,-3.5995,-3.5995,-3.5996,-3.5996,-3.5996,-3.5996,-3.5996,-3.5996,-3.5996,-3.5996,-3.5996,-3.5996,-3.5995,-3.6003,-3.599,-3.5987,-3.5924,-3.5904,-3.5875,-3.5827,-3.5864,-3.5834,-3.5713,-3.5715,-3.5749,-3.5827,-3.5869,-3.5899,-3.5924,-3.5914,-3.5929,-3.5919,-3.5985,-3.5999,-3.5993,-3.5993,-3.5995,-3.5996,-3.5996,-3.5994,-3.6001,-3.5994,-3.5994,-3.5987,-3.562,-3.5547,-3.5501,-3.5507,-3.5493,-3.5493,-3.5493,-3.5493,-3.5493,-3.5493,-3.5493,-3.5493,-3.5493,-3.5493,-3.5493,-3.5493,-3.5493,-3.5493,-3.5493,-3.5493,-3.5488,-3.5495,-3.5495,-3.5495,-3.556,-3.5554,-3.5522,-3.5495,-3.5528,-3.556,-3.556,-3.5495,-3.5495,-3.5495,-3.5488,-3.5493,-3.5493,-3.5493,-3.5493,-3.5493,-3.5493,-3.5493,-3.5507,-3.5501,-3.5495,-3.5495,-3.5534,-3.5547,-3.5553,-3.5546,-3.557,-3.5601,-3.5635,-3.5657,-3.5658,-3.5689,-3.5717,-3.5752,-3.583,-3.5905,-3.5955,-3.5997,-3.599,-3.6007,-3.6009,-3.6001,-3.5994,-3.6005,-3.5995,-3.5996,-3.5996,-3.5996,-3.5996,-3.5996,-3.5996,-3.5996,-3.5996,-3.5996,-3.5996,-3.5996,-3.5994,-3.5991,-3.5991,-3.5991,-3.6007,-3.5994,-3.5977,-3.5942,-3.5897,-3.5846,-3.5781,-3.5745,-3.5793,-3.5757,-3.565,-3.5649,-3.5679,-3.5698,-3.5779,-3.5803,-3.5818,-3.583,-3.5852,-3.5866,-3.5919,-3.5942,-3.5946,-3.5952,-3.5942,-3.5951,-3.5994,-3.5992,-3.6001,-3.5996,-3.5986,-3.5955,-3.5623,-3.5553,-3.5489,-3.5507,-3.5493,-3.5493,-3.5493,-3.5493,-3.5493,-3.5493,-3.5493,-3.5493,-3.5493,-3.5493,-3.5493,-3.5493,-3.5507,-3.5488,-3.5488,-3.5501,-3.5528,-3.5528,-3.5509,-3.5553,-3.5616,-3.5612,-3.5581,-3.5509,-3.5565,-3.5596,-3.5596,-3.554,-3.5515,-3.5502,-3.5501,-3.5493,-3.5493,-3.5493,-3.5507,-3.5488,-3.5488,-3.552,-3.5515,-3.5515,-3.5509,-3.5553,-3.5601,-3.5615,-3.5629,-3.5629,-3.5669,-3.5728,-3.5737,-3.5737,-3.5756,-3.5799,-3.583,-3.5833,-3.5898,-3.5967,-3.6007,-3.6002,-3.599,-3.5994,-3.5999,-3.5999,-3.6005,-3.5996,-3.5996,-3.5996,-3.5996,-3.5996,-3.5996,-3.5996,-3.5996,-3.5996,-3.5996,-3.5996,-3.5995,-3.5995,-3.6005,-3.601,-3.6004,-3.5985,-3.5981,-3.5978,-3.5924,-3.5885,-3.5866,-3.576,-3.5682,-3.5687,-3.5689,-3.5657,-3.5585,-3.5581,-3.5577,-3.5579,-3.5631,-3.5667,-3.5689,-3.5736,-3.5773,-3.5782,-3.5833,-3.5866,-3.5878,-3.588,-3.5888,-3.591,-3.5964,-3.5986,-3.5982,-3.5985,-3.5924,-3.5859,-3.5615,-3.5553,-3.5489,-3.5507,-3.5493,-3.5493,-3.5493,-3.5493,-3.5493,-3.5493,-3.5493,-3.5493,-3.5493,-3.5493,-3.5493,-3.5493,-3.5495,-3.5502,-3.5502,-3.5553,-3.5589,-3.5589,-3.5593,-3.5626,-3.5687,-3.5698,-3.5649,-3.5585,-3.5596,-3.5596,-3.5596,-3.5596,-3.556,-3.5502,-3.5501,-3.5493,-3.5493,-3.5493,-3.5501,-3.5502,-3.5502,-3.554,-3.5589,-3.5589,-3.5623,-3.5667,-3.5678,-3.5698,-3.5699,-3.5745,-3.5782,-3.581,-3.5854,-3.5869,-3.5869,-3.5891,-3.5898,-3.5903,-3.5961,-3.5986,-3.6002,-3.5997,-3.6007,-3.5999,-3.5995,-3.5996,-3.5996,-3.5996,-3.5996,-3.5996,-3.5996,-3.5996,-3.5996,-3.5996,-3.5996,-3.5996,-3.5996,-3.5991,-3.5999,-3.5999,-3.5994,-3.6001,-3.6002,-3.5958,-3.5908,-3.5911,-3.5916,-3.5846,-3.5724,-3.5659,-3.5611,-3.5615,-3.5604,-3.5589,-3.5509,-3.5509,-3.5502,-3.552,-3.5515,-3.5547,-3.5604,-3.5618,-3.5658,-3.5708,-3.5718,-3.5765,-3.5815,-3.5806,-3.5852,-3.5903,-3.5919,-3.5912,-3.5899,-3.5917,-3.5826,-3.5735,-3.5618,-3.557,-3.554,-3.552,-3.5493,-3.5493,-3.5493,-3.5493,-3.5493,-3.5493,-3.5493,-3.5493,-3.5493,-3.5493,-3.5488,-3.5495,-3.5534,-3.5553,-3.557,-3.5623,-3.5678,-3.5718,-3.5708,-3.5736,-3.5752,-3.5795,-3.5795,-3.5771,-3.5735,-3.5706,-3.5697,-3.5669,-3.5648,-3.5615,-3.5565,-3.556,-3.5547,-3.5522,-3.5522,-3.556,-3.556,-3.5577,-3.5596,-3.5639,-3.5699,-3.5756,-3.5793,-3.581,-3.5807,-3.585,-3.5864,-3.5866,-3.5898,-3.5928,-3.5968,-3.5953,-3.5962,-3.597,-3.599,-3.6009,-3.5994,-3.6007,-3.6003,-3.5993,-3.5996,-3.5996,-3.5996,-3.5996,-3.5996,-3.5996,-3.5996,-3.5996,-3.5996,-3.5996,-3.5996,-3.5996,-3.601,-3.6001,-3.6004,-3.6005,-3.5973,-3.5938,-3.5937,-3.5878,-3.5845,-3.5842,-3.5812,-3.5747,-3.564,-3.5618,-3.5574,-3.5553,-3.5547,-3.5522,-3.5495,-3.5495,-3.5501,-3.5493,-3.5493,-3.552,-3.5534,-3.5534,-3.5558,-3.5601,-3.5623,-3.5667,-3.5679,-3.5736,-3.5788,-3.5833,-3.5846,-3.584,-3.5845,-3.5838,-3.5766,-3.564]}]]